[[{"header":{"parameterUnit":"m.s-1","parameterCategory":1,"la1":30.6,"la2":29.2853,"lo1":-89.7004,"lo2":-87.6739,"dy":0.0162,"dx":0.0183,"nx":112,"ny":82,"refTime":"2026-04-25T12:00:00:Z","depth":0,"parameterNumber":2,"parameterNumberName":"U-component_of_WINDS"},"data":[0.0,0.0,0.0,0.0,0.0,0.0,0.0,0.0,0.0,0.0,0.0,0.0,0.0,0.0,0.0,0.0,0.0,0.0,0.0,0.0,0.0,0.0,0.0,0.0,0.0,0.0,0.0,0.0,0.0,0.0,0.0,0.0,0.0,0.0,0.0,0.0,0.0,0.0,0.0,0.0,0.0,0.0,0.0,0.0,0.0,0.0,0.0,0.0,0.0,0.0,0.0,0.0,0.0,0.0,0.0,0.0,0.0,0.0,0.0,0.0,0.0,0.0,0.0,0.0,0.0,0.0,0.0,0.0,0.0,0.0,0.0,0.0,0.0,0.0,0.0,0.0,0.0,0.0,0.0,0.0,0.0,0.0,0.0,0.0,0.0,0.0,0.0,0.0,0.0,0.0,-3.2115,-3.3909,-3.8096,-4.0468,-3.9578,-3.8581,-3.6232,-3.2044,0.0,0.0,0.0,0.0,0.0,0.0,0.0,0.0,0.0,0.0,0.0,0.0,0.0,0.0,0.0,0.0,0.0,0.0,0.0,0.0,0.0,0.0,0.0,0.0,0.0,0.0,0.0,0.0,0.0,0.0,0.0,0.0,0.0,0.0,0.0,0.0,0.0,0.0,0.0,0.0,0.0,0.0,0.0,0.0,0.0,0.0,0.0,0.0,0.0,0.0,0.0,0.0,0.0,0.0,0.0,0.0,0.0,0.0,0.0,0.0,0.0,0.0,0.0,0.0,0.0,0.0,0.0,0.0,0.0,0.0,0.0,0.0,0.0,0.0,0.0,0.0,0.0,0.0,0.0,0.0,0.0,0.0,0.0,0.0,0.0,0.0,0.0,0.0,0.0,0.0,0.0,0.0,0.0,0.0,0.0,0.0,0.0,0.0,0.0,0.0,0.0,0.0,0.0,0.0,-3.1932,-3.787,-3.9887,-4.0468,-3.9578,-3.804,-3.5575,-3.2006,0.0,0.0,0.0,0.0,0.0,0.0,0.0,0.0,0.0,0.0,0.0,0.0,0.0,0.0,0.0,0.0,0.0,0.0,0.0,0.0,0.0,0.0,0.0,0.0,0.0,0.0,0.0,0.0,0.0,0.0,0.0,0.0,0.0,0.0,0.0,0.0,0.0,0.0,0.0,0.0,0.0,0.0,0.0,0.0,0.0,0.0,0.0,0.0,0.0,0.0,0.0,0.0,0.0,0.0,0.0,0.0,0.0,0.0,0.0,0.0,0.0,0.0,0.0,0.0,0.0,0.0,0.0,0.0,0.0,0.0,0.0,0.0,0.0,0.0,0.0,0.0,0.0,0.0,0.0,0.0,0.0,0.0,0.0,0.0,0.0,0.0,0.0,0.0,0.0,0.0,0.0,0.0,0.0,0.0,0.0,0.0,0.0,0.0,0.0,0.0,0.0,0.0,0.0,-3.1298,-3.4146,-3.9586,-4.0514,-4.0591,-4.0166,-3.855,-3.6092,-3.2667,-2.961,0.0,0.0,0.0,0.0,0.0,0.0,0.0,0.0,0.0,0.0,0.0,0.0,0.0,0.0,0.0,0.0,0.0,0.0,0.0,0.0,0.0,0.0,0.0,0.0,0.0,0.0,0.0,0.0,0.0,0.0,0.0,0.0,0.0,0.0,0.0,0.0,0.0,0.0,0.0,0.0,0.0,0.0,0.0,0.0,0.0,0.0,0.0,0.0,0.0,0.0,0.0,0.0,0.0,0.0,0.0,0.0,0.0,0.0,0.0,0.0,0.0,0.0,0.0,0.0,0.0,0.0,0.0,0.0,0.0,0.0,0.0,0.0,0.0,0.0,0.0,0.0,0.0,0.0,0.0,0.0,0.0,0.0,0.0,0.0,0.0,0.0,0.0,0.0,0.0,0.0,0.0,0.0,0.0,0.0,0.0,0.0,0.0,0.0,0.0,0.0,0.0,0.0,-3.4511,-3.6642,-4.0281,-4.0668,-4.0668,-4.0668,-3.8711,-3.6209,-3.3178,-2.9396,0.0,0.0,0.0,0.0,0.0,0.0,0.0,0.0,0.0,0.0,0.0,0.0,0.0,0.0,0.0,0.0,0.0,0.0,0.0,0.0,0.0,0.0,0.0,0.0,0.0,0.0,0.0,0.0,0.0,0.0,0.0,0.0,0.0,0.0,0.0,0.0,0.0,0.0,0.0,0.0,0.0,0.0,0.0,0.0,0.0,0.0,0.0,0.0,0.0,0.0,0.0,0.0,0.0,0.0,0.0,0.0,0.0,0.0,0.0,0.0,0.0,0.0,0.0,0.0,0.0,0.0,0.0,0.0,0.0,0.0,0.0,0.0,0.0,0.0,0.0,0.0,0.0,0.0,0.0,0.0,0.0,0.0,0.0,0.0,0.0,0.0,0.0,0.0,0.0,0.0,0.0,0.0,0.0,0.0,0.0,0.0,0.0,0.0,0.0,0.0,0.0,0.0,-3.4896,-3.8556,-4.0402,-4.0595,-4.0595,-4.0595,-3.7597,-3.4912,-3.31,-2.8252,0.0,0.0,0.0,0.0,0.0,0.0,0.0,0.0,0.0,0.0,0.0,0.0,0.0,0.0,0.0,0.0,0.0,0.0,0.0,0.0,0.0,0.0,0.0,0.0,0.0,0.0,0.0,0.0,0.0,0.0,0.0,0.0,0.0,0.0,0.0,0.0,0.0,0.0,0.0,0.0,0.0,0.0,0.0,0.0,0.0,0.0,0.0,0.0,0.0,0.0,0.0,0.0,0.0,0.0,0.0,0.0,0.0,0.0,0.0,0.0,0.0,0.0,0.0,0.0,0.0,0.0,0.0,0.0,0.0,0.0,0.0,0.0,0.0,0.0,0.0,0.0,0.0,0.0,0.0,0.0,0.0,0.0,0.0,0.0,0.0,0.0,0.0,0.0,0.0,0.0,0.0,0.0,0.0,0.0,0.0,0.0,0.0,0.0,0.0,0.0,0.0,0.0,-3.4332,-3.7565,-4.0321,-4.0591,-4.0398,-3.9858,-3.8089,-3.5412,-3.164,0.0,0.0,0.0,0.0,0.0,0.0,0.0,0.0,0.0,0.0,0.0,0.0,0.0,0.0,0.0,0.0,0.0,0.0,0.0,0.0,0.0,0.0,0.0,0.0,0.0,0.0,0.0,0.0,0.0,0.0,0.0,0.0,0.0,0.0,0.0,0.0,0.0,0.0,0.0,0.0,0.0,0.0,0.0,0.0,0.0,0.0,0.0,0.0,0.0,0.0,0.0,0.0,0.0,0.0,0.0,0.0,0.0,0.0,0.0,0.0,0.0,0.0,0.0,0.0,0.0,0.0,0.0,0.0,0.0,0.0,0.0,0.0,0.0,0.0,0.0,0.0,0.0,0.0,0.0,0.0,0.0,0.0,0.0,0.0,0.0,0.0,0.0,0.0,0.0,0.0,0.0,0.0,0.0,0.0,0.0,0.0,0.0,0.0,0.0,0.0,0.0,0.0,-3.1224,-3.4417,-3.7339,-3.9899,-4.0207,-3.9815,-3.8967,-3.7368,-3.4661,-3.0654,0.0,0.0,0.0,0.0,0.0,0.0,0.0,0.0,0.0,0.0,0.0,0.0,0.0,0.0,0.0,0.0,0.0,0.0,0.0,0.0,0.0,0.0,0.0,0.0,0.0,0.0,0.0,0.0,0.0,0.0,0.0,0.0,0.0,0.0,0.0,0.0,0.0,0.0,0.0,0.0,0.0,0.0,0.0,0.0,0.0,0.0,0.0,0.0,0.0,0.0,0.0,0.0,0.0,0.0,0.0,0.0,0.0,0.0,0.0,0.0,0.0,0.0,0.0,0.0,0.0,0.0,0.0,0.0,0.0,0.0,0.0,0.0,0.0,0.0,0.0,0.0,0.0,0.0,0.0,0.0,0.0,0.0,0.0,0.0,0.0,0.0,0.0,0.0,0.0,0.0,0.0,0.0,0.0,0.0,0.0,0.0,0.0,0.0,0.0,0.0,0.0,0.0,-3.1378,-3.538,-3.8315,-3.9207,-3.9284,-3.8931,-3.8046,-3.4891,-3.2199,0.0,0.0,0.0,0.0,0.0,0.0,0.0,0.0,0.0,0.0,0.0,0.0,0.0,0.0,0.0,0.0,0.0,0.0,0.0,0.0,0.0,0.0,0.0,0.0,0.0,0.0,0.0,0.0,0.0,0.0,0.0,0.0,0.0,0.0,0.0,0.0,0.0,0.0,0.0,0.0,0.0,0.0,0.0,0.0,0.0,0.0,0.0,0.0,0.0,0.0,0.0,0.0,0.0,0.0,0.0,0.0,0.0,0.0,0.0,0.0,0.0,0.0,0.0,0.0,0.0,0.0,0.0,0.0,0.0,0.0,0.0,0.0,0.0,0.0,0.0,0.0,0.0,0.0,0.0,0.0,0.0,0.0,0.0,0.0,0.0,0.0,0.0,0.0,0.0,0.0,0.0,0.0,0.0,0.0,0.0,0.0,0.0,0.0,0.0,0.0,0.0,0.0,0.0,-3.1273,-3.4847,-3.743,-3.8277,-3.8392,-3.8046,-3.7161,-3.5654,-3.3,-2.889,0.0,0.0,0.0,0.0,0.0,0.0,0.0,0.0,0.0,0.0,0.0,0.0,0.0,0.0,0.0,0.0,0.0,0.0,0.0,0.0,0.0,0.0,0.0,0.0,0.0,0.0,0.0,0.0,0.0,0.0,0.0,0.0,0.0,0.0,0.0,0.0,0.0,0.0,0.0,0.0,0.0,0.0,0.0,0.0,0.0,0.0,0.0,0.0,0.0,0.0,0.0,0.0,0.0,0.0,0.0,0.0,0.0,0.0,0.0,0.0,0.0,0.0,0.0,0.0,0.0,0.0,0.0,0.0,0.0,0.0,0.0,0.0,0.0,0.0,0.0,0.0,0.0,0.0,0.0,0.0,0.0,0.0,0.0,0.0,0.0,0.0,0.0,0.0,0.0,0.0,0.0,0.0,0.0,0.0,0.0,0.0,0.0,0.0,0.0,0.0,0.0,0.0,-3.1295,-3.4648,-3.6885,-3.743,-3.7469,-3.7161,-3.6308,-3.5154,-3.2737,-2.8626,0.0,0.0,0.0,0.0,0.0,0.0,0.0,0.0,0.0,0.0,0.0,0.0,0.0,0.0,0.0,0.0,0.0,0.0,0.0,0.0,0.0,0.0,0.0,0.0,0.0,0.0,0.0,0.0,0.0,0.0,0.0,0.0,0.0,0.0,0.0,0.0,0.0,0.0,0.0,0.0,0.0,0.0,0.0,0.0,0.0,0.0,0.0,0.0,0.0,0.0,0.0,0.0,0.0,0.0,0.0,0.0,0.0,0.0,0.0,0.0,0.0,0.0,0.0,0.0,0.0,0.0,0.0,0.0,0.0,0.0,0.0,0.0,0.0,0.0,0.0,0.0,0.0,0.0,0.0,0.0,0.0,0.0,0.0,0.0,0.0,0.0,0.0,0.0,0.0,0.0,0.0,0.0,0.0,0.0,0.0,0.0,0.0,0.0,0.0,0.0,0.0,0.0,-3.1234,-3.452,-3.6577,-3.6577,-3.6577,-3.6308,-3.5577,-3.3968,-3.1929,-2.9396,0.0,0.0,0.0,0.0,0.0,0.0,0.0,0.0,0.0,0.0,0.0,0.0,0.0,0.0,0.0,0.0,0.0,0.0,0.0,0.0,0.0,0.0,0.0,0.0,0.0,0.0,0.0,0.0,0.0,0.0,0.0,0.0,0.0,0.0,0.0,0.0,0.0,0.0,0.0,0.0,0.0,0.0,0.0,0.0,0.0,0.0,0.0,0.0,0.0,0.0,0.0,0.0,0.0,0.0,0.0,0.0,0.0,0.0,0.0,0.0,-3.4995,0.0,0.0,0.0,0.0,0.0,0.0,0.0,0.0,0.0,0.0,0.0,0.0,0.0,0.0,0.0,0.0,0.0,0.0,0.0,0.0,0.0,0.0,0.0,0.0,0.0,0.0,0.0,0.0,0.0,0.0,0.0,0.0,0.0,0.0,0.0,0.0,0.0,0.0,0.0,0.0,0.0,-3.0353,-3.3635,-3.5769,-3.5769,-3.5769,-3.5692,-3.55,-3.4545,-3.2852,-3.0269,-2.6923,0.0,0.0,0.0,0.0,0.0,0.0,0.0,0.0,0.0,0.0,0.0,0.0,0.0,0.0,0.0,0.0,0.0,0.0,0.0,0.0,0.0,0.0,0.0,0.0,0.0,0.0,0.0,0.0,0.0,0.0,0.0,0.0,0.0,0.0,0.0,0.0,0.0,0.0,0.0,0.0,0.0,0.0,0.0,0.0,0.0,0.0,0.0,0.0,0.0,0.0,0.0,0.0,0.0,0.0,0.0,0.0,0.0,0.0,0.0,0.0,-3.7012,0.0,0.0,0.0,0.0,0.0,0.0,0.0,0.0,0.0,0.0,0.0,0.0,0.0,0.0,0.0,0.0,0.0,0.0,0.0,0.0,0.0,0.0,0.0,0.0,0.0,0.0,0.0,0.0,0.0,0.0,0.0,0.0,0.0,0.0,0.0,0.0,0.0,0.0,0.0,0.0,-3.0144,-3.3397,-3.55,-3.55,-3.55,-3.55,-3.55,-3.4699,-3.3276,-3.1154,-2.8582,0.0,0.0,0.0,0.0,0.0,0.0,0.0,0.0,0.0,0.0,0.0,0.0,0.0,0.0,0.0,0.0,0.0,0.0,0.0,0.0,0.0,0.0,0.0,0.0,0.0,0.0,0.0,0.0,0.0,0.0,0.0,0.0,0.0,0.0,0.0,0.0,0.0,0.0,0.0,0.0,0.0,0.0,0.0,0.0,0.0,0.0,0.0,0.0,0.0,0.0,0.0,0.0,0.0,-4.524,-4.6086,-4.6518,-4.7394,-4.7769,-4.7586,-4.4097,-4.2533,-4.2248,-3.9311,0.0,0.0,0.0,0.0,0.0,0.0,0.0,0.0,0.0,0.0,0.0,0.0,0.0,0.0,0.0,0.0,0.0,0.0,0.0,0.0,0.0,0.0,0.0,0.0,-3.4937,-3.4539,-2.9457,0.0,0.0,0.0,0.0,0.0,0.0,0.0,0.0,0.0,0.0,0.0,-3.0429,-3.3462,-3.55,-3.55,-3.55,-3.5423,-3.5269,-3.4737,-3.3699,-3.2006,-3.0275,-2.8011,0.0,0.0,0.0,0.0,0.0,0.0,0.0,0.0,0.0,0.0,0.0,0.0,0.0,0.0,0.0,0.0,0.0,0.0,0.0,0.0,0.0,0.0,0.0,0.0,0.0,0.0,0.0,0.0,0.0,0.0,0.0,0.0,-3.1083,-3.2122,0.0,0.0,0.0,0.0,0.0,0.0,0.0,0.0,0.0,0.0,0.0,0.0,0.0,-4.1816,-4.3624,-4.6586,-4.7855,-4.7471,-5.0548,-5.1318,-5.0058,-5.0856,-5.1231,-5.1192,-5.0664,0.0,-4.5021,-4.3866,0.0,0.0,0.0,0.0,0.0,0.0,0.0,0.0,0.0,0.0,0.0,0.0,0.0,0.0,0.0,0.0,0.0,0.0,0.0,0.0,0.0,0.0,-3.6276,-3.713,-3.7514,-3.7245,0.0,-3.2691,-2.9951,-2.8612,-2.668,0.0,0.0,0.0,0.0,0.0,0.0,0.0,-3.1314,-3.3846,-3.55,-3.55,-3.55,-3.5192,-3.443,-3.4968,-3.4577,-3.2852,-3.1154,-2.9698,-2.8472,-2.4817,0.0,0.0,0.0,0.0,0.0,0.0,0.0,0.0,0.0,0.0,0.0,0.0,0.0,0.0,0.0,0.0,0.0,0.0,0.0,0.0,0.0,0.0,0.0,0.0,0.0,0.0,0.0,0.0,0.0,-3.0204,-3.3045,-3.2929,-3.3468,-3.3269,0.0,0.0,0.0,0.0,0.0,0.0,0.0,0.0,0.0,-4.4662,-4.5624,-4.7124,-4.9279,-5.1279,-5.2549,-5.3126,-5.4626,-5.5203,-5.4972,-5.5357,-5.5241,-5.478,-5.478,-5.3174,-5.0385,-4.7604,-4.4812,-4.2063,0.0,0.0,0.0,0.0,-3.7493,-3.7987,-3.9028,-3.9329,-3.8967,-3.7133,0.0,0.0,0.0,0.0,0.0,0.0,0.0,0.0,0.0,0.0,-3.7777,-3.9084,-3.94,-3.9315,-3.8931,-3.706,-3.4616,0.0,-3.0766,-2.9182,-2.5568,0.0,0.0,0.0,0.0,-3.1006,-3.2237,-3.4192,-3.55,-3.55,-3.55,-3.5154,-3.4282,-3.5007,-3.4769,-3.3006,-3.266,-3.1737,-2.9929,-2.7582,-2.5125,0.0,0.0,0.0,0.0,0.0,0.0,0.0,0.0,0.0,0.0,0.0,0.0,0.0,0.0,0.0,0.0,0.0,0.0,0.0,0.0,0.0,0.0,0.0,0.0,0.0,0.0,0.0,0.0,-3.2352,-3.493,-3.4276,-3.5923,-3.6115,0.0,0.0,0.0,0.0,0.0,0.0,-4.3308,-4.4432,-4.6394,-4.9317,-5.0433,-5.201,-5.4164,-5.5049,-5.6088,-5.7319,-5.7319,-5.7665,-5.8319,-5.8319,-5.7934,-5.733,-5.7099,-5.6291,-5.4818,-5.101,-4.8403,-4.6613,-4.3594,-4.1963,-4.1339,-4.1755,-4.2017,-4.2441,-4.4127,-4.4435,-4.3742,-4.1632,-4.0484,-3.9343,-3.5971,0.0,0.0,0.0,0.0,-3.6414,-3.8744,-3.9145,-3.9292,-4.0569,-4.087,-4.0785,-4.0554,-4.0015,-3.8553,0.0,-3.4391,-3.3276,-2.9236,0.0,0.0,0.0,0.0,-3.2314,-3.3122,-3.4538,-3.55,-3.55,-3.55,-3.5154,-3.4282,-3.5007,-3.4846,-3.3314,-3.3622,-3.3006,-3.1115,-2.9775,-2.7741,-2.4817,0.0,0.0,0.0,0.0,0.0,0.0,0.0,0.0,0.0,0.0,0.0,0.0,0.0,0.0,0.0,0.0,0.0,0.0,0.0,0.0,0.0,0.0,0.0,0.0,0.0,0.0,0.0,0.0,0.0,-3.7738,-3.9969,0.0,0.0,0.0,0.0,-4.1308,-4.3047,-4.5124,-4.7663,-4.9394,-5.1125,-5.2895,-5.4511,-5.5818,-5.6791,-5.7665,-5.8165,-5.8242,-5.8242,-5.828,-5.8319,-5.8319,-5.828,-5.8204,-5.7368,-5.6945,-5.6676,-5.4049,-5.1972,-5.025,-4.8432,-4.724,-4.6432,-4.5633,-4.5851,-4.6463,-4.5766,-4.6078,-4.6637,-4.5671,-4.3721,-4.1598,-4.0602,-3.9721,0.0,0.0,-4.0377,-4.0756,-4.2486,-4.2333,-4.1724,-4.1801,-4.1771,-4.1508,-4.0669,-4.0477,-3.99,0.0,-3.65,-3.5077,-3.4013,0.0,-3.1737,-3.2468,-3.2737,-3.316,-3.4013,-3.493,-3.55,-3.55,-3.55,-3.5154,-3.4282,-3.5007,-3.5115,-3.4205,-3.3391,-3.2891,-3.2776,-3.0396,-2.828,-2.6505,-2.3928,0.0,0.0,0.0,0.0,0.0,0.0,0.0,0.0,0.0,0.0,0.0,0.0,0.0,0.0,0.0,0.0,0.0,0.0,0.0,0.0,0.0,0.0,0.0,0.0,0.0,0.0,0.0,0.0,-4.1239,-4.4008,0.0,-4.3085,-4.4162,-4.5201,-4.5817,-4.8471,-5.0664,-5.2125,-5.3818,-5.528,-5.6434,-5.755,-5.828,-5.8588,-5.9473,-5.9896,-5.9896,-5.9896,-5.9896,-5.9896,-5.9896,-5.9588,-5.905,-5.8204,-5.7511,-5.6907,-5.5395,-5.4164,-5.2972,-5.1241,-5.0385,-5.0,-4.9202,-4.9067,-4.9307,-4.898,-4.873,-4.8333,-4.692,-4.5145,-4.3451,-4.3181,-4.2487,-4.1832,-4.2179,-4.2233,-4.2364,-4.298,-4.2887,-4.2686,-4.2686,-4.2247,-4.1692,-4.1393,-4.0893,-4.0323,-3.9708,-3.87,-3.7315,-3.5353,-3.4968,-3.4468,-3.3083,-3.3853,-3.4692,-3.5007,-3.5308,-3.55,-3.55,-3.55,-3.5154,-3.4282,-3.5007,-3.4885,-3.343,-3.3583,-3.3237,-3.216,-3.0737,-2.9159,-2.7467,-2.4933,-2.247,0.0,0.0,0.0,0.0,0.0,0.0,0.0,0.0,0.0,0.0,0.0,0.0,0.0,0.0,0.0,0.0,0.0,0.0,0.0,0.0,0.0,0.0,0.0,0.0,0.0,-4.0046,-4.3316,-4.3855,-4.7163,-4.8625,-4.6624,-4.8509,-4.9933,-5.024,-5.2895,-5.4857,-5.5742,-5.7088,-5.8088,-5.8704,-5.9511,-5.9935,-5.9935,-6.0512,-6.0781,-6.0781,-6.0781,-6.0781,-6.0781,-6.0512,-6.0204,-5.9896,-5.8781,-5.7973,-5.7357,-5.6511,-5.5665,-5.4741,-5.3318,-5.2779,-5.2702,-5.1856,-5.1376,-5.1077,-5.0827,-5.0173,-4.9268,-4.8123,-4.6848,-4.5679,-4.5371,-4.4869,-4.4368,-4.406,-4.3967,-4.3981,-4.3981,-4.3973,-4.3918,-4.361,-4.2863,-4.2162,-4.1846,-4.1123,-4.0516,-4.0516,-3.9861,-3.8854,-3.743,-3.6923,-3.6315,-3.5238,-3.5315,-3.5615,-3.5885,-3.5654,-3.55,-3.55,-3.55,-3.5269,-3.4699,-3.4891,-3.4584,-3.3391,-3.3353,-3.2737,-3.1308,-3.0423,-2.9159,-2.7505,-2.4971,-2.2816,-2.1077,0.0,0.0,0.0,0.0,0.0,0.0,0.0,0.0,0.0,0.0,0.0,0.0,0.0,0.0,0.0,0.0,0.0,0.0,0.0,0.0,0.0,0.0,0.0,-3.9361,-4.3055,-4.5748,-4.5864,-4.9548,-5.1115,-4.8663,-5.1395,-5.3703,-5.4549,-5.6165,-5.7462,-5.828,-5.9088,-5.955,-5.955,-6.0358,-6.0781,-6.0781,-6.0781,-6.0742,-6.0742,-6.0742,-6.0742,-6.0742,-5.9896,-5.9973,-6.0666,-5.8973,-5.828,-5.8204,-5.7319,-5.6483,-5.5626,-5.4857,-5.4549,-5.4434,-5.3549,-5.2694,-5.1905,-5.1103,-5.0275,-4.9545,-4.9513,-4.899,-4.818,-4.7293,-4.7023,-4.683,-4.5989,-4.5719,-4.568,-4.568,-4.5687,-4.547,-4.4652,-4.3772,-4.2893,-4.2038,-4.1162,-4.0516,-4.0516,-3.9861,-3.9592,-4.0323,-3.843,-3.7353,-3.8969,-3.7123,0.0,-3.6577,-3.5962,-3.55,-3.5538,-3.5538,-3.5538,-3.5538,-3.4776,-3.4244,-3.4167,-3.2622,-3.1308,-3.0423,-2.9544,-2.828,-2.6621,-2.4159,-2.2043,-2.0385,0.0,0.0,0.0,0.0,0.0,0.0,0.0,0.0,0.0,0.0,0.0,0.0,0.0,0.0,0.0,0.0,0.0,0.0,0.0,0.0,0.0,-3.9815,-4.2662,-4.2893,-4.6047,-4.9279,-5.1741,-5.4164,-5.5549,-5.5511,-5.6357,-5.7011,-5.7242,-5.8204,-5.8934,-5.9165,-5.9973,-6.0435,-6.0435,-6.0666,-6.0781,-6.0781,-6.0165,-5.9858,-5.9858,-5.9858,-5.9858,-5.9858,-5.9627,-5.9627,-5.9742,-5.8088,-5.7368,-5.728,-5.6395,-5.5934,-5.5665,-5.5472,-5.5357,-5.528,-5.4434,-5.3213,-5.1914,-5.1655,-5.1039,-5.0269,-4.9624,-4.9305,-4.9024,-4.8129,-4.7435,-4.6896,-4.6634,-4.6108,-4.5629,-4.5629,-4.562,-4.5573,-4.5342,-4.4594,-4.3739,-4.2931,-4.2047,-4.1277,-4.0631,-4.0323,-4.0054,-3.9708,-3.9053,-3.8315,-3.7546,-3.6808,0.0,-3.5885,-3.5654,-3.5731,-3.6308,-3.6385,-3.6385,-3.6385,-3.6161,-3.5238,-3.3353,-3.2275,-3.1308,-3.0423,-2.9006,-2.7736,-2.6621,-2.5269,-2.3774,0.0,0.0,0.0,0.0,0.0,0.0,0.0,0.0,0.0,0.0,0.0,0.0,0.0,0.0,0.0,0.0,0.0,0.0,0.0,0.0,0.0,0.0,-4.3893,-4.6817,-4.7894,-4.974,-5.1972,-5.4664,-5.6175,-5.7319,-5.8204,-5.8588,-5.8819,-5.8819,-5.9242,-5.9511,-5.9511,-5.9665,-5.9742,-5.9742,-6.0089,-6.0242,-6.0242,-6.0127,-6.005,-6.005,-6.005,-5.9858,-5.9473,-5.9165,-5.9011,-5.8934,-5.7599,-5.6983,-5.6945,-5.6445,-5.6011,0.0,0.0,0.0,0.0,0.0,-5.3626,-5.2385,-5.2038,-5.1356,-5.0635,-5.0087,-4.9952,-4.9826,-4.897,-4.8354,-4.7815,-4.7083,-4.6527,-4.6047,-4.571,-4.5594,-4.5594,-4.5594,-4.4932,-4.4085,-4.3278,-4.2431,-4.1546,-4.0669,-4.0516,0.0,-3.99,-3.9515,-3.9092,-3.8392,-3.7392,-3.6654,-3.6538,-3.5923,-3.5692,-3.6154,-3.6192,-3.6192,-3.6192,-3.5853,0.0,0.0,0.0,-3.116,-2.9929,-2.8582,0.0,0.0,0.0,0.0,0.0,0.0,0.0,0.0,-2.297,-2.2697,0.0,0.0,0.0,0.0,0.0,0.0,0.0,0.0,0.0,0.0,0.0,0.0,0.0,0.0,0.0,0.0,-4.7509,-5.0548,-5.301,-5.3433,-5.4126,-5.578,-5.6676,-5.7511,-5.8473,-5.9242,-5.9665,-5.9665,-5.955,-5.9511,-5.9511,0.0,0.0,0.0,0.0,-5.9511,-5.9511,-6.0281,-6.0666,-6.0666,-6.0666,-6.0204,-5.9358,-5.8627,-5.8242,-5.8127,-5.7319,-5.6945,-5.6868,-5.6945,-5.6483,-5.5703,-5.5703,-5.5703,-5.5588,-5.4895,-5.4087,-5.3241,-5.2346,0.0,0.0,-5.075,-5.0712,-5.0558,-4.9779,-4.9471,-4.9086,-4.7471,-4.6962,-4.6701,-4.5825,-4.5594,-4.5594,-4.5594,-4.5017,-4.4201,-4.3393,-4.2547,-4.17,-4.0823,-4.0554,-4.0516,-4.0516,-3.99,-3.9669,-4.0285,-3.8354,-3.7084,-3.7777,-3.6462,-3.5538,-3.5615,0.0,0.0,-3.5654,-3.493,-3.4398,-3.4205,-3.2699,-3.1083,-2.9473,-2.878,-2.8434,-2.8319,-2.8319,-2.8626,-2.9242,-2.9357,-2.9775,-3.0462,-2.6587,-2.5625,0.0,0.0,0.0,0.0,0.0,0.0,0.0,0.0,0.0,0.0,0.0,0.0,0.0,0.0,0.0,-4.6778,-4.9663,-5.2087,-5.3972,-5.4818,-5.5857,-5.7588,-5.7934,-5.8665,-6.0165,-6.0473,-6.055,-6.055,-5.9896,-5.9511,-5.9511,-5.8742,-5.8319,-5.8319,-5.9088,-5.9511,-5.9511,-5.9665,-5.9742,-5.9742,0.0,0.0,-5.855,-5.8357,-5.7934,-5.7253,-5.706,-5.6599,-5.6011,-5.6714,-5.6483,-5.5703,-5.5703,-5.5703,-5.5665,-5.5511,-5.4934,-5.4126,-5.3241,-5.2395,-5.1548,-5.0894,-5.0712,-5.0673,-5.0519,-4.9971,0.0,-4.8163,-4.7394,-4.6701,-4.5825,-4.5594,-4.5594,-4.5594,-4.5479,-4.5133,-4.4239,-4.3431,-4.2585,-4.1739,-4.0969,-4.0516,-4.0516,-4.0362,-4.0092,-3.9631,-3.8507,-3.7546,-3.7,-3.6115,-3.5731,-3.6385,-3.6462,-3.6462,-3.6462,-3.6308,-3.5622,-3.4282,-3.3237,-3.2237,-3.1237,-3.166,-3.1621,-3.0968,-3.0968,-3.0698,-3.0154,-3.0852,-3.1275,-3.1429,-2.9885,-2.9346,0.0,0.0,0.0,0.0,0.0,0.0,0.0,0.0,0.0,0.0,0.0,-3.8597,-4.13,0.0,-4.6701,-5.0087,-5.2087,-5.3664,-5.4934,-5.5434,-5.6357,-5.8088,-5.8319,-5.8973,-6.0627,-6.0396,-6.0165,-6.0165,-5.8973,-5.8242,-5.8242,-5.7857,-5.7665,-5.7665,-5.8858,-5.9511,-5.9511,-5.9935,-6.0165,-6.0165,-6.0165,-5.9511,-5.8319,-5.8319,-5.7588,-5.6368,-5.683,-5.6522,-5.5742,-5.6175,-5.6088,-5.5703,-5.5703,-5.5703,-5.5703,-5.5703,-5.5203,-5.4395,-5.351,-5.2615,-5.1769,-5.0971,-5.0712,-5.0712,-5.0712,-5.0404,-4.9856,-4.9009,-4.8163,-4.7317,-4.6471,-4.5932,-4.5594,-4.5594,-4.5594,-4.5364,-4.447,-4.3662,-4.2854,-4.1962,-4.1085,-4.0516,-4.0516,-4.0516,-4.0362,-3.9977,-3.8815,-3.7853,-3.743,-3.6269,-3.5654,-3.6077,-3.6115,-3.6115,-3.6115,-3.6462,-3.5968,-3.4321,-3.4199,-3.3622,-3.2352,-3.2699,-3.2699,-3.2314,-3.2314,-3.2314,-3.2314,-3.2737,-3.3199,-3.3577,-3.3154,-3.2462,0.0,0.0,0.0,0.0,0.0,0.0,0.0,-3.4729,-3.6693,-3.8014,-4.0168,-4.2734,-4.576,-4.7702,-4.9856,-5.2933,-5.4049,-5.478,-5.5588,-5.5703,-5.628,-5.7857,-5.805,-5.8704,-6.0358,-5.9896,-5.9511,-5.9511,-5.8088,-5.7253,-5.7253,-5.7099,-5.7099,-5.7253,-5.8704,-5.9511,-5.9511,-6.0358,-6.0781,-6.0781,-6.0781,-5.9935,-5.8319,-5.8319,-5.7434,-5.5972,-5.6714,-5.6714,-5.6165,-5.5818,-5.5703,-5.5703,-5.5703,-5.5703,-5.5703,-5.5703,-5.528,-5.4587,-5.3549,-5.2741,-5.2,-5.101,-5.0712,-5.0712,-5.0712,-5.0712,-5.0519,-4.9663,-4.8779,-4.7932,-4.7115,-4.624,-4.5594,-4.5594,-4.5594,-4.5402,-4.4701,-4.3778,-4.2893,-4.22,-4.12,-4.0516,-4.0516,-4.0516,-4.0516,-4.0516,-3.92,-3.82,-3.8007,-3.6654,-3.5654,-3.5538,-3.55,-3.55,-3.55,-3.6231,-3.6122,-3.4776,-3.5507,-3.5269,-3.3699,-3.3622,-3.3545,-3.343,-3.343,-3.3737,-3.443,-3.443,-3.4814,-3.55,-3.55,-3.4731,-3.2964,-3.202,-3.2371,-3.5695,-3.5571,-3.6252,0.0,-4.2398,-4.1698,-4.4107,-4.5991,-4.7606,-4.8779,-5.0356,-5.2115,-5.4049,-5.4434,-5.478,-5.5588,-5.5703,-5.6049,-5.7022,-5.7137,-5.778,-5.9473,-5.955,-5.9511,-5.9511,-5.8665,-5.8165,-5.8165,-5.7434,-5.7368,-5.8127,-5.905,-5.9511,-5.9511,-6.0358,-6.0781,-6.0781,-6.0781,-5.9935,-5.8319,-5.8319,-5.778,-5.6868,-5.6945,-5.7357,-5.7896,-5.6357,-5.5703,-5.5703,-5.5703,-5.5703,-5.5703,-5.5703,-5.5626,-5.5318,-5.3741,-5.3126,-5.2779,-5.1202,-5.0712,-5.0712,-5.0712,-5.0712,-5.0519,-4.9663,-4.8779,-4.7932,-4.7115,-4.624,-4.5594,-4.5594,-4.5594,-4.5556,-4.5479,-4.4201,-4.3085,-4.297,-4.1623,-4.0516,-4.0516,-4.0516,-4.0516,-4.0516,-3.9746,-3.8854,-3.8084,-3.7161,-3.6308,-3.5577,-3.55,-3.55,-3.55,-3.6231,-3.6615,-3.6423,-3.7238,-3.7276,-3.6308,-3.6269,-3.5923,-3.5231,-3.5192,-3.5269,-3.5346,-3.5346,-3.5385,-3.55,-3.55,-3.5385,-3.7073,-3.6734,-3.7062,-3.9411,-4.0563,-4.1787,-4.429,-4.5163,-4.5778,-4.6855,-4.8432,-5.001,-5.1356,-5.2202,-5.3203,-5.4934,-5.5203,-5.5318,-5.5665,-5.528,-5.5126,-5.5511,-5.5549,-5.6395,-5.8588,-5.8819,-5.8588,-5.8088,-5.7742,-5.755,-5.755,-5.7665,-5.8127,-5.8973,-5.9819,-6.0242,-6.0242,-6.0627,-6.0781,-6.0781,-6.0781,-5.9935,-5.8319,-5.8319,-5.8088,-5.7703,-5.6665,-5.7011,-5.8165,-5.6434,-5.5703,-5.5703,-5.5703,-5.5703,-5.5703,-5.5703,-5.5703,-5.5472,-5.378,-5.3203,-5.2933,-5.1241,-5.0712,-5.0712,-5.0712,-5.0712,-5.0635,-5.025,-4.9163,-4.8009,-4.7702,-4.6586,-4.5594,-4.5594,-4.5594,-4.5594,-4.5594,-4.4662,-4.3662,-4.3201,-4.2085,-4.1085,-4.0593,-4.0516,-4.0516,-4.0516,-3.9823,-3.8977,-3.8123,-3.7238,-3.6385,-3.5577,-3.55,-3.55,-3.55,-3.6231,-3.65,-3.6038,-3.7276,-3.7623,-3.6731,-3.7199,-3.7315,-3.6969,-3.6969,-3.6692,-3.6192,-3.6192,-3.5962,-3.55,-3.55,-3.55,-3.9682,-4.0284,-4.1212,-4.2745,-4.4832,-4.6493,-4.6423,-4.7663,-4.8894,-4.9086,-5.0164,-5.1395,-5.2626,-5.3049,-5.3664,-5.5126,-5.5357,-5.5434,-5.5665,-5.5011,-5.4511,-5.4511,-5.428,-5.4972,-5.7049,-5.7665,-5.778,-5.7396,-5.7368,-5.7473,-5.7665,-5.828,-5.9011,-5.9819,-6.0473,-6.0781,-6.0781,-6.0781,-6.0781,-6.0781,-6.0781,-6.005,-5.8627,-5.8627,-5.8511,-5.8242,-5.6973,-5.7126,-5.8165,-5.6434,-5.5703,-5.5703,-5.5703,-5.5703,-5.5703,-5.5703,-5.5703,-5.5472,-5.4049,-5.3395,-5.2972,-5.151,-5.0894,-5.0712,-5.0712,-5.0712,-5.0712,-5.0712,-4.9625,-4.8394,-4.8163,-4.7048,-4.5893,-4.5671,-4.5594,-4.5594,-4.5594,-4.494,-4.4047,-4.3278,-4.2393,-4.1508,-4.0669,-4.0516,-4.0516,-4.0516,-4.0015,-3.9323,-3.8469,-3.7392,-3.6385,-3.5577,-3.55,-3.55,-3.55,-3.6231,-3.6462,-3.5885,-3.7199,-3.7623,-3.6731,-3.7315,-3.7546,-3.7315,-3.7315,-3.7007,-3.6385,-3.6385,-3.6077,-3.55,-3.55,-3.55,-3.9739,-4.1381,-4.3706,-4.5906,-4.7684,-4.9373,-5.1239,-5.1125,-5.0818,-5.1615,-5.1846,-5.1885,-5.1923,-5.2615,-5.351,-5.4395,-5.4549,-5.4818,-5.5588,-5.5011,-5.4511,-5.4511,-5.3741,-5.3587,-5.4511,-5.6099,-5.7357,-5.8204,-5.828,-5.8588,-5.9396,-5.9435,-5.9858,-6.0742,-6.0781,-6.0781,-6.0781,-6.0781,-6.0781,-6.0781,-6.0781,-6.0319,-5.9473,-5.9473,-5.905,-5.8319,-5.8242,-5.8242,-5.8165,-5.6434,-5.5703,-5.5703,-5.5703,-5.5703,-5.5703,-5.5703,-5.5703,-5.5588,-5.4741,-5.3895,-5.3049,-5.2154,-5.1356,-5.0712,-5.0712,-5.0712,-5.0712,-5.0712,-5.0048,-4.9163,-4.8317,-4.7471,-4.6663,-4.5787,-4.5594,-4.5594,-4.5594,-4.494,-4.4047,-4.3278,-4.2393,-4.1508,-4.0669,-4.0516,-4.0516,-4.0516,-4.0477,-4.0169,-3.9361,-3.7777,-3.6385,-3.5577,-3.55,-3.55,-3.55,-3.6231,-3.6692,-3.6654,-3.7507,-3.7623,-3.6731,-3.6731,-3.6385,-3.5577,-3.5577,-3.5577,-3.5538,-3.5538,-3.5538,-3.55,-3.55,-3.55,-4.1803,-4.3833,-4.6129,-4.869,-5.0123,-5.1237,-5.249,-5.2549,-5.2125,-5.1279,-5.0625,-5.024,-5.024,-5.0471,-5.1318,-5.3318,-5.4126,-5.478,-5.5588,-5.5011,-5.428,-5.3703,-5.3395,-5.3318,-5.3626,-5.5164,0.0,-5.6549,-5.7665,-5.8434,-5.8704,-5.9204,-5.9896,-6.0781,-6.0781,-6.0781,-6.0781,-6.0781,-6.0781,-6.0781,-6.0204,-5.9511,-5.8704,-5.8704,-5.855,-5.828,-5.7703,-5.778,-5.8165,-5.6434,-5.5703,-5.5703,-5.5703,-5.5703,-5.5703,-5.5703,-5.5703,-5.5588,-5.478,-5.3933,-5.3049,-5.2192,-5.1356,-5.0712,-5.0712,-5.0712,-5.0712,-5.0712,-5.0048,-4.9202,-4.8317,-4.7509,-4.6701,-4.5825,-4.5594,-4.5594,-4.5594,-4.5364,-4.4902,-4.4047,-4.3239,-4.2393,-4.1508,-4.0893,-4.0516,-4.0516,-4.0054,-3.94,-3.8546,-3.743,-3.6385,-3.5577,-3.55,-3.55,-3.55,-3.5731,-3.5885,-3.5885,-3.6692,-3.7,-3.6692,-3.7276,-3.743,-3.7161,-3.7161,-3.6885,-3.6308,-3.6308,-3.6,-3.55,-3.55,-3.55,-4.4843,-4.6926,-4.8963,-5.1441,-5.2664,-5.3318,-5.3587,-5.3164,-5.2279,-5.0587,-4.9317,-4.8394,-4.8086,-4.8048,-4.8971,-5.1856,-5.2779,-5.3741,-5.5472,-5.5011,-5.428,-5.3741,-5.3395,-5.3318,-5.3626,-5.4626,0.0,-5.6126,-5.7473,-5.8434,-5.8704,-5.9511,-6.0204,-6.0781,-6.0781,-6.0781,-6.0781,-6.0781,-6.0781,-6.0781,-6.0242,-5.9511,-5.8742,-5.905,-5.9011,-5.8665,-5.7819,-5.778,-5.8165,-5.6434,-5.5703,-5.5703,-5.5703,-5.5703,-5.5703,-5.5703,-5.5703,-5.5626,-5.5126,-5.4164,-5.3126,-5.2538,-5.1625,-5.0712,-5.0712,-5.0712,-5.0712,-5.0712,-5.0289,-4.9663,-4.8779,-4.7971,-4.7124,-4.6278,-4.5825,-4.5594,-4.5594,-4.5594,-4.5325,-4.447,-4.3893,-4.3162,-4.2,-4.1085,-4.0516,-4.0516,-4.0054,-3.9438,-3.8584,-3.77,-3.6846,-3.6,-3.5654,-3.55,-3.55,-3.55,-3.55,-3.55,-3.6,-3.6269,-3.6269,-3.6815,-3.7123,-3.7123,-3.7123,-3.6808,-3.6269,-3.6269,-3.6,-3.55,-3.55,-3.55,-4.8545,-5.0412,-5.2192,-5.4084,-5.5088,-5.5434,-5.4626,-5.3049,-5.1269,-4.9548,-4.7855,-4.6355,-4.5441,-4.5364,-4.6556,-4.9904,-5.0635,-5.1905,-5.5164,-5.5011,-5.4549,-5.4511,-5.378,-5.3587,-5.4434,-5.4511,0.0,-5.683,0.0,-5.8627,-5.9396,-6.0281,-6.0781,-6.0781,-6.0781,-6.0781,-6.0781,-6.0781,-6.0781,-6.0781,-6.0781,-6.0319,-5.9511,-6.0396,-6.0281,-5.9396,-5.8627,-5.828,-5.8088,-5.6395,-5.5703,-5.5703,-5.5703,-5.5703,-5.5703,-5.5703,-5.5703,-5.5703,-5.5703,-5.4587,-5.3203,-5.3203,-5.2087,-5.0712,-5.0712,-5.0712,-5.0712,-5.0712,-5.0712,-5.0519,-4.9625,-4.874,-4.7894,-4.7077,-4.624,-4.5594,-4.5594,-4.5594,-4.5364,-4.4509,-4.4316,-4.3701,-4.2077,-4.1085,-4.0516,-4.0516,-4.0516,-4.0208,-3.94,-3.8584,-3.7738,-3.6808,-3.6,-3.5538,-3.55,-3.55,-3.55,-3.55,-3.55,-3.55,-3.55,-3.55,-3.55,-3.55,-3.55,-3.55,-3.55,-3.55,-3.55,-3.55,-3.55,-3.55,-5.0264,-5.2313,-5.4035,-5.5115,-5.5088,-5.4587,-5.3741,-5.1702,-4.9394,-4.7057,-4.4701,-4.2662,-4.117,-4.247,-4.4432,-4.6556,-4.9548,-5.2356,-5.4511,-5.5164,-5.5164,-5.4549,-5.4318,-5.4241,-5.4472,-5.4511,0.0,0.0,-5.7434,-5.8396,-5.8588,-6.0012,-6.0781,-6.0781,-6.0781,-6.0781,-6.0781,-6.0781,-6.0781,-6.0781,-6.0781,-6.0319,-5.9511,-6.0396,-6.0012,-5.8588,-5.8396,-5.7934,-5.7253,-5.6165,-5.5703,-5.5703,-5.5703,-5.5703,-5.5703,-5.5703,-5.5703,-5.5703,-5.5703,-5.4587,-5.3203,-5.3203,-5.2087,-5.0712,-5.0712,-5.0712,-5.0712,-5.0712,-5.0712,-5.0519,-4.9625,-4.874,-4.7894,-4.7077,-4.624,-4.5594,-4.5594,-4.5594,-4.5518,-4.5325,-4.4239,-4.3047,-4.2,-4.1085,-4.0516,-4.0516,-4.0516,-4.0208,-3.94,-3.913,-3.8392,-3.6846,-3.65,-3.6154,-3.5538,-3.55,-3.55,-3.55,-3.55,-3.55,-3.55,-3.55,-3.55,-3.55,-3.55,-3.55,-3.55,-3.55,-3.55,-3.55,-3.55,-3.55,-5.2352,-5.3947,-5.5126,-5.5588,-5.4818,-5.351,-5.1895,-4.9548,-4.6778,-4.3517,-4.1393,-3.9623,-3.793,-3.9392,-4.1777,-4.4594,-4.7971,-5.1241,-5.4087,-5.5203,-5.5511,-5.5088,-5.5011,-5.5011,-5.5011,-5.5011,-5.5357,0.0,-5.7511,-5.8319,-5.8319,-5.9896,-6.0781,-6.0781,-6.0781,-6.0781,-6.0781,-6.0781,-6.0781,-6.0781,-6.0781,-6.055,-6.0089,-6.0589,-6.0089,-5.8819,0.0,-5.7819,-5.6945,-5.6049,-5.5703,-5.5703,-5.5703,-5.5703,-5.5703,-5.5703,-5.5703,-5.5703,-5.5703,-5.4857,-5.3703,-5.3318,-5.2087,-5.0712,-5.0712,-5.0712,-5.0712,-5.0712,-5.0712,-5.0596,-5.0087,-4.9317,-4.8471,-4.7625,-4.6778,-4.6086,-4.5671,-4.5594,-4.5594,-4.5594,-4.4509,-4.3355,-4.2508,-4.1662,-4.0931,-4.0554,-4.0516,-4.0323,-3.99,-3.9515,-3.8938,-3.7969,-3.7161,-3.65,-3.6077,-3.5692,-3.55,-3.55,-3.55,-3.55,-3.55,-3.55,-3.55,-3.55,-3.55,-3.55,-3.55,-3.55,-3.55,-3.55,-3.55,-3.55,-5.4391,-5.5241,-5.5818,-5.5588,-5.4203,-5.2202,-4.9663,-4.6932,-4.3748,-3.9631,-3.8084,-3.6969,-3.5154,-3.6546,-3.9277,-4.3162,0.0,-4.9548,-5.3741,-5.5011,-5.5626,-5.5857,-5.578,-5.5742,-5.5857,-5.5857,-5.6214,-5.6945,-5.7896,-5.8473,-5.8473,-5.9935,-6.0781,-6.0781,-6.0781,-6.0781,-6.0781,-6.0781,-6.0781,-6.0781,-6.0781,-6.0781,-6.0781,-6.0781,-6.0281,-5.9319,-5.8588,-5.7742,-5.6791,-5.6011,-5.5703,-5.5703,-5.5703,-5.5703,-5.5703,-5.5703,-5.5703,-5.5703,-5.5703,-5.5164,-5.4357,-5.3472,-5.2125,-5.0827,-5.075,-5.0712,-5.0712,-5.0712,-5.0712,-5.0712,-5.0712,-5.0048,-4.9202,-4.8471,-4.7586,-4.6701,-4.5932,-4.5671,-4.5594,-4.5594,-4.4893,-4.4085,-4.3393,-4.247,-4.1546,-4.0785,-4.0554,-4.0516,-4.0516,-3.99,-3.9438,-3.9323,-3.7969,-3.7,-3.6885,-3.6231,-3.5846,-3.5846,-3.5731,-3.5654,-3.5654,-3.5577,-3.55,-3.55,-3.55,-3.5538,-3.5654,-3.5654,-3.5731,-3.5846,-3.5846,-3.5846,-5.5434,-5.6137,-5.6445,-5.5049,-5.2895,-5.0471,-4.7894,-4.4239,-4.04,-3.6892,-3.5468,-3.4122,-3.1731,-3.4968,-3.87,-4.0823,-4.5047,-4.9356,-5.2933,-5.4164,-5.5203,0.0,-5.6137,-5.5972,-5.6714,-5.6791,0.0,0.0,-5.8434,-5.9281,-5.9281,-6.0242,-6.0781,-6.0781,-6.0781,-6.0781,-6.0781,-6.0781,-6.0781,-6.0781,-6.0781,-6.0781,-6.0781,-6.0781,-5.9973,-5.8511,-5.8357,0.0,-5.5895,-5.5742,-5.5703,-5.5703,-5.5703,-5.5703,-5.5703,-5.5703,-5.5703,-5.5703,-5.5703,-5.5164,-5.4357,-5.3472,-5.251,-5.1587,-5.0894,-5.0712,-5.0712,-5.0712,-5.0712,-5.0712,-5.0712,-5.0048,-4.9356,-4.9202,-4.8009,-4.6846,-4.6701,-4.6124,-4.5594,-4.5594,-4.4893,-4.4239,-4.4124,-4.2816,-4.1731,-4.1585,-4.0969,-4.0516,-4.0516,-4.0362,-4.0054,-3.9361,-3.9015,-3.8546,-3.7853,-3.7661,-3.7584,-3.7584,-3.6885,-3.65,-3.65,-3.5846,-3.55,-3.55,-3.55,-3.5846,-3.65,-3.65,-3.6846,-3.7584,-3.7584,-3.7584,-5.5588,-5.6011,-5.6022,-5.4818,-5.2587,-4.9711,-4.5817,-4.1931,-3.8007,-3.3731,-3.216,-3.1166,-2.9967,-3.2468,-3.5699,-3.87,-4.197,-4.597,-5.1164,-5.2241,-5.3636,-5.6637,-5.6252,-5.6203,-5.755,-5.7291,-5.7368,-5.8242,-5.905,-5.9511,-5.9511,-6.0319,-6.0781,-6.0781,-6.0781,-6.0781,-6.0781,-6.0781,-6.0781,-6.0781,-6.0781,-6.0781,-6.0781,-6.0781,-5.9896,-5.8319,-5.8319,-5.7319,-5.5703,-5.5703,-5.5703,-5.5703,-5.5703,-5.5703,-5.5703,-5.5703,-5.5703,-5.5703,-5.5703,-5.5434,-5.4972,-5.4164,-5.2972,-5.1846,-5.1433,-5.101,-5.0712,-5.0712,-5.0712,-5.0712,-5.0712,-5.0404,-4.9971,-4.951,-4.8125,-4.6778,-4.6317,-4.5893,-4.5594,-4.5594,-4.5248,-4.4816,-4.4393,-4.3624,-4.297,-4.2547,-4.1739,-4.1162,-4.1162,-4.0785,-4.0362,-3.9977,-3.9554,-3.913,-3.87,-3.8277,-3.8007,-3.8007,-3.7623,-3.7392,-3.7392,-3.7007,-3.6815,-3.6815,-3.6815,-3.7007,-3.7392,-3.7392,-3.7584,-3.8007,-3.8007,-3.8007,-5.5511,-5.5818,-5.5703,-5.4511,-5.2164,-4.8856,-4.3897,-3.9853,-3.5818,-3.1079,-2.9388,-2.8714,-2.8582,-3.0121,-3.2737,-3.6815,-3.9008,-4.2555,-4.9211,-5.0481,-5.2212,-5.6252,-5.6126,0.0,-5.8127,-5.7665,0.0,-5.9396,-5.9665,-5.9781,-5.9781,-6.0435,-6.0781,-6.0781,-6.0781,-6.0781,-6.0781,-6.0781,-6.0781,-6.0781,-6.0781,-6.0781,-6.0781,-6.0589,-5.9704,-5.828,-5.8088,-5.7126,-5.5703,-5.5703,-5.5703,-5.5703,-5.5703,-5.5703,-5.5703,-5.5703,-5.5703,-5.5703,-5.5703,-5.5703,-5.5588,-5.4972,-5.3587,-5.2154,-5.1962,-5.1356,-5.0712,-5.0712,-5.0712,-5.0712,-5.0712,-5.0712,-5.0481,-4.9625,-4.824,-4.6932,-4.6047,-4.5748,-4.5594,-4.5594,-4.5594,-4.5364,-4.4701,-4.4432,-4.4085,-4.3431,-4.2624,-4.2,-4.1808,-4.12,-4.0708,-4.0516,-3.9938,-3.9554,-3.9554,-3.8931,-3.8546,-3.8546,-3.8354,-3.8277,-3.8277,-3.8084,-3.8007,-3.8007,-3.8007,-3.8084,-3.8277,-3.8277,-3.8354,-3.8546,-3.8546,-3.8546,-5.5665,-5.6291,-5.6329,-5.3933,-5.0818,-4.7174,-4.2669,-3.7882,-3.3348,-2.9785,-2.8332,-2.7534,-2.6946,-2.8846,-3.1654,-3.5154,-3.7815,-4.1508,-4.7509,-4.9702,-5.1982,-5.5395,0.0,0.0,-5.8127,-5.8242,-5.855,-5.9435,-6.0242,-6.0666,-6.0666,-6.0742,-6.0781,-6.0781,-6.0781,-6.0781,-6.0781,-6.0781,-6.0781,-6.0781,-6.0781,-6.0781,-6.0781,-5.9973,-5.9127,-5.828,-5.7473,-5.6599,0.0,-5.5703,-5.5703,-5.5703,-5.5703,-5.5703,-5.5703,-5.5703,-5.5703,-5.5703,-5.5703,-5.5703,-5.5703,-5.5588,-5.4434,-5.2933,-5.2154,-5.1356,-5.0712,-5.0712,-5.0712,-5.0712,-5.0712,-5.0712,-5.0481,-4.9625,-4.8663,-4.7778,-4.6971,-4.6163,-4.5594,-4.5594,-4.5594,-4.5556,-4.5479,-4.4816,-4.4278,-4.4201,-4.3508,-4.2701,-4.1885,-4.1731,-4.1393,-4.0593,-4.0439,-4.04,-4.04,-4.0323,-4.0285,-4.0285,-3.9592,-3.9169,-3.9169,-3.843,-3.8007,-3.8007,-3.8007,-3.8392,-3.9169,-3.9169,-3.9554,-4.0285,-4.0285,-4.0285,-5.4528,-5.5588,-5.5742,-5.3703,-5.0891,-4.7269,-4.1971,-3.7151,-3.2681,-2.889,-2.7046,-2.6182,-2.6523,-2.7423,-2.9385,-3.3314,-3.4391,-3.6969,-4.3393,-4.4893,-4.7355,-5.2779,-5.3395,-5.4703,0.0,0.0,-5.8858,-6.0165,-6.0589,-6.0781,-6.0781,-6.0781,-6.0781,-6.0781,-6.0781,-6.0781,-6.0781,-6.0781,-6.0781,-6.0781,-6.0781,-6.0512,-6.0012,-5.9665,-5.8781,-5.7511,-5.7137,-5.6522,0.0,-5.5703,-5.5703,-5.5703,-5.5703,-5.5703,-5.5703,-5.5703,-5.5703,-5.5703,-5.5703,-5.5703,-5.5703,-5.5703,-5.4587,-5.3126,-5.2779,-5.1741,-5.0712,-5.0712,-5.0712,-5.0712,-5.0712,-5.0712,-5.0481,-4.9625,-4.9125,-4.8509,-4.7201,-4.6624,-4.624,-4.571,-4.5594,-4.5594,-4.5594,-4.5325,-4.5094,-4.5094,-4.4355,-4.3701,-4.3355,-4.2893,-4.2239,-4.1393,-4.0823,-4.0516,-4.0516,-4.0516,-4.0516,-4.0516,-4.0208,-4.0015,-4.0015,-3.9708,-3.9515,-3.9515,-3.9515,-3.9669,-4.0015,-4.0015,-4.0208,-4.0516,-4.0516,-4.0516,-5.2969,-5.4318,-5.4549,-5.2895,-5.034,-4.6772,-4.1122,-3.6377,-3.2077,-2.8252,-2.6115,-2.5222,-2.5964,-2.6288,-2.759,-3.1091,-3.1846,-3.41,-4.0137,-4.1676,-4.4231,-4.9769,0.0,-5.2664,-5.6434,-5.7703,-5.8781,-5.9973,-6.0281,-6.0435,-6.0435,-6.0666,-6.0781,-6.0781,-6.0781,-6.0781,-6.0781,-6.0781,-6.0781,-6.0781,-6.0781,-6.0319,-5.9473,-5.9242,-5.8357,-5.6983,-5.6714,-5.6291,0.0,-5.5703,-5.5703,-5.5703,-5.5703,-5.5703,-5.5703,-5.5703,-5.5703,-5.5703,-5.5703,-5.5703,-5.5703,-5.5703,-5.4587,-5.3203,-5.3203,-5.201,-5.0712,-5.0712,-5.0712,-5.0712,-5.0712,-5.0712,-5.0558,-4.9933,-4.9586,-4.9086,-4.7894,-4.724,-4.674,-4.6086,-4.5787,-4.5594,-4.5594,-4.5594,-4.5594,-4.5594,-4.5094,-4.4586,-4.4316,-4.3816,-4.3124,-4.2277,-4.1623,-4.1054,-4.0554,-4.0516,-4.0516,-4.0516,-4.0516,-4.0516,-4.0516,-4.0516,-4.0516,-4.0516,-4.0516,-4.0516,-4.0516,-4.0516,-4.0516,-4.0516,-4.0516,-4.0516,-5.1191,-5.2538,-5.2818,-5.1125,-4.8613,-4.5163,-3.9908,-3.5296,-3.1148,-2.7815,-2.5818,-2.4761,-2.4881,-2.5577,-2.6676,-2.8442,-3.0944,-3.4182,-3.8414,-4.1387,-4.4047,0.0,-4.8432,-5.0433,-5.301,-5.6319,-5.8319,-5.8319,-5.905,0.0,-5.9511,-6.0319,-6.0781,-6.0781,-6.0781,-6.0781,-6.0781,-6.0781,-6.0781,-6.0781,-6.0781,-6.0319,-5.9473,-5.8665,-5.7819,-5.6945,-5.6088,-5.5703,0.0,-5.5703,-5.5703,-5.5703,-5.5703,-5.5703,-5.5703,-5.5703,-5.5703,-5.5703,-5.5703,-5.5703,-5.5703,-5.5703,-5.4587,-5.3203,-5.3203,-5.201,-5.0712,-5.0712,-5.0712,-5.0712,-5.0712,-5.0712,-5.0712,-5.0712,-5.001,-4.9394,-4.9394,-4.8086,-4.6885,-4.6885,-4.6201,-4.5594,-4.5594,-4.5594,-4.5594,-4.5594,-4.5594,-4.5287,-4.4393,-4.4278,-4.397,-4.3162,-4.3085,-4.2354,-4.0669,-4.0516,-4.0516,-4.0516,-4.0516,-4.0516,-4.0516,-4.0516,-4.0516,-4.0516,-4.0516,-4.0516,-4.0516,-4.0516,-4.0516,-4.0516,-4.0516,-4.0516,-4.6515,-4.7766,-4.8006,-4.6326,-4.4254,-4.1582,-3.7667,-3.3826,-3.0333,-2.7659,-2.5818,-2.4753,-2.4874,-2.5129,-2.6562,-3.0532,-3.2041,-3.4144,-3.8353,-4.1362,0.0,-4.6577,-5.0933,-5.4241,0.0,0.0,-5.7665,-5.828,-5.855,-5.8934,-5.9473,-5.9742,-6.0165,-6.0781,-6.0781,-6.0781,-6.0781,-6.0781,-6.0512,-5.9896,-5.9896,-5.9165,-5.778,-5.7522,-5.6934,-5.6088,-5.5818,-5.5703,-5.5703,-5.5703,-5.5703,-5.5703,-5.5703,-5.5703,-5.5703,-5.5703,-5.5703,-5.5703,-5.5703,-5.5703,-5.5703,-5.5703,-5.4587,-5.3203,-5.3203,-5.201,-5.0712,-5.0712,-5.0712,-5.0712,-5.0712,-5.0712,-5.0712,-5.0712,-5.0481,-5.0125,-4.951,-4.8971,-4.8279,-4.7115,-4.6701,-4.6317,-4.571,-4.5594,-4.5594,-4.5594,-4.5594,-4.5518,-4.521,-4.521,-4.4855,-4.4008,-4.3932,-4.3239,-4.1546,-4.1393,-4.1123,-4.0554,-4.0516,-4.0516,-4.0516,-4.0516,-4.0516,-4.0516,-4.0516,-4.0516,-4.0516,-4.0516,-4.0516,-4.0516,-4.0516,-4.0516,-4.2257,-4.3905,-4.4486,-4.3106,-4.1294,-3.9096,-3.6083,-3.2687,-2.9539,-2.7447,-2.5726,-2.4653,-2.4716,-2.4994,-2.6312,-2.9699,-3.132,-3.35,-3.7346,0.0,0.0,-4.7432,-5.1625,0.0,0.0,-5.6137,-5.6742,-5.728,-5.7627,-5.8011,-5.8511,-5.8858,-5.9319,-5.9858,-6.0165,-6.0165,-5.9858,-5.9858,-5.9588,-5.905,-5.905,-5.8319,-5.6983,-5.6983,-5.6522,-5.5703,-5.5703,-5.5703,0.0,-5.5703,-5.5703,-5.5703,-5.5703,-5.5703,-5.5703,-5.5703,-5.5703,-5.5703,-5.5703,-5.5703,-5.5703,-5.5703,-5.4587,-5.3087,-5.2433,-5.151,-5.0712,-5.0712,-5.0712,-5.0712,-5.0712,-5.0712,-5.0712,-5.0712,-5.0712,-5.0558,-5.001,-4.9625,-4.9086,-4.8048,-4.7317,-4.674,-4.6163,-4.5825,-4.5594,-4.5594,-4.5594,-4.5594,-4.5594,-4.5594,-4.5402,-4.4855,-4.4778,-4.4239,-4.2854,-4.247,-4.2047,-4.1516,-4.1162,-4.0969,-4.0969,-4.0669,-4.0516,-4.0516,-4.0516,-4.0516,-4.0516,-4.0516,-4.0516,-4.0516,-4.0516,-4.0669,0.0,-4.0528,-4.1619,-4.0734,-3.9206,-3.728,-3.4797,-3.1682,0.0,-2.7167,-2.5578,-2.4537,-2.4648,-2.5243,-2.6098,-2.7241,-2.9688,-3.2674,-3.6055,-3.9904,0.0,0.0,-5.1202,0.0,-5.3318,-5.478,-5.5703,-5.5703,-5.6445,-5.6945,-5.6983,-5.778,-5.8204,-5.8204,-5.8934,-5.8973,-5.8319,-5.8319,-5.828,-5.8204,-5.8204,-5.7742,-5.6907,-5.6907,-5.6483,0.0,-5.5703,-5.5703,-5.5703,-5.5703,-5.5703,-5.5703,-5.5703,-5.5703,-5.5703,-5.5703,-5.5703,-5.5703,-5.5703,-5.5703,-5.5665,-5.5549,-5.4472,-5.2895,-5.1202,-5.0712,-5.0712,-5.0712,-5.0712,-5.0712,-5.0712,-5.0712,-5.0712,-5.0712,-5.0712,-5.0712,-5.0712,-5.0048,-4.9471,-4.9394,-4.8125,-4.7038,-4.6923,-4.624,-4.5671,-4.5594,-4.5594,-4.5594,-4.5594,-4.5594,-4.5594,-4.5594,-4.5594,-4.5287,-4.447,-4.3662,-4.3162,-4.3085,-4.2354,-4.1885,-4.1885,-4.1123,-4.0669,-4.0669,-4.0669,-4.0669,-4.0669,-4.0669,-4.0669,-4.0669,-4.0669,-4.1123,-3.1597,0.0,-3.5034,-3.4199,-3.3657,-3.2866,0.0,-2.9485,-2.7947,-2.6312,-2.5206,-2.4871,-2.6098,-2.5987,-2.7204,-3.1738,-3.3381,-3.5457,-3.9385,-4.4374,-4.9048,-5.2856,-5.4203,-5.4895,-5.5088,-5.5472,-5.5703,-5.5703,-5.5895,-5.6291,-5.6945,-5.7176,-5.733,-5.733,-5.7484,-5.7819,-5.8319,-5.8319,-5.7973,-5.733,-5.733,-5.6868,-5.6011,-5.6011,-5.5895,-5.5703,-5.5703,-5.5703,-5.5703,-5.5703,-5.5703,-5.5703,-5.5703,-5.5703,-5.5703,-5.5703,-5.5703,-5.5703,-5.5703,-5.5703,-5.5472,-5.4203,-5.351,-5.2895,-5.1202,-5.0712,-5.0712,-5.0712,-5.0712,-5.0712,-5.0712,-5.0712,-5.0712,-5.0712,-5.0712,-5.0712,-5.0712,-5.0558,-5.0212,-4.951,-4.9086,-4.8394,-4.7124,-4.674,-4.6355,-4.571,-4.5594,-4.5594,-4.5594,-4.5594,-4.5594,-4.5594,-4.5594,-4.5518,-4.5325,-4.4509,-4.3778,-4.3124,-4.2893,-4.2777,-4.2777,-4.2585,-4.247,-4.247,-4.247,-4.247,-4.247,-4.247,-4.247,-4.247,-4.247,-4.2585,-2.8802,-3.0586,-3.2444,-3.237,-3.1812,-3.1106,-3.0623,-2.869,-2.6758,-2.5875,-2.5057,-2.4871,-2.6126,-2.6609,-2.8059,-3.1924,-3.4247,-3.7566,0.0,0.0,-5.1048,-5.4472,-5.524,-5.5554,0.0,-5.5703,-5.5703,-5.5703,-5.5703,-5.5895,-5.6368,-5.6406,-5.6406,-5.6406,-5.6406,-5.6626,-5.7088,-5.7126,-5.6857,-5.6406,-5.6406,-5.6175,-5.5703,-5.5703,-5.5703,-5.5703,-5.5703,-5.5703,-5.5703,-5.5703,-5.5703,-5.5703,-5.5703,-5.5703,-5.5703,-5.5703,-5.5703,-5.5703,-5.5703,-5.5703,-5.5472,-5.4203,-5.3549,-5.2972,-5.1664,-5.0971,-5.0712,-5.0712,-5.0712,-5.0712,-5.0712,-5.0712,-5.0712,-5.0712,-5.0712,-5.0712,-5.0712,-5.0712,-5.0558,-5.0087,-4.9663,-4.9125,-4.8202,-4.774,-4.7278,-4.6817,-4.6432,-4.6201,-4.6201,-4.5864,-4.5594,-4.5594,-4.5594,-4.5594,-4.5594,-4.5171,-4.4701,-4.4278,-4.3855,-4.3662,-4.3662,-4.3316,-4.3085,-4.3085,-4.3085,-4.3085,-4.3085,-4.3085,-4.3085,-4.3085,-4.3085,-4.3316,-2.8244,-2.9917,-3.1738,-3.2147,-3.1515,-3.0846,-3.118,-2.8542,-2.6015,-2.5912,-2.5355,-2.5243,-2.6433,-2.7761,-2.9322,-3.1366,-3.4846,0.0,-4.7026,-4.9349,-5.1559,-5.4906,-5.5301,0.0,-5.5682,-5.5703,-5.5703,-5.5703,-5.5703,-5.5703,-5.5703,-5.5703,-5.5703,-5.5703,-5.5703,-5.5703,-5.5703,-5.5703,-5.5703,-5.5703,-5.5703,-5.5703,-5.5703,-5.5703,-5.5703,-5.5703,0.0,0.0,-5.5703,-5.5703,-5.5703,-5.5703,-5.5703,-5.5703,-5.5703,-5.5703,-5.5703,-5.5703,-5.5703,-5.5703,-5.5549,-5.4741,-5.3895,-5.3049,-5.2154,-5.1356,-5.0712,-5.0712,-5.0712,-5.0712,-5.0712,-5.0712,-5.0712,-5.0712,-5.0712,-5.0712,-5.0712,-5.0712,-5.0712,-5.0712,-5.0087,-4.9548,-4.9433,-4.8779,-4.824,-4.8125,-4.7509,-4.7038,-4.6923,-4.624,-4.5748,-4.5594,-4.5594,-4.5594,-4.5594,-4.5594,-4.5594,-4.5594,-4.4902,-4.4509,-4.4509,-4.3855,-4.347,-4.347,-4.347,-4.347,-4.347,-4.347,-4.347,-4.3462,-4.347,-4.3846,-2.8802,-2.9991,-3.0474,-2.9174,-3.0251,-3.1106,-2.9136,-2.817,-2.7538,-2.6869,-2.6609,-2.7427,-3.0326,-3.1069,-3.2444,-3.616,-3.9801,-4.3856,0.0,0.0,-5.1963,-5.497,0.0,-5.5401,-5.5682,-5.5703,-5.5703,-5.5703,-5.5703,-5.5703,-5.5703,-5.5703,-5.5703,-5.5703,-5.5703,-5.5703,-5.5703,-5.5703,-5.5703,-5.5703,-5.5703,-5.5703,-5.5703,-5.5703,-5.5703,-5.5703,0.0,-5.5703,-5.5703,-5.5703,-5.5703,-5.5703,-5.5703,-5.5703,-5.5703,-5.5703,-5.5703,-5.5703,-5.5703,-5.5703,-5.5549,-5.4741,-5.3895,-5.3049,-5.2154,-5.1356,-5.0712,-5.0712,-5.0712,-5.0712,-5.0712,-5.0712,-5.0712,-5.0712,-5.0712,-5.0712,-5.0712,-5.0712,-5.0712,-5.0712,-5.0596,-5.0289,-4.951,-4.9279,-4.8933,-4.8202,-4.8009,-4.7663,-4.7,-4.6778,-4.6432,-4.5671,-4.5594,-4.5594,-4.5594,-4.5594,-4.5594,-4.5594,-4.5479,-4.5402,-4.5402,-4.5287,-4.521,-4.521,-4.521,-4.521,-4.521,-4.521,-4.5184,-4.5148,-4.5192,-4.5204,-2.7325,-2.8653,-2.988,-2.9545,-3.1292,-3.2927,-3.2258,-3.1069,-2.9991,-2.9619,-2.9545,-3.014,-3.2109,-3.3559,-3.5988,-4.0656,-4.3563,-4.6341,-4.9717,-5.09,-5.2334,0.0,0.0,-5.5198,-5.5671,-5.5703,-5.5703,-5.5703,-5.5703,-5.5703,-5.5703,-5.5703,-5.5703,-5.5703,-5.5703,-5.5703,-5.5703,-5.5703,-5.5703,-5.5703,-5.5703,-5.5703,-5.5703,-5.5703,-5.5703,-5.5703,0.0,-5.5703,-5.5703,-5.5703,-5.5703,-5.5703,-5.5703,-5.5703,-5.5703,-5.5703,-5.5703,-5.5703,-5.5703,-5.5703,-5.5626,-5.528,-5.4241,-5.3126,-5.2731,-5.1702,-5.0712,-5.0712,-5.0712,-5.0712,-5.0712,-5.0712,-5.0712,-5.0712,-5.0712,-5.0712,-5.0712,-5.0712,-5.0712,-5.0712,-5.0712,-5.0558,-5.0164,-5.0087,-4.9971,-4.9548,-4.9086,-4.8663,-4.8317,-4.7855,-4.7394,-4.6971,-4.6547,-4.6317,-4.6317,-4.5864,-4.5594,-4.5594,-4.5594,-4.5594,-4.5594,-4.5594,-4.5594,-4.5594,-4.5594,-4.5577,-4.555,-4.555,-4.5532,-4.5438,-4.5466,-4.5448,-2.6887,-2.8076,-2.9646,-3.0846,-3.2407,-3.4005,-3.5454,-3.3856,-3.2258,-3.2816,-3.2816,-3.2964,-3.3968,-3.6346,-3.9625,-4.4129,-4.6293,-4.815,-5.0418,-5.1449,-5.2648,-5.445,-5.4685,-5.4909,-5.5449,-5.5497,-5.5497,-5.5497,-5.5554,-5.5626,-5.5626,-5.5682,-5.5703,-5.5703,-5.5703,-5.5703,-5.5703,-5.5703,-5.5703,-5.5703,-5.5703,-5.5703,-5.5703,-5.5703,-5.5703,-5.5703,-5.5703,-5.5703,-5.5703,-5.5703,-5.5703,-5.5703,-5.5703,-5.5703,-5.5703,-5.5703,-5.5703,-5.5703,-5.5703,-5.5703,-5.5703,-5.5703,-5.4703,-5.3472,-5.328,-5.2164,-5.0933,-5.075,-5.0712,-5.0712,-5.0712,-5.0712,-5.0712,-5.0712,-5.0712,-5.0712,-5.0712,-5.0712,-5.0712,-5.0712,-5.0712,-5.0712,-5.0712,-5.0712,-5.0712,-5.0712,-5.0125,-4.9625,-4.9433,-4.8817,-4.8317,-4.8125,-4.7548,-4.7077,-4.6923,-4.6086,-4.5594,-4.5594,-4.5594,-4.5594,-4.5594,-4.5594,-4.5594,-4.5594,-4.5594,-4.5568,-4.5485,-4.5485,-4.5486,-4.539,-4.54,-4.539,-2.9757,-2.9757,-2.9879,-3.2235,-3.2407,-3.2778,-3.59,-3.4711,-3.3559,-3.5863,-3.5751,-3.5714,-3.7262,-4.0197,-4.3259,-4.5913,-4.7698,-4.9371,-5.1081,0.0,-5.2975,-5.4167,-5.433,-5.4479,-5.4836,-5.4866,-5.4866,-5.4866,-5.5132,-5.5326,-5.5326,-5.5554,-5.5703,-5.5703,-5.5703,-5.5703,-5.5703,-5.5703,-5.5703,-5.5703,-5.5703,-5.5703,-5.5703,-5.5703,-5.5703,-5.5703,-5.5703,-5.5703,-5.5703,-5.5703,-5.5703,-5.5703,-5.5703,-5.5703,-5.5703,-5.5703,-5.5703,-5.5703,-5.5703,-5.5703,-5.5703,-5.5703,-5.5126,-5.4241,-5.3433,-5.2538,-5.1654,-5.0894,-5.0712,-5.0712,-5.0712,-5.0712,-5.0712,-5.0712,-5.0712,-5.0712,-5.0712,-5.0712,-5.0712,-5.0712,-5.0712,-5.0712,-5.0712,-5.0712,-5.0712,-5.0712,-5.0635,-5.0327,-4.951,-4.9356,-4.9009,-4.8202,-4.8048,-4.7702,-4.6962,-4.6086,-4.5594,-4.5594,-4.5594,-4.5594,-4.5594,-4.5594,-4.5594,-4.5594,-4.5594,-4.5568,-4.5485,-4.5485,-4.5467,-4.5408,-4.5381,-4.5351,-2.817,-2.8746,-2.9916,-3.2384,-3.3559,-3.4822,-3.7559,-3.8265,-3.8897,-4.0828,-4.1014,-4.0977,-4.1571,-4.3132,-4.4841,-4.6252,-4.8704,-5.0673,-5.1305,-5.2531,-5.3572,-5.4207,-5.4296,-5.443,-5.4761,-5.4791,-5.4791,-5.4791,-5.4909,-5.4981,-5.4981,-5.5091,-5.5145,-5.5145,-5.5351,-5.5449,-5.5449,-5.5638,-5.5703,-5.5703,-5.5703,-5.5703,-5.5703,-5.5703,-5.5703,-5.5703,-5.5703,-5.5703,-5.5703,-5.5703,-5.5703,-5.5703,-5.5703,-5.5703,-5.5703,-5.5703,-5.5703,-5.5703,-5.5703,-5.5703,-5.5703,-5.5703,-5.5164,-5.4434,-5.4126,-5.301,-5.1846,-5.1548,-5.1087,-5.0712,-5.0712,-5.0712,-5.0712,-5.0712,-5.0712,-5.0712,-5.0712,-5.0712,-5.0712,-5.0712,-5.0712,-5.0712,-5.0712,-5.0712,-5.0712,-5.0712,-5.0712,-5.0596,-5.025,-5.0212,-5.0087,-4.974,-4.924,-4.8586,-4.774,-4.7355,-4.6932,-4.6432,-4.5893,-4.5594,-4.5594,-4.5594,-4.5577,-4.555,-4.555,-4.5505,-4.5429,-4.5429,-4.539,-4.5357,-4.5339,-4.5319,-2.7779,-2.8587,-3.0139,-3.2124,-3.4265,-3.6569,-3.9268,-4.0791,-4.2129,-4.4023,-4.3986,-4.3689,-4.3949,-4.4506,-4.5249,0.0,-4.9039,-5.1082,-5.1342,-5.2568,-5.3591,-5.4088,-5.3936,-5.3836,-5.4086,-5.3892,-5.3742,-5.3742,-5.3799,-5.386,-5.386,-5.3966,-5.401,-5.401,-5.449,-5.4751,-5.4751,-5.5198,-5.532,-5.517,-5.5439,-5.5638,-5.5703,-5.5703,-5.5703,-5.5703,-5.5703,-5.5703,-5.5703,-5.5703,-5.5703,-5.5703,-5.5703,-5.5703,-5.5703,-5.5703,-5.5703,-5.5703,-5.5703,-5.5703,-5.5703,-5.5703,-5.5318,-5.478,-5.4241,-5.328,-5.2192,-5.1664,-5.1125,-5.0712,-5.0712,-5.0712,-5.0712,-5.0712,-5.0712,-5.0712,-5.0712,-5.0712,-5.0712,-5.0712,-5.0712,-5.0712,-5.0712,-5.0712,-5.0712,-5.0712,-5.0712,-5.0712,-5.0712,-5.0712,-5.0712,-5.0712,-4.9933,-4.9163,-4.8548,-4.8279,-4.7855,-4.7308,-4.6471,-4.5893,-4.5594,-4.5594,-4.5568,-4.5485,-4.5485,-4.5467,-4.5408,-4.5408,-4.5378,-4.5288,-4.5288,-4.5288,-2.9422,-2.9835,-3.0717,-3.1615,-3.4302,-3.7596,-4.0866,-4.1609,-4.2352,-4.4804,-4.4023,-4.3095,-4.3875,-4.4023,-4.4581,-4.6252,-4.8519,-5.0413,-5.1268,-5.2085,-5.2865,-5.3683,-5.3088,-5.2605,-5.2605,-5.1862,-5.1416,-5.1416,-5.1656,-5.1834,-5.1909,-5.216,-5.2295,-5.2295,-5.3115,-5.357,-5.357,-5.4389,-5.4496,-5.3976,-5.4868,-5.5437,-5.5703,-5.5703,-5.5703,-5.5703,-5.5703,-5.5703,-5.5703,-5.5703,-5.5703,-5.5703,-5.5703,-5.5703,-5.5703,-5.5703,-5.5703,-5.5703,-5.5703,-5.5703,-5.5703,-5.5703,-5.5703,-5.5395,-5.3703,-5.3203,-5.2856,-5.1164,-5.0712,-5.0712,-5.0712,-5.0712,-5.0712,-5.0712,-5.0712,-5.0712,-5.0712,-5.0712,-5.0712,-5.0712,-5.0712,-5.0712,-5.0712,-5.0712,-5.0712,-5.0712,-5.0712,-5.0712,-5.0712,-5.0712,-5.0712,-5.0712,-4.9933,-4.9394,-4.9394,-4.8625,-4.8125,-4.8125,-4.7355,-4.6547,-4.5671,-4.5594,-4.5568,-4.5485,-4.5514,-4.5467,-4.5408,-4.5408,-4.5378,-4.5288,-4.5288,-4.5288,-2.8713,-2.9824,-3.1681,-3.3138,-3.7262,-4.1386,-4.2946,-4.3763,-4.4878,-4.733,-4.6995,-4.6327,-4.655,-4.6587,-4.6773,-4.7256,-4.889,-5.019,-5.045,-5.1231,-5.1825,-5.2085,-5.1899,-5.1751,-5.1751,-5.1528,-5.1416,-5.1416,-5.1487,-5.1521,-5.1558,-5.1625,-5.1694,-5.1694,-5.2167,-5.2407,-5.2407,-5.2824,-5.2982,-5.28,-5.3066,-5.3773,-5.4895,-5.5434,-5.5703,-5.5703,-5.5703,-5.5703,-5.5703,-5.5703,-5.5577,-5.5413,-5.5413,-5.5413,-5.5413,-5.5413,-5.5531,-5.5703,-5.5703,-5.5703,-5.5703,-5.5703,-5.5318,-5.4741,-5.428,-5.328,-5.2192,-5.1702,-5.1125,-5.0712,-5.0712,-5.0712,-5.0712,-5.0712,-5.0712,-5.0712,-5.0712,-5.0712,-5.0712,-5.0712,-5.0712,-5.0712,-5.0712,-5.0712,-5.0712,-5.0712,-5.0712,-5.0712,-5.0712,-5.0712,-5.0712,-5.0712,-5.0481,-5.0327,-5.0327,-5.0087,-4.9663,-4.9048,-4.8779,-4.7991,-4.6493,-4.5849,-4.5505,-4.5419,-4.5409,-4.5418,-4.5347,-4.5347,-4.5337,-4.5288,-4.5288,-4.5288,-3.005,-3.155,-3.3734,-3.6022,-3.942,-4.278,-4.4925,-4.5865,-4.6773,-4.8519,-4.7999,-4.733,-4.7627,-4.7441,-4.733,-4.7664,-4.8779,-4.9745,-5.0079,-5.0562,-5.1008,-5.1342,-5.1082,-5.0896,-5.0896,-5.0599,-5.0413,-5.0413,-5.0413,-5.0413,-5.0413,-5.0413,-5.0413,-5.0413,-5.0902,-5.117,-5.117,-5.1684,-5.1857,-5.1639,-5.1993,-5.2479,-5.318,-5.4116,-5.4628,-5.4703,-5.4703,-5.466,-5.4583,-5.4879,-5.4661,-5.4152,-5.4825,-5.4901,-5.4672,-5.4977,-5.5198,-5.535,-5.5497,-5.5531,-5.5504,-5.5297,-5.4895,-5.4357,-5.3664,-5.2731,-5.1846,-5.151,-5.1087,-5.0712,-5.0712,-5.0712,-5.0712,-5.0712,-5.0712,-5.0712,-5.0712,-5.0712,-5.0712,-5.0712,-5.0712,-5.0712,-5.0712,-5.0712,-5.0712,-5.0712,-5.0712,-5.0712,-5.0712,-5.0712,-5.0712,-5.0712,-5.0712,-5.0712,-5.0712,-5.0682,-5.0442,-4.9904,-4.9538,-4.8845,-4.7749,-4.6916,-4.6465,-4.6393,-4.6393,-4.6171,-4.5774,-4.5774,-4.5621,-4.5288,-4.5288,-4.5468,-3.224,-3.3982,-3.6179,-3.9386,-4.1028,-4.2881,-4.6789,-4.7727,-4.7981,-4.8742,-4.7738,-4.6904,-4.7664,-4.7218,-4.6958,-4.7701,-4.8407,-4.9187,-4.9968,-5.0042,-5.0302,-5.1082,-5.0488,-5.0005,-5.0005,-4.9336,-4.889,-4.889,-4.889,-4.889,-4.889,-4.889,-4.889,-4.889,-4.9633,-5.0005,-5.0005,-5.0785,-5.0907,-5.044,-5.126,-5.1374,-5.0978,-5.2222,-5.2874,-5.3102,-5.3102,-5.2992,-5.2792,-5.3544,-5.3223,-5.2404,-5.4004,-5.4155,-5.3564,-5.4421,-5.4739,-5.4722,-5.5056,-5.5148,-5.5072,-5.4518,-5.4287,-5.3951,-5.2385,-5.1846,-5.1654,-5.0894,-5.0712,-5.0712,-5.0712,-5.0712,-5.0712,-5.0712,-5.0712,-5.0712,-5.0712,-5.0712,-5.0712,-5.0712,-5.0712,-5.0712,-5.0712,-5.0712,-5.0712,-5.0712,-5.0712,-5.0712,-5.0712,-5.0712,-5.0712,-5.0712,-5.0702,-5.0702,-5.0702,-5.0642,-5.0573,-5.0573,-4.9792,-4.928,-4.9226,-4.844,-4.7941,-4.7903,-4.7903,-4.7461,-4.6615,-4.6615,-4.6233,-4.5507,-4.5507,-4.5927,-3.0076,-3.2625,-3.6078,-3.9313,-4.3139,-4.65,-4.805,-4.8401,-4.8492,-4.8818,-4.8578,-4.8358,-4.8613,-4.8467,-4.8358,-4.8613,-4.8779,-4.8964,-4.915,-4.9187,-4.9224,-4.941,-4.9262,-4.915,-4.915,-4.9002,-4.889,-4.889,-4.889,-4.889,-4.889,-4.889,-4.889,-4.889,-4.9076,-4.915,-4.915,-4.9336,-4.9371,-4.9271,-4.9457,-4.9604,-4.9838,-5.1609,-5.242,-5.2473,-5.2473,-5.2447,-5.243,-5.2582,-5.2399,-5.2059,-5.3075,-5.2962,-5.2435,-5.3887,-5.416,-5.3873,-5.3946,-5.3974,-5.3864,-5.3352,-5.2709,-5.2131,-5.1949,-5.1471,-5.0933,-5.075,-5.0712,-5.0712,-5.0712,-5.0712,-5.0712,-5.0712,-5.0712,-5.0712,-5.0712,-5.0712,-5.0712,-5.0712,-5.0712,-5.0712,-5.0712,-5.0712,-5.0712,-5.0712,-5.0712,-5.0712,-5.0712,-5.0712,-5.0712,-5.0712,-5.0663,-5.0642,-5.0642,-5.0553,-5.0521,-5.0521,-5.0319,-5.0199,-5.0106,-4.8701,-4.7886,-4.781,-4.781,-4.7723,-4.7521,-4.7521,-4.7406,-4.7264,-4.7264,-4.7379,-3.1124,-3.3634,-3.6856,-4.1204,-4.4847,-4.7554,-4.8348,-4.8569,-4.8642,-4.8732,-4.8732,-4.8696,-4.875,-4.8714,-4.8696,-4.875,-4.8803,-4.8857,-4.8857,-4.8892,-4.889,-4.889,-4.889,-4.889,-4.889,-4.889,-4.889,-4.889,-4.889,-4.889,-4.889,-4.889,-4.889,-4.889,-4.889,-4.889,-4.889,-4.889,-4.889,-4.889,-4.889,-4.8993,-4.9176,-5.0529,-5.1106,-5.1106,-5.1106,-5.1022,-5.0929,-5.1345,-5.1071,-5.0613,-5.1792,-5.1755,-5.1194,-5.2465,-5.2772,-5.2559,-5.2718,-5.2779,-5.2689,-5.2167,-5.1688,-5.1243,-5.0985,-5.0692,-5.0472,-5.0472,-5.0584,-5.0712,-5.0712,-5.0712,-5.0712,-5.0712,-5.0594,-5.0504,-5.0682,-5.0584,-5.0504,-5.0692,-5.0712,-5.0712,-5.0712,-5.0712,-5.0712,-5.0712,-5.0712,-5.0712,-5.0712,-5.0712,-5.0712,-5.0712,-5.0682,-5.0614,-5.0584,-5.0532,-5.0489,-5.0457,-5.0435,-5.0401,-5.0367,-4.9526,-4.9045,-4.9022,-4.9022,-4.8831,-4.8411,-4.8411,-4.822,-4.7788,-4.7788,-4.8028,-3.2047,-3.4874,-3.8029,-4.3221,-4.5882,-4.7445,-4.8089,-4.8421,-4.8569,-4.8569,-4.8569,-4.8587,-4.8605,-4.8605,-4.8587,-4.8605,-4.8678,-4.8769,-4.8769,-4.8803,-4.8855,-4.8873,-4.8873,-4.891,-4.889,-4.889,-4.889,-4.889,-4.889,-4.889,-4.889,-4.889,-4.889,-4.889,-4.889,-4.889,-4.889,-4.889,-4.889,-4.889,-4.889,-4.889,-4.8907,-4.9416,-4.9651,-4.9651,-4.9651,-4.9506,-4.9358,-5.0033,-4.9741,-4.9039,-5.0599,-5.0636,-5.0042,-5.1045,-5.1305,-5.121,-5.1486,-5.1603,-5.1501,-5.0973,-5.0809,-5.0671,-4.9979,-4.9962,-5.0135,-5.0135,-5.0358,-5.0614,-5.0614,-5.0644,-5.0712,-5.0712,-5.0462,-5.0291,-5.0535,-5.0462,-5.0347,-5.0584,-5.0644,-5.0712,-5.0712,-5.0712,-5.0712,-5.0712,-5.0712,-5.0712,-5.0712,-5.0712,-5.0712,-5.0712,-5.0702,-5.0673,-5.0573,-5.0521,-5.0457,-5.039,-5.0344,-5.0283,-5.0283,-5.0283,-5.0283,-5.0283,-5.0283,-4.9977,-4.9301,-4.9301,-4.8945,-4.8208,-4.8208,-4.864,-2.8401,-3.3456,-3.9255,0.0,-4.5406,-4.7131,0.0,0.0,-4.8344,0.0,-4.842,-4.8532,-4.8605,-4.8532,-4.8532,-4.8605,-4.8624,-4.8642,-4.8642,-4.8642,-4.8678,-4.8804,-4.8804,-4.884,-4.8873,-4.889,-4.889,-4.889,-4.889,-4.889,-4.889,-4.889,-4.889,-4.889,-4.889,-4.889,-4.889,-4.889,-4.889,-4.889,-4.889,-4.889,-4.889,-4.8993,-4.9027,-4.9027,-4.9027,-4.901,-4.8996,-4.9071,-4.9036,-4.9002,-4.993,-4.9782,-4.9262,-5.0822,-5.0933,-5.0265,-5.0318,-5.0335,-5.0256,-4.9781,-4.9626,-4.9649,-4.9773,-4.983,-4.9857,-4.9857,-5.0062,-5.0252,-5.0252,-5.0483,-5.0712,-5.0712,-5.0462,-5.0206,-5.0241,-5.0472,-5.0573,-5.0325,-5.0504,-5.0712,-5.0712,-5.0712,-5.0712,-5.0712,-5.0712,-5.0712,-5.0712,-5.0712,-5.0712,-5.0712,-5.0663,-5.0573,-5.0521,-5.0457,-5.039,-5.0333,-5.0283,-5.0283,-5.0283,-5.0283,-5.0283,-5.0283,-5.0283,-5.0245,-5.013,-5.013,-5.0092,-4.9977,-4.9977,-5.0015,-3.0245,-3.4518,-3.8909,-4.2597,-4.4305,-4.5333,-4.6214,-4.6691,-4.7095,-4.7516,-4.7664,-4.7868,-4.8365,-4.8401,-4.8419,-4.8439,-4.8495,-4.8532,-4.8532,-4.8569,-4.8624,-4.8678,-4.8678,-4.8714,-4.884,-4.8857,-4.8875,-4.889,-4.889,-4.889,-4.889,-4.889,-4.889,-4.889,-4.889,-4.889,-4.889,-4.889,-4.889,-4.889,-4.889,-4.889,-4.889,-4.889,-4.889,-4.889,-4.889,-4.889,-4.889,-4.889,-4.889,-4.8927,-4.9299,-4.9224,-4.9002,-4.9745,-4.9782,-4.9447,-4.9447,-4.9447,-4.9391,-4.9189,-4.9127,-4.916,-4.9268,-4.9439,-4.9588,-4.9588,-4.9762,-5.0101,-5.0545,-5.0909,-5.113,-5.1157,-5.104,-5.0744,-5.0101,-5.0087,-5.0209,-5.0195,-5.0472,-5.0712,-5.0712,-5.0712,-5.0712,-5.0712,-5.0712,-5.0712,-5.0712,-5.0712,-5.0712,-5.0712,-5.0682,-5.0594,-5.0511,-5.0478,-5.0424,-5.0321,-5.0283,-5.0283,-5.0283,-5.0283,-5.0283,-5.0283,-5.0283,-5.0283,-5.0283,-5.0283,-5.0283,-5.0283,-5.0283,-5.0283,-3.065,-3.3917,-3.6868,-4.0724,-4.2286,-4.3314,0.0,0.0,-4.581,0.0,-4.6782,-4.6966,-4.7572,-4.8012,-4.8306,-4.8306,-4.8363,-4.8457,-4.8457,-4.8476,-4.855,-4.8569,-4.8569,-4.8605,-4.8751,-4.8769,-4.8804,-4.8892,-4.8855,-4.8873,-4.889,-4.889,-4.889,-4.889,-4.889,-4.889,-4.889,-4.889,-4.889,-4.889,-4.889,-4.889,-4.889,-4.889,-4.889,-4.889,-4.889,-4.889,-4.889,-4.889,-4.889,-4.889,-4.889,-4.889,-4.889,-4.889,-4.889,-4.889,-4.889,-4.889,-4.889,-4.889,-4.889,-4.889,-4.889,-4.9077,-4.9273,-4.9273,-4.9634,-5.0133,-5.0738,-5.1302,-5.1662,-5.1675,-5.1688,-5.1307,-5.0085,-4.99,-5.0079,-5.0355,-5.0788,-5.1124,-5.1188,-5.1198,-5.1257,-5.1318,-5.1318,-5.1318,-5.1318,-5.1318,-5.1318,-5.1318,-5.1318,-5.1278,-5.1163,-5.096,-5.0763,-5.0627,-5.0436,-5.0283,-5.0283,-5.0283,-5.0283,-5.0283,-5.0283,-5.0283,-5.0283,-5.0283,-5.0283,-5.0283,-5.0283,-5.0283,-2.6272,-2.9292,-3.2535,-3.5826,-3.8982,-4.1662,0.0,0.0,-4.5002,-4.581,-4.5957,-4.5993,-4.603,-4.7278,-4.8306,-4.8306,-4.8306,-4.8306,-4.8306,-4.8306,-4.8344,-4.8494,-4.8494,-4.8532,-4.8605,-4.8624,-4.866,-4.8787,-4.8804,-4.884,-4.889,-4.889,-4.889,-4.889,-4.889,-4.889,-4.889,-4.889,-4.889,-4.889,-4.889,-4.889,-4.889,-4.889,-4.889,-4.889,-4.889,-4.889,-4.889,-4.889,-4.889,-4.889,-4.889,-4.889,-4.889,-4.889,-4.889,-4.889,-4.889,-4.889,-4.889,-4.889,-4.889,-4.889,-4.889,-4.8907,-4.8907,-4.8907,-4.972,-5.0579,-5.0616,-5.1375,-5.2177,-5.2177,-5.2177,-5.1722,-5.0144,-5.0206,-5.065,-5.0922,-5.1585,-5.2213,-5.2526,-5.2614,-5.2697,-5.3018,-5.3087,-5.3087,-5.3087,-5.3087,-5.3087,-5.3087,-5.3087,-5.2997,-5.2889,-5.216,-5.1683,-5.1544,-5.0779,-5.0283,-5.0283,-5.0283,-5.0283,-5.0283,-5.0283,-5.0283,-5.0283,-5.0283,-5.0283,-5.0283,-5.0283,-5.0283,-2.5941,-2.8191,-3.065,-3.388,-3.6376,-3.8432,-4.0047,-4.1846,-4.3387,-4.4195,-4.4782,-4.5296,-4.581,-4.6361,-4.6764,-4.6764,-4.6764,-4.6764,-4.6764,-4.6764,-4.6783,-4.682,-4.682,-4.6856,-4.6965,-4.702,-4.7019,-4.7107,-4.7159,-4.7211,-4.7245,-4.7296,-4.7367,-4.7367,-4.7367,-4.7627,-4.811,-4.8147,-4.8407,-4.889,-4.889,-4.889,-4.889,-4.889,-4.889,-4.889,-4.889,-4.889,-4.889,-4.889,-4.889,-4.889,-4.889,-4.8855,-4.884,-4.8873,-4.8855,-4.8857,-4.891,-4.889,-4.9002,-4.9522,-4.9336,-4.9113,-5.019,-5.0153,-4.9856,-5.0376,-5.08,-5.124,-5.1762,-5.2319,-5.2784,-5.2784,-5.2354,-5.1764,-5.0991,-5.112,-5.1405,-5.1494,-5.1903,-5.2253,-5.2379,-5.2392,-5.2433,-5.2539,-5.274,-5.2886,-5.2886,-5.307,-5.3203,-5.3203,-5.3161,-5.3108,-5.3004,-5.269,-5.2479,-5.2396,-5.1582,-5.1123,-5.1123,-5.0588,-5.0283,-5.0283,-5.0283,-5.0283,-5.0283,-5.0283,-5.0283,-5.0283,-5.0283,-5.0283,-2.4557,-2.6565,-2.895,0.0,-3.3844,-3.5422,-3.8432,-3.9937,-4.1148,-4.2763,-4.3534,-4.4158,-4.4929,-4.5076,-4.5259,-4.581,-4.5883,-4.5883,-4.5883,-4.5883,-4.5883,-4.5883,-4.5883,-4.5956,-4.6011,-4.6028,-4.6064,-4.6152,-4.6222,0.0,-4.6305,-4.6392,-4.6442,-4.6513,-4.6513,-4.6773,-4.7293,-4.7293,-4.7701,-4.8519,-4.8519,-4.863,-4.889,-4.889,-4.891,-4.8875,-4.8875,-4.8892,-4.889,-4.8892,-4.8875,-4.8838,-4.8803,-4.8767,-4.8751,-4.8785,-4.8767,-4.8751,-4.8785,-4.8803,-4.8914,-4.9433,-4.9415,-4.9415,-5.0527,-5.0676,-5.062,-5.1139,-5.1528,-5.1844,-5.2401,-5.292,-5.332,-5.332,-5.2891,-5.243,-5.2197,-5.2137,-5.2068,-5.2068,-5.2423,-5.2768,-5.2877,-5.2908,-5.2938,-5.3057,-5.3228,-5.3351,-5.3402,-5.3531,-5.363,-5.3654,-5.3593,-5.3607,-5.3632,-5.3327,-5.3162,-5.3225,-5.2461,-5.1888,-5.1608,-5.1047,-5.0588,-5.0321,-5.0283,-5.0283,-5.0283,-5.0283,-5.0283,-5.0283,-5.0283,-5.0236,0.0,0.0,0.0,0.0,0.0,0.0,-3.8337,0.0,-3.8264,-4.1479,-4.2176,-4.2433,-4.3294,-4.3441,-4.3938,-4.5553,-4.581,-4.581,-4.581,-4.581,-4.581,-4.581,-4.581,-4.581,-4.581,-4.581,-4.5883,-4.6027,-4.6027,-4.6079,-4.6214,-4.6231,-4.6301,-4.6438,-4.6438,-4.6438,-4.6475,-4.6475,-4.6884,-4.7664,-4.7701,-4.811,-4.889,-4.889,-4.8875,-4.8787,-4.8787,-4.884,-4.8873,-4.8822,-4.8787,-4.8787,-4.866,-4.8605,-4.8605,-4.8624,-4.8605,-4.8605,-4.8624,-4.8624,-4.8624,-4.8661,-4.9196,-4.9806,-4.9879,-5.0489,-5.1154,-5.1154,-5.1766,-5.2435,-5.2435,-5.3105,-5.3794,-5.3794,-5.3794,-5.3756,-5.3733,-5.3161,-5.2624,-5.2624,-5.3255,-5.3907,-5.4248,-5.4262,-5.438,-5.4716,-5.4678,-5.4625,-5.4761,-5.4616,-5.4516,-5.4594,-5.4532,-5.4616,-5.4842,-5.4097,-5.374,-5.4104,-5.3276,-5.2474,-5.1672,-5.1596,-5.1176,-5.0336,-5.0298,-5.0259,-5.0259,-5.0271,-5.0283,-5.0283,-5.0283,-5.0113,-2.2832,0.0,0.0,0.0,0.0,0.0,0.0,0.0,-3.4871,-3.8153,-3.8851,-3.9423,-4.1405,-4.1772,-4.2103,-4.313,-4.3791,-4.4158,-4.4158,-4.4158,-4.4158,-4.4158,-4.4158,-4.4158,-4.4158,-4.4158,-4.4176,0.0,-4.4262,-4.4314,-4.4365,-4.4482,-4.4564,-4.4633,-4.466,-4.4989,-4.5621,-4.5621,-4.603,-4.6847,-4.7404,-4.7813,-4.8036,-4.863,-4.8875,-4.8787,-4.8787,-4.8769,-4.8696,-4.866,-4.866,-4.866,-4.8624,-4.8569,-4.855,-4.8587,-4.8569,-4.855,-4.8587,-4.8624,-4.8808,-5.0009,-5.012,-5.0138,-5.193,-5.2225,-5.2077,-5.2668,-5.3021,-5.3208,-5.3304,-5.3528,-5.3735,-5.3812,-5.3678,-5.36,-5.3754,-5.3511,-5.3247,-5.3247,-5.3432,-5.3639,-5.3813,-5.3794,-5.3813,-5.3981,-5.4105,-5.419,-5.4207,-5.4392,-5.45,-5.4516,-5.4474,-5.4458,-5.4522,-5.4285,-5.4156,-5.4236,-5.3443,-5.2824,-5.2635,-5.1466,-5.0673,-5.0447,-4.9858,-4.957,-4.957,-5.0063,-5.0283,-5.0283,-5.0283,-5.0113,-2.4226,-2.4924,-2.6062,-2.6722,0.0,0.0,-3.1017,-3.1898,-3.3109,0.0,-3.7786,-3.8542,-4.0267,-4.0875,-4.1242,-4.1735,-4.2176,-4.2727,-4.3404,-4.3515,-4.3515,-4.3515,-4.3515,-4.3515,-4.3515,-4.3515,-4.3515,-4.3515,-4.3549,-4.3583,-4.3617,-4.3751,-4.3869,-4.3869,-4.3929,-4.4199,-4.4719,-4.4751,-4.5175,-4.5992,-4.6475,-4.7053,-4.7687,-4.8133,-4.8471,-4.8661,-4.8661,-4.8606,-4.8476,-4.8476,-4.8513,-4.855,-4.8495,-4.8439,-4.8438,-4.8458,-4.8439,-4.8438,-4.8458,-4.8476,-4.8716,-5.0043,-5.0355,-5.0539,-5.2327,-5.2786,-5.2786,-5.3228,-5.338,-5.344,-5.3578,-5.3598,-5.3617,-5.3696,-5.3637,-5.3598,-5.358,-5.3541,-5.3538,-5.3578,-5.3558,-5.3501,-5.3598,-5.3558,-5.3538,-5.3598,-5.3661,-5.372,-5.3777,-5.3907,-5.3961,-5.4015,-5.3924,-5.3962,-5.4086,-5.4088,-5.4123,-5.4279,-5.3829,-5.3378,-5.3024,-5.2048,-5.1222,-5.0509,-5.0037,-4.964,-4.9317,-4.983,-5.0088,-5.0088,-5.0236,-4.9987,-2.6072,-2.6502,-2.7482,-2.851,-2.7923,0.0,-3.1971,-3.1911,-3.2058,0.0,-3.7037,-3.7808,-3.8872,-3.9753,-4.0325,-4.0398,-4.0655,-4.1405,-4.302,-4.3204,-4.3204,-4.3204,-4.3314,-4.3351,-4.3351,-4.3441,-4.3515,-4.3515,-4.3515,-4.3532,-4.36,-4.3701,-4.3788,-4.3788,-4.3832,-4.3881,-4.3881,-4.3961,-4.4379,-4.5159,-4.5233,-4.6055,-4.7453,-4.7564,-4.794,-4.8494,-4.8494,-4.8438,-4.8306,-4.8306,-4.8344,-4.8457,-4.8325,-4.8306,-4.8306,-4.8306,-4.8306,-4.8306,-4.8306,-4.8306,-4.8453,-4.9317,-5.0141,-5.0949,-5.1756,-5.2564,-5.3203,-5.3203,-5.3251,-5.3339,-5.344,-5.3461,-5.3461,-5.3481,-5.3578,-5.3615,-5.3359,-5.34,-5.3518,-5.3617,-5.3558,-5.3461,-5.3461,-5.3461,-5.3461,-5.3461,-5.3359,-5.3339,-5.344,-5.3314,-5.3209,-5.3277,-5.323,-5.3334,-5.3604,-5.3643,-5.3795,-5.4141,-5.4158,-5.3821,-5.3055,-5.283,-5.2044,-5.0546,-5.0359,-4.9905,-4.9256,-4.957,-4.9762,-4.9762,-5.0051,-4.9707,-2.8877,-2.9831,-3.0711,-2.7813,-2.8778,0.0,-2.7578,-2.7798,-2.8888,0.0,-3.0283,-3.076,-3.3513,-3.4688,-3.5459,-3.6068,-3.7866,-3.9753,-4.1332,-4.1572,-4.1572,-4.1572,-4.2139,-4.2543,-4.2543,-4.313,-4.3515,-4.3515,-4.3515,-4.3515,-4.3532,-4.36,-4.3651,-4.3651,-4.3771,-4.382,-4.382,-4.3837,-4.396,-4.4188,-4.4839,-4.5655,-4.6564,-4.7268,-4.794,-4.8494,-4.8494,-4.8438,-4.8306,-4.8306,-4.8306,-4.8325,-4.8306,-4.8306,-4.8306,-4.8306,-4.8306,-4.8306,-4.8306,-4.8306,-4.8453,-4.9317,-5.0141,-5.0949,-5.1756,-5.2564,-5.3203,-5.3203,-5.3251,-5.3318,-5.3339,-5.3339,-5.338,-5.3461,-5.3396,-5.3314,-5.342,-5.3355,-5.3272,-5.3359,-5.3314,-5.3272,-5.3339,-5.3314,-5.3272,-5.3339,-5.3293,-5.3209,-5.3251,-5.3209,-5.3225,-5.3209,-5.3225,-5.3209,-5.3293,-5.3314,-5.3334,-5.34,-5.34,-5.3326,-5.3179,-5.1925,-5.1077,-5.0745,-4.9417,-4.8789,-4.8919,-4.924,-4.9409,-4.9409,-4.9468,-4.9256,-3.087,-3.1091,-3.1531,-2.9512,-2.9586,0.0,0.0,-2.8092,-2.8374,-3.0381,-2.9831,-2.9732,-3.2142,-3.2913,-3.3463,-3.427,-3.6156,-3.7624,-3.8013,-3.9811,-4.1095,-4.1095,-4.1462,-4.1699,-4.1699,-4.2433,-4.3057,-4.3478,-4.3515,-4.3515,-4.3515,-4.3549,-4.3566,-4.3566,-4.3651,-4.3684,-4.3684,-4.3771,-4.382,-4.3869,-4.4276,-4.5073,-4.6205,-4.6648,-4.7426,-4.8419,-4.8419,-4.8344,-4.8306,-4.8306,-4.8306,-4.8306,-4.8306,-4.8306,-4.8306,-4.8306,-4.8306,-4.8306,-4.8306,-4.8306,-4.8453,-4.9317,-4.9867,-5.0362,-5.1169,-5.1977,-5.2601,-5.2601,-5.2899,-5.3272,-5.3272,-5.3272,-5.3272,-5.3334,-5.3314,-5.3272,-5.3334,-5.3314,-5.3272,-5.3272,-5.3209,-5.3188,-5.3251,-5.3209,-5.3188,-5.3251,-5.3209,-5.3203,-5.3203,-5.3203,-5.3203,-5.3203,-5.3203,-5.3203,-5.3203,-5.3203,-5.3203,-5.3203,-5.3203,-5.3203,-5.3203,-5.2454,-5.161,-5.0839,-4.915,-4.8401,-4.855,-4.8729,-4.8881,-4.9048,-4.9224,-4.9031,-3.2999,-3.2682,-3.2792,-3.169,-3.1017,-3.0613,0.0,0.0,0.0,-3.1005,-3.0418,0.0,0.0,0.0,0.0,0.0,0.0,0.0,0.0,-3.7206,0.0,-3.9884,-4.0471,-4.0802,-4.0655,-4.1075,-4.1846,-4.2947,-4.2727,-4.2763,-4.3258,-4.3441,-4.3515,-4.3515,-4.3566,-4.36,-4.36,-4.3667,-4.3754,-4.3771,-4.3771,-4.4586,-4.6101,-4.6101,-4.6893,-4.8306,-4.8306,-4.8306,-4.8306,-4.8306,-4.8306,-4.8306,-4.8306,-4.8306,-4.8306,-4.8306,-4.8306,-4.8306,-4.8306,-4.8306,-4.8416,-4.9114,-4.9463,-4.9757,-5.0545,-5.1353,-5.1977,-5.1977,-5.2564,-5.3203,-5.3203,-5.3203,-5.3203,-5.3203,-5.3251,-5.3256,-5.3188,-5.3251,-5.3256,-5.3188,-5.3203,-5.3203,-5.3203,-5.3203,-5.3203,-5.3203,-5.3203,-5.3203,-5.3203,-5.3203,-5.3203,-5.3203,-5.3203,-5.3203,-5.3203,-5.3203,-5.3203,-5.3203,-5.3203,-5.3203,-5.3203,-5.2873,-5.205,-5.0582,-4.9077,-4.8306,-4.8306,-4.8306,-4.8421,-4.8711,-4.8982,-4.8833,-3.6376,-3.7294,0.0,0.0,-3.4004,-3.4885,-2.8594,0.0,-2.9439,-2.764,0.0,0.0,0.0,0.0,0.0,0.0,0.0,0.0,-3.087,-3.2362,-3.4087,-3.5518,-3.8248,-3.9753,-3.9056,-3.8395,-3.8946,-4.1205,-4.0047,-4.0194,-4.2323,-4.3094,-4.3515,-4.3515,-4.3515,-4.3515,-4.3515,-4.3532,-4.3566,-4.3634,-4.3634,-4.4481,-4.6101,-4.6101,-4.6893,-4.8306,-4.8306,-4.8306,-4.8306,-4.8306,-4.8306,-4.8306,-4.8306,-4.8306,-4.8306,-4.8306,-4.8306,-4.8306,-4.8306,-4.8306,-4.8343,-4.8416,-4.8967,-4.9757,-5.0545,-5.1353,-5.1977,-5.1977,-5.2564,-5.3203,-5.3203,-5.3203,-5.3203,-5.3203,-5.3225,-5.3188,-5.3225,-5.3225,-5.3188,-5.3225,-5.3203,-5.3203,-5.3203,-5.3203,-5.3203,-5.3203,-5.3203,-5.3203,-5.3203,-5.3203,-5.3203,-5.3203,-5.3203,-5.3203,-5.3203,-5.3203,-5.3203,-5.3203,-5.3203,-5.3203,-5.3203,-5.183,-5.0655,-4.9757,-4.8783,-4.8306,-4.8306,-4.8306,-4.8325,-4.8363,-4.842,-4.8382,0.0,0.0,0.0,0.0,0.0,0.0,-3.0283,0.0,-2.8778,0.0,0.0,0.0,0.0,0.0,0.0,0.0,-2.9035,0.0,0.0,0.0,-3.2485,0.0,0.0,0.0,-3.7845,-3.7272,-3.7991,-4.0875,-3.9166,-3.9239,-4.2139,-4.2616,-4.302,-4.3515,-4.3515,-4.3515,-4.3515,-4.3515,-4.3515,-4.3549,-4.3549,-4.4137,-4.5313,-4.5772,-4.6581,-4.7626,-4.8122,-4.8306,-4.8306,-4.8306,-4.8306,-4.8306,-4.8306,-4.8306,-4.8306,-4.8306,-4.8306,-4.8306,-4.8306,-4.8306,-4.8306,-4.8306,-4.8563,-4.8893,-4.926,-5.0251,-5.1316,-5.1316,-5.2234,-5.3203,-5.3203,-5.3203,-5.3203,-5.3203,-5.3203,-5.3203,-5.3203,-5.3203,-5.3203,-5.3203,-5.3203,-5.3203,-5.3203,-5.3203,-5.3203,-5.3203,-5.3203,-5.3203,-5.3203,-5.3203,-5.3203,-5.3203,-5.3203,-5.3203,-5.3203,-5.3203,-5.3203,-5.3203,-5.3203,-5.3203,-5.3203,-5.2087,-5.1132,-5.0288,-4.9481,-4.882,-4.8306,-4.8306,-4.8306,-4.8306,-4.8306,-4.8306,-3.7734,0.0,0.0,0.0,0.0,0.0,0.0,0.0,0.0,0.0,0.0,0.0,0.0,0.0,0.0,0.0,0.0,-2.8301,0.0,-2.8643,0.0,0.0,0.0,0.0,0.0,-3.5165,-3.5826,-3.9533,-3.7514,-3.7749,-4.1442,-4.2066,-4.258,-4.313,-4.3404,-4.3515,-4.3515,-4.3515,-4.3515,-4.3515,-4.3515,-4.3901,-4.4728,-4.5516,-4.6361,-4.7149,-4.7976,-4.8306,-4.8306,-4.8306,-4.8306,-4.8306,-4.8306,-4.8306,-4.8306,-4.8306,-4.8306,-4.8306,-4.8306,-4.8306,-4.8306,-4.8306,-4.8306,-4.8343,-4.86,-4.9664,-5.0839,-5.1059,-5.2123,-5.3203,-5.3203,-5.3203,-5.3203,-5.3203,-5.3203,-5.3203,-5.3203,-5.3203,-5.3203,-5.3203,-5.3203,-5.3203,-5.3203,-5.3203,-5.3203,-5.3203,-5.3203,-5.3203,-5.3203,-5.3203,-5.3203,-5.3203,-5.3203,-5.3203,-5.3203,-5.3203,-5.3203,-5.3203,-5.3203,-5.3203,-5.3203,-5.2417,-5.172,-5.1132,-5.0124,-4.928,-4.8673,-4.8416,-4.8306,-4.8306,-4.8306,-4.8306,0.0,0.0,0.0,-3.5055,0.0,0.0,0.0,0.0,-3.2252,0.0,0.0,0.0,0.0,0.0,0.0,0.0,0.0,0.0,0.0,0.0,0.0,0.0,0.0,0.0,0.0,-3.1078,-3.1225,0.0,-3.4174,-3.4871,-3.9717,-4.1442,-4.2323,-4.2323,-4.3094,-4.3515,-4.3515,-4.3515,-4.3515,-4.3515,-4.3515,-4.3901,-4.4728,-4.5516,-4.6361,-4.7149,-4.7976,-4.8306,-4.8306,-4.8306,-4.8306,-4.8306,-4.8306,-4.8306,-4.8306,-4.8306,-4.8306,-4.8306,-4.8306,-4.8306,-4.8306,-4.8306,-4.8306,-4.8453,-4.9317,-5.0141,-5.0949,-5.172,-5.2564,-5.3203,-5.3203,-5.3203,-5.3203,-5.3203,-5.3203,-5.3203,-5.3203,-5.3203,-5.3203,-5.3203,-5.3203,-5.3203,-5.3203,-5.3203,-5.3203,-5.3203,-5.3203,-5.3203,-5.3203,-5.3203,-5.3203,-5.3203,-5.3203,-5.3203,-5.3203,-5.3203,-5.3203,-5.3203,-5.3203,-5.3203,-5.3203,-5.2417,-5.1977,-5.194,-5.0418,-4.961,-4.9574,-4.871,-4.8306,-4.8306,-4.8306,-4.8306,0.0,0.0,-4.2453,-3.8138,0.0,0.0,0.0,0.0,0.0,0.0,0.0,0.0,0.0,0.0,0.0,0.0,0.0,0.0,0.0,0.0,0.0,0.0,0.0,0.0,0.0,0.0,0.0,0.0,-3.3683,0.0,-3.9643,-4.0414,-4.1185,-4.2286,-4.2543,-4.2947,-4.3515,-4.3515,-4.3515,-4.3515,-4.3515,-4.3644,-4.3938,-4.5296,-4.6067,-4.6397,-4.7719,-4.8306,-4.8306,-4.8306,-4.8306,-4.8306,-4.8306,-4.8306,-4.8306,-4.8306,-4.8306,-4.8306,-4.8306,-4.8306,-4.8416,-4.8967,-4.917,-4.9297,-5.0141,-5.0949,-5.1646,-5.1903,-5.2564,-5.3203,-5.3203,-5.3203,-5.3203,-5.3203,-5.3203,-5.3203,-5.3203,-5.3203,-5.3203,-5.3203,-5.3203,-5.3203,-5.3203,-5.3203,-5.3203,-5.3203,-5.3203,-5.3203,-5.3203,-5.3203,-5.3203,-5.3203,-5.3203,-5.3203,-5.3203,-5.3203,-5.3203,-5.3203,-5.3203,-5.3203,-5.3203,-5.2931,-5.2527,-5.2013,-5.1483,-5.0675,-4.961,-4.9317,-4.8857,-4.8306,-4.8306,-4.8306,-4.4011,-4.4305,0.0,-4.0414,-3.9166,0.0,-3.4004,0.0,-3.4908,0.0,0.0,0.0,0.0,0.0,0.0,0.0,0.0,0.0,0.0,-2.497,0.0,0.0,0.0,0.0,0.0,0.0,-2.9879,-3.4234,-3.2803,0.0,0.0,-3.9585,-4.0487,-4.1846,-4.2139,-4.269,-4.3515,-4.3515,-4.3515,-4.3515,-4.3515,-4.3515,-4.3551,-4.5149,-4.5883,-4.5993,-4.7609,-4.8306,-4.8306,-4.8306,-4.8306,-4.8306,-4.8306,-4.8306,-4.8306,-4.8306,-4.8306,-4.8306,-4.8306,-4.8489,-4.8857,-4.9427,-4.9794,-5.0178,-5.0986,-5.1573,-5.205,-5.2344,-5.2821,-5.3203,-5.3203,-5.3203,-5.3203,-5.3203,-5.3203,-5.3203,-5.3203,-5.3203,-5.3203,-5.3203,-5.3203,-5.3203,-5.3203,-5.3203,-5.3203,-5.3203,-5.3203,-5.3203,-5.3203,-5.3203,-5.3203,-5.3203,-5.3203,-5.3203,-5.3203,-5.3203,-5.3203,-5.3203,-5.3203,-5.3203,-5.3203,-5.3203,-5.2968,-5.2454,-5.216,-5.1463,-5.0455,-4.9867,-4.9317,-4.8746,-4.8453,-4.8306]},{"header":{"parameterUnit":"m.s-1","parameterCategory":1,"la1":30.6,"la2":29.2853,"lo1":-89.7004,"lo2":-87.6739,"dy":0.0162,"dx":0.0183,"nx":112,"ny":82,"refTime":"2026-04-25T12:00:00:Z","depth":0,"parameterNumber":3,"parameterNumberName":"V-component_of_WINDS"},"data":[0.0,0.0,0.0,0.0,0.0,0.0,0.0,0.0,0.0,0.0,0.0,0.0,0.0,0.0,0.0,0.0,0.0,0.0,0.0,0.0,0.0,0.0,0.0,0.0,0.0,0.0,0.0,0.0,0.0,0.0,0.0,0.0,0.0,0.0,0.0,0.0,0.0,0.0,0.0,0.0,0.0,0.0,0.0,0.0,0.0,0.0,0.0,0.0,0.0,0.0,0.0,0.0,0.0,0.0,0.0,0.0,0.0,0.0,0.0,0.0,0.0,0.0,0.0,0.0,0.0,0.0,0.0,0.0,0.0,0.0,0.0,0.0,0.0,0.0,0.0,0.0,0.0,0.0,0.0,0.0,0.0,0.0,0.0,0.0,0.0,0.0,0.0,0.0,0.0,0.0,0.4728,0.4879,0.5396,0.5642,0.5518,0.5594,0.5455,0.4932,0.0,0.0,0.0,0.0,0.0,0.0,0.0,0.0,0.0,0.0,0.0,0.0,0.0,0.0,0.0,0.0,0.0,0.0,0.0,0.0,0.0,0.0,0.0,0.0,0.0,0.0,0.0,0.0,0.0,0.0,0.0,0.0,0.0,0.0,0.0,0.0,0.0,0.0,0.0,0.0,0.0,0.0,0.0,0.0,0.0,0.0,0.0,0.0,0.0,0.0,0.0,0.0,0.0,0.0,0.0,0.0,0.0,0.0,0.0,0.0,0.0,0.0,0.0,0.0,0.0,0.0,0.0,0.0,0.0,0.0,0.0,0.0,0.0,0.0,0.0,0.0,0.0,0.0,0.0,0.0,0.0,0.0,0.0,0.0,0.0,0.0,0.0,0.0,0.0,0.0,0.0,0.0,0.0,0.0,0.0,0.0,0.0,0.0,0.0,0.0,0.0,0.0,0.0,0.0,0.463,0.5322,0.5561,0.5642,0.5518,0.5515,0.5356,0.4926,0.0,0.0,0.0,0.0,0.0,0.0,0.0,0.0,0.0,0.0,0.0,0.0,0.0,0.0,0.0,0.0,0.0,0.0,0.0,0.0,0.0,0.0,0.0,0.0,0.0,0.0,0.0,0.0,0.0,0.0,0.0,0.0,0.0,0.0,0.0,0.0,0.0,0.0,0.0,0.0,0.0,0.0,0.0,0.0,0.0,0.0,0.0,0.0,0.0,0.0,0.0,0.0,0.0,0.0,0.0,0.0,0.0,0.0,0.0,0.0,0.0,0.0,0.0,0.0,0.0,0.0,0.0,0.0,0.0,0.0,0.0,0.0,0.0,0.0,0.0,0.0,0.0,0.0,0.0,0.0,0.0,0.0,0.0,0.0,0.0,0.0,0.0,0.0,0.0,0.0,0.0,0.0,0.0,0.0,0.0,0.0,0.0,0.0,0.0,0.0,0.0,0.0,0.0,0.4643,0.4875,0.574,0.5874,0.5885,0.5824,0.5804,0.5595,0.5247,0.4822,0.0,0.0,0.0,0.0,0.0,0.0,0.0,0.0,0.0,0.0,0.0,0.0,0.0,0.0,0.0,0.0,0.0,0.0,0.0,0.0,0.0,0.0,0.0,0.0,0.0,0.0,0.0,0.0,0.0,0.0,0.0,0.0,0.0,0.0,0.0,0.0,0.0,0.0,0.0,0.0,0.0,0.0,0.0,0.0,0.0,0.0,0.0,0.0,0.0,0.0,0.0,0.0,0.0,0.0,0.0,0.0,0.0,0.0,0.0,0.0,0.0,0.0,0.0,0.0,0.0,0.0,0.0,0.0,0.0,0.0,0.0,0.0,0.0,0.0,0.0,0.0,0.0,0.0,0.0,0.0,0.0,0.0,0.0,0.0,0.0,0.0,0.0,0.0,0.0,0.0,0.0,0.0,0.0,0.0,0.0,0.0,0.0,0.0,0.0,0.0,0.0,0.0,0.5081,0.5354,0.611,0.6169,0.6169,0.6169,0.6045,0.5856,0.5515,0.4919,0.0,0.0,0.0,0.0,0.0,0.0,0.0,0.0,0.0,0.0,0.0,0.0,0.0,0.0,0.0,0.0,0.0,0.0,0.0,0.0,0.0,0.0,0.0,0.0,0.0,0.0,0.0,0.0,0.0,0.0,0.0,0.0,0.0,0.0,0.0,0.0,0.0,0.0,0.0,0.0,0.0,0.0,0.0,0.0,0.0,0.0,0.0,0.0,0.0,0.0,0.0,0.0,0.0,0.0,0.0,0.0,0.0,0.0,0.0,0.0,0.0,0.0,0.0,0.0,0.0,0.0,0.0,0.0,0.0,0.0,0.0,0.0,0.0,0.0,0.0,0.0,0.0,0.0,0.0,0.0,0.0,0.0,0.0,0.0,0.0,0.0,0.0,0.0,0.0,0.0,0.0,0.0,0.0,0.0,0.0,0.0,0.0,0.0,0.0,0.0,0.0,0.0,0.541,0.602,0.6354,0.6384,0.6384,0.6384,0.6081,0.5803,0.5502,0.4886,0.0,0.0,0.0,0.0,0.0,0.0,0.0,0.0,0.0,0.0,0.0,0.0,0.0,0.0,0.0,0.0,0.0,0.0,0.0,0.0,0.0,0.0,0.0,0.0,0.0,0.0,0.0,0.0,0.0,0.0,0.0,0.0,0.0,0.0,0.0,0.0,0.0,0.0,0.0,0.0,0.0,0.0,0.0,0.0,0.0,0.0,0.0,0.0,0.0,0.0,0.0,0.0,0.0,0.0,0.0,0.0,0.0,0.0,0.0,0.0,0.0,0.0,0.0,0.0,0.0,0.0,0.0,0.0,0.0,0.0,0.0,0.0,0.0,0.0,0.0,0.0,0.0,0.0,0.0,0.0,0.0,0.0,0.0,0.0,0.0,0.0,0.0,0.0,0.0,0.0,0.0,0.0,0.0,0.0,0.0,0.0,0.0,0.0,0.0,0.0,0.0,0.0,0.5476,0.6034,0.6612,0.6656,0.6624,0.6536,0.6459,0.6125,0.5472,0.0,0.0,0.0,0.0,0.0,0.0,0.0,0.0,0.0,0.0,0.0,0.0,0.0,0.0,0.0,0.0,0.0,0.0,0.0,0.0,0.0,0.0,0.0,0.0,0.0,0.0,0.0,0.0,0.0,0.0,0.0,0.0,0.0,0.0,0.0,0.0,0.0,0.0,0.0,0.0,0.0,0.0,0.0,0.0,0.0,0.0,0.0,0.0,0.0,0.0,0.0,0.0,0.0,0.0,0.0,0.0,0.0,0.0,0.0,0.0,0.0,0.0,0.0,0.0,0.0,0.0,0.0,0.0,0.0,0.0,0.0,0.0,0.0,0.0,0.0,0.0,0.0,0.0,0.0,0.0,0.0,0.0,0.0,0.0,0.0,0.0,0.0,0.0,0.0,0.0,0.0,0.0,0.0,0.0,0.0,0.0,0.0,0.0,0.0,0.0,0.0,0.0,0.512,0.5682,0.6207,0.6766,0.6819,0.6797,0.6652,0.6505,0.6112,0.544,0.0,0.0,0.0,0.0,0.0,0.0,0.0,0.0,0.0,0.0,0.0,0.0,0.0,0.0,0.0,0.0,0.0,0.0,0.0,0.0,0.0,0.0,0.0,0.0,0.0,0.0,0.0,0.0,0.0,0.0,0.0,0.0,0.0,0.0,0.0,0.0,0.0,0.0,0.0,0.0,0.0,0.0,0.0,0.0,0.0,0.0,0.0,0.0,0.0,0.0,0.0,0.0,0.0,0.0,0.0,0.0,0.0,0.0,0.0,0.0,0.0,0.0,0.0,0.0,0.0,0.0,0.0,0.0,0.0,0.0,0.0,0.0,0.0,0.0,0.0,0.0,0.0,0.0,0.0,0.0,0.0,0.0,0.0,0.0,0.0,0.0,0.0,0.0,0.0,0.0,0.0,0.0,0.0,0.0,0.0,0.0,0.0,0.0,0.0,0.0,0.0,0.0,0.5145,0.6079,0.6756,0.6869,0.6883,0.6865,0.6709,0.6152,0.5677,0.0,0.0,0.0,0.0,0.0,0.0,0.0,0.0,0.0,0.0,0.0,0.0,0.0,0.0,0.0,0.0,0.0,0.0,0.0,0.0,0.0,0.0,0.0,0.0,0.0,0.0,0.0,0.0,0.0,0.0,0.0,0.0,0.0,0.0,0.0,0.0,0.0,0.0,0.0,0.0,0.0,0.0,0.0,0.0,0.0,0.0,0.0,0.0,0.0,0.0,0.0,0.0,0.0,0.0,0.0,0.0,0.0,0.0,0.0,0.0,0.0,0.0,0.0,0.0,0.0,0.0,0.0,0.0,0.0,0.0,0.0,0.0,0.0,0.0,0.0,0.0,0.0,0.0,0.0,0.0,0.0,0.0,0.0,0.0,0.0,0.0,0.0,0.0,0.0,0.0,0.0,0.0,0.0,0.0,0.0,0.0,0.0,0.0,0.0,0.0,0.0,0.0,0.0,0.5058,0.5949,0.66,0.6749,0.677,0.6709,0.6552,0.6327,0.5856,0.5094,0.0,0.0,0.0,0.0,0.0,0.0,0.0,0.0,0.0,0.0,0.0,0.0,0.0,0.0,0.0,0.0,0.0,0.0,0.0,0.0,0.0,0.0,0.0,0.0,0.0,0.0,0.0,0.0,0.0,0.0,0.0,0.0,0.0,0.0,0.0,0.0,0.0,0.0,0.0,0.0,0.0,0.0,0.0,0.0,0.0,0.0,0.0,0.0,0.0,0.0,0.0,0.0,0.0,0.0,0.0,0.0,0.0,0.0,0.0,0.0,0.0,0.0,0.0,0.0,0.0,0.0,0.0,0.0,0.0,0.0,0.0,0.0,0.0,0.0,0.0,0.0,0.0,0.0,0.0,0.0,0.0,0.0,0.0,0.0,0.0,0.0,0.0,0.0,0.0,0.0,0.0,0.0,0.0,0.0,0.0,0.0,0.0,0.0,0.0,0.0,0.0,0.0,0.5167,0.5954,0.6545,0.66,0.6607,0.6552,0.6443,0.6238,0.5772,0.5015,0.0,0.0,0.0,0.0,0.0,0.0,0.0,0.0,0.0,0.0,0.0,0.0,0.0,0.0,0.0,0.0,0.0,0.0,0.0,0.0,0.0,0.0,0.0,0.0,0.0,0.0,0.0,0.0,0.0,0.0,0.0,0.0,0.0,0.0,0.0,0.0,0.0,0.0,0.0,0.0,0.0,0.0,0.0,0.0,0.0,0.0,0.0,0.0,0.0,0.0,0.0,0.0,0.0,0.0,0.0,0.0,0.0,0.0,0.0,0.0,0.0,0.0,0.0,0.0,0.0,0.0,0.0,0.0,0.0,0.0,0.0,0.0,0.0,0.0,0.0,0.0,0.0,0.0,0.0,0.0,0.0,0.0,0.0,0.0,0.0,0.0,0.0,0.0,0.0,0.0,0.0,0.0,0.0,0.0,0.0,0.0,0.0,0.0,0.0,0.0,0.0,0.0,0.5297,0.6009,0.6491,0.6491,0.6491,0.6443,0.6313,0.5989,0.563,0.515,0.0,0.0,0.0,0.0,0.0,0.0,0.0,0.0,0.0,0.0,0.0,0.0,0.0,0.0,0.0,0.0,0.0,0.0,0.0,0.0,0.0,0.0,0.0,0.0,0.0,0.0,0.0,0.0,0.0,0.0,0.0,0.0,0.0,0.0,0.0,0.0,0.0,0.0,0.0,0.0,0.0,0.0,0.0,0.0,0.0,0.0,0.0,0.0,0.0,0.0,0.0,0.0,0.0,0.0,0.0,0.0,0.0,0.0,0.0,0.0,0.5778,0.0,0.0,0.0,0.0,0.0,0.0,0.0,0.0,0.0,0.0,0.0,0.0,0.0,0.0,0.0,0.0,0.0,0.0,0.0,0.0,0.0,0.0,0.0,0.0,0.0,0.0,0.0,0.0,0.0,0.0,0.0,0.0,0.0,0.0,0.0,0.0,0.0,0.0,0.0,0.0,0.0,0.5113,0.5855,0.6347,0.6347,0.6347,0.6334,0.63,0.6091,0.5793,0.5371,0.4778,0.0,0.0,0.0,0.0,0.0,0.0,0.0,0.0,0.0,0.0,0.0,0.0,0.0,0.0,0.0,0.0,0.0,0.0,0.0,0.0,0.0,0.0,0.0,0.0,0.0,0.0,0.0,0.0,0.0,0.0,0.0,0.0,0.0,0.0,0.0,0.0,0.0,0.0,0.0,0.0,0.0,0.0,0.0,0.0,0.0,0.0,0.0,0.0,0.0,0.0,0.0,0.0,0.0,0.0,0.0,0.0,0.0,0.0,0.0,0.0,0.6028,0.0,0.0,0.0,0.0,0.0,0.0,0.0,0.0,0.0,0.0,0.0,0.0,0.0,0.0,0.0,0.0,0.0,0.0,0.0,0.0,0.0,0.0,0.0,0.0,0.0,0.0,0.0,0.0,0.0,0.0,0.0,0.0,0.0,0.0,0.0,0.0,0.0,0.0,0.0,0.0,0.518,0.5851,0.63,0.63,0.63,0.63,0.63,0.6118,0.5867,0.5528,0.504,0.0,0.0,0.0,0.0,0.0,0.0,0.0,0.0,0.0,0.0,0.0,0.0,0.0,0.0,0.0,0.0,0.0,0.0,0.0,0.0,0.0,0.0,0.0,0.0,0.0,0.0,0.0,0.0,0.0,0.0,0.0,0.0,0.0,0.0,0.0,0.0,0.0,0.0,0.0,0.0,0.0,0.0,0.0,0.0,0.0,0.0,0.0,0.0,0.0,0.0,0.0,0.0,0.0,0.7977,0.8126,0.815,0.8357,0.8477,0.8391,0.7478,0.7118,0.7165,0.649,0.0,0.0,0.0,0.0,0.0,0.0,0.0,0.0,0.0,0.0,0.0,0.0,0.0,0.0,0.0,0.0,0.0,0.0,0.0,0.0,0.0,0.0,0.0,0.0,0.5886,0.5896,0.5028,0.0,0.0,0.0,0.0,0.0,0.0,0.0,0.0,0.0,0.0,0.0,0.5365,0.5938,0.63,0.63,0.63,0.6286,0.6259,0.6125,0.5942,0.5644,0.5338,0.4908,0.0,0.0,0.0,0.0,0.0,0.0,0.0,0.0,0.0,0.0,0.0,0.0,0.0,0.0,0.0,0.0,0.0,0.0,0.0,0.0,0.0,0.0,0.0,0.0,0.0,0.0,0.0,0.0,0.0,0.0,0.0,0.0,0.5481,0.5664,0.0,0.0,0.0,0.0,0.0,0.0,0.0,0.0,0.0,0.0,0.0,0.0,0.0,0.7373,0.7692,0.8214,0.8438,0.837,0.8913,0.9049,0.877,0.8967,0.9091,0.9084,0.8933,0.0,0.7635,0.7439,0.0,0.0,0.0,0.0,0.0,0.0,0.0,0.0,0.0,0.0,0.0,0.0,0.0,0.0,0.0,0.0,0.0,0.0,0.0,0.0,0.0,0.0,0.6396,0.6505,0.6573,0.6525,0.0,0.5581,0.4911,0.4628,0.4345,0.0,0.0,0.0,0.0,0.0,0.0,0.0,0.5521,0.6006,0.63,0.63,0.63,0.6245,0.6071,0.6166,0.6136,0.5793,0.5528,0.5237,0.4988,0.4348,0.0,0.0,0.0,0.0,0.0,0.0,0.0,0.0,0.0,0.0,0.0,0.0,0.0,0.0,0.0,0.0,0.0,0.0,0.0,0.0,0.0,0.0,0.0,0.0,0.0,0.0,0.0,0.0,0.0,0.5292,0.5827,0.5806,0.5901,0.5904,0.0,0.0,0.0,0.0,0.0,0.0,0.0,0.0,0.0,0.7875,0.8045,0.8309,0.8689,0.9042,0.9266,0.9367,0.9632,0.9734,0.9693,0.9761,0.9741,0.9659,0.9659,0.9316,0.8714,0.8287,0.77,0.7086,0.0,0.0,0.0,0.0,0.6232,0.6357,0.6531,0.6625,0.6652,0.6256,0.0,0.0,0.0,0.0,0.0,0.0,0.0,0.0,0.0,0.0,0.6661,0.6892,0.6903,0.6932,0.6865,0.6451,0.5909,0.0,0.5252,0.5014,0.4365,0.0,0.0,0.0,0.0,0.5467,0.5684,0.6067,0.63,0.63,0.63,0.6238,0.6006,0.6173,0.617,0.582,0.5759,0.5596,0.5277,0.4863,0.4402,0.0,0.0,0.0,0.0,0.0,0.0,0.0,0.0,0.0,0.0,0.0,0.0,0.0,0.0,0.0,0.0,0.0,0.0,0.0,0.0,0.0,0.0,0.0,0.0,0.0,0.0,0.0,0.0,0.5705,0.6159,0.6044,0.6375,0.6409,0.0,0.0,0.0,0.0,0.0,0.0,0.7685,0.7834,0.818,0.8696,0.8893,0.9171,0.9551,0.9707,0.989,1.0107,1.0107,1.0168,1.0283,1.0283,1.0215,1.0044,1.0004,0.9862,0.9666,0.8994,0.848,0.8062,0.7638,0.7211,0.6918,0.7034,0.7126,0.7197,0.7533,0.7585,0.7467,0.706,0.682,0.654,0.5858,0.0,0.0,0.0,0.0,0.6053,0.657,0.677,0.684,0.7017,0.7115,0.7146,0.7105,0.7011,0.6755,0.0,0.6064,0.5867,0.5155,0.0,0.0,0.0,0.0,0.5698,0.584,0.6129,0.63,0.63,0.63,0.6238,0.6006,0.6173,0.6184,0.5874,0.5928,0.582,0.5521,0.525,0.486,0.4348,0.0,0.0,0.0,0.0,0.0,0.0,0.0,0.0,0.0,0.0,0.0,0.0,0.0,0.0,0.0,0.0,0.0,0.0,0.0,0.0,0.0,0.0,0.0,0.0,0.0,0.0,0.0,0.0,0.0,0.6654,0.7048,0.0,0.0,0.0,0.0,0.733,0.759,0.7957,0.8404,0.871,0.9015,0.9327,0.9612,0.9842,0.995,1.0168,1.0256,1.027,1.027,1.0276,1.0283,1.0283,1.0276,1.0263,1.0051,0.9977,0.993,0.953,0.9164,0.8804,0.854,0.833,0.8187,0.7995,0.7879,0.7775,0.7915,0.7711,0.7439,0.754,0.712,0.6542,0.634,0.6158,0.0,0.0,0.626,0.6364,0.6682,0.6894,0.6982,0.6995,0.7177,0.7319,0.7125,0.7092,0.6991,0.0,0.6477,0.6224,0.5959,0.0,0.5596,0.5725,0.5772,0.5847,0.5959,0.6159,0.63,0.63,0.63,0.6238,0.6006,0.6173,0.6231,0.5993,0.5888,0.58,0.5779,0.5326,0.4955,0.4674,0.4219,0.0,0.0,0.0,0.0,0.0,0.0,0.0,0.0,0.0,0.0,0.0,0.0,0.0,0.0,0.0,0.0,0.0,0.0,0.0,0.0,0.0,0.0,0.0,0.0,0.0,0.0,0.0,0.0,0.7272,0.776,0.0,0.7597,0.7787,0.797,0.8079,0.8547,0.8933,0.9191,0.949,0.9747,0.9951,1.0148,1.0276,1.0331,1.0487,1.0561,1.0561,1.0561,1.0561,1.0561,1.0561,1.0507,1.0412,1.0263,1.0141,0.997,0.9768,0.9551,0.934,0.9035,0.8941,0.8873,0.8676,0.8541,0.8528,0.8581,0.8428,0.8197,0.8115,0.7605,0.7076,0.7032,0.6919,0.6813,0.6869,0.702,0.7184,0.7289,0.7369,0.7383,0.7383,0.7402,0.7398,0.7299,0.721,0.7065,0.6957,0.6824,0.658,0.6234,0.6166,0.6078,0.5833,0.5969,0.6156,0.6173,0.6265,0.63,0.63,0.63,0.6238,0.6006,0.6173,0.619,0.5895,0.5922,0.5861,0.5671,0.542,0.5142,0.4843,0.4368,0.3937,0.0,0.0,0.0,0.0,0.0,0.0,0.0,0.0,0.0,0.0,0.0,0.0,0.0,0.0,0.0,0.0,0.0,0.0,0.0,0.0,0.0,0.0,0.0,0.0,0.0,0.7061,0.7638,0.7733,0.8316,0.8574,0.8221,0.8554,0.8804,0.8859,0.9327,0.9673,0.9829,1.0066,1.0243,1.0351,1.0493,1.0568,1.0568,1.067,1.0717,1.0717,1.0717,1.0717,1.0717,1.067,1.0616,1.0561,1.0365,1.0222,1.0114,0.9964,0.9815,0.9652,0.9401,0.9306,0.9293,0.9144,0.8943,0.8834,0.8677,0.8565,0.8521,0.8269,0.784,0.749,0.744,0.7358,0.7276,0.7225,0.7308,0.7459,0.7459,0.7507,0.7596,0.7543,0.751,0.7434,0.7426,0.7251,0.7098,0.7098,0.6984,0.6851,0.66,0.6552,0.6403,0.6213,0.6227,0.632,0.6368,0.6327,0.63,0.63,0.63,0.6259,0.6118,0.6152,0.6098,0.5888,0.5881,0.5772,0.5556,0.5399,0.5142,0.485,0.4375,0.3998,0.374,0.0,0.0,0.0,0.0,0.0,0.0,0.0,0.0,0.0,0.0,0.0,0.0,0.0,0.0,0.0,0.0,0.0,0.0,0.0,0.0,0.0,0.0,0.0,0.6896,0.7543,0.8015,0.8035,0.8737,0.9071,0.8581,0.9062,0.9469,0.9618,0.9903,1.0197,1.0276,1.0419,1.05,1.05,1.0643,1.0717,1.0717,1.0717,1.0711,1.0711,1.0711,1.0711,1.0711,1.0561,1.0575,1.0697,1.0399,1.0276,1.0263,1.0107,0.9896,0.9808,0.9673,0.9618,0.9598,0.9442,0.9114,0.8628,0.8208,0.8188,0.8291,0.8008,0.7814,0.7685,0.7543,0.75,0.7469,0.7284,0.7241,0.7235,0.7235,0.7441,0.7558,0.7472,0.7521,0.7563,0.746,0.7258,0.7098,0.7098,0.6984,0.6937,0.7065,0.6776,0.6586,0.6871,0.6546,0.0,0.6491,0.6381,0.63,0.6306,0.6306,0.6306,0.6306,0.6132,0.6,0.5986,0.5752,0.5556,0.5399,0.5209,0.4955,0.4694,0.426,0.3887,0.3617,0.0,0.0,0.0,0.0,0.0,0.0,0.0,0.0,0.0,0.0,0.0,0.0,0.0,0.0,0.0,0.0,0.0,0.0,0.0,0.0,0.0,0.7021,0.7522,0.7563,0.8119,0.8689,0.9123,0.9551,0.9795,0.9788,0.9937,1.0053,1.0093,1.0263,1.0392,1.0432,1.0575,1.0656,1.0656,1.0697,1.0717,1.0717,1.0609,1.0555,1.0555,1.0555,1.0555,1.0555,1.0514,1.0514,1.0534,1.0243,1.0051,1.01,0.9944,0.9863,0.9815,0.9781,0.9761,0.9747,0.9598,0.9323,0.9037,0.8934,0.8827,0.8694,0.8527,0.8306,0.8094,0.8,0.7885,0.7795,0.7699,0.7768,0.7789,0.7789,0.7839,0.7882,0.7842,0.7813,0.7712,0.757,0.7414,0.7278,0.7119,0.7065,0.7018,0.6957,0.6842,0.6756,0.662,0.6532,0.0,0.6368,0.6327,0.634,0.6443,0.6457,0.6457,0.6457,0.6376,0.6213,0.5881,0.5691,0.5556,0.5399,0.5114,0.4891,0.4694,0.4484,0.4192,0.0,0.0,0.0,0.0,0.0,0.0,0.0,0.0,0.0,0.0,0.0,0.0,0.0,0.0,0.0,0.0,0.0,0.0,0.0,0.0,0.0,0.0,0.774,0.8255,0.8445,0.8771,0.9164,0.9639,0.9842,1.0107,1.0263,1.0331,1.0371,1.0371,1.0446,1.0493,1.0493,1.0521,1.0534,1.0534,1.0595,1.0622,1.0622,1.0602,1.0588,1.0588,1.0588,1.0555,1.0487,1.0432,1.0405,1.0392,1.0092,0.9984,0.9977,0.9889,0.9876,0.0,0.0,0.0,0.0,0.0,0.9456,0.9296,0.9234,0.9055,0.8871,0.8832,0.8696,0.8506,0.8415,0.8309,0.8216,0.809,0.8099,0.8119,0.8008,0.7988,0.7988,0.7988,0.7923,0.7773,0.7631,0.7482,0.7326,0.7125,0.7098,0.0,0.6991,0.6923,0.6849,0.677,0.6593,0.6504,0.6484,0.6375,0.6334,0.6416,0.6422,0.6422,0.6422,0.6322,0.0,0.0,0.0,0.5494,0.5277,0.504,0.0,0.0,0.0,0.0,0.0,0.0,0.0,0.0,0.4024,0.4002,0.0,0.0,0.0,0.0,0.0,0.0,0.0,0.0,0.0,0.0,0.0,0.0,0.0,0.0,0.0,0.0,0.8377,0.8913,0.9347,0.9422,0.9544,0.9836,0.993,1.0141,1.031,1.0446,1.0521,1.0521,1.05,1.0493,1.0493,0.0,0.0,0.0,0.0,1.0493,1.0493,1.0629,1.0697,1.0697,1.0697,1.0616,1.0466,1.0337,1.027,1.0249,1.0107,0.9977,0.9963,0.9977,0.9896,0.9822,0.9822,0.9822,0.9802,0.968,0.9537,0.9388,0.9289,0.0,0.0,0.8892,0.8885,0.8858,0.8777,0.8723,0.8655,0.837,0.8333,0.8235,0.8029,0.7988,0.7988,0.7988,0.7887,0.7794,0.7651,0.7502,0.7353,0.7152,0.7105,0.7098,0.7098,0.6991,0.695,0.7058,0.6763,0.6539,0.6661,0.647,0.6306,0.632,0.0,0.0,0.6327,0.6159,0.6027,0.5993,0.5766,0.5481,0.5164,0.5042,0.4982,0.4961,0.4961,0.5015,0.5123,0.5143,0.525,0.5405,0.4658,0.449,0.0,0.0,0.0,0.0,0.0,0.0,0.0,0.0,0.0,0.0,0.0,0.0,0.0,0.0,0.0,0.8248,0.8757,0.9184,0.9517,0.9666,0.9849,1.0154,1.0215,1.0344,1.0609,1.0663,1.0677,1.0677,1.0561,1.0493,1.0493,1.0358,1.0283,1.0283,1.0419,1.0493,1.0493,1.0521,1.0534,1.0534,0.0,0.0,1.0324,1.029,1.0215,1.0031,0.9997,0.9916,0.9876,0.9936,0.9896,0.9822,0.9822,0.9822,0.9815,0.9788,0.9686,0.9544,0.9388,0.9239,0.9089,0.8974,0.8885,0.8878,0.8851,0.8811,0.0,0.8492,0.8357,0.8235,0.8029,0.7988,0.7988,0.7988,0.7968,0.7907,0.7801,0.7658,0.7509,0.736,0.7224,0.7098,0.7098,0.7071,0.7024,0.6943,0.679,0.662,0.6566,0.6409,0.634,0.6457,0.647,0.647,0.647,0.6443,0.6281,0.6006,0.5861,0.5684,0.5508,0.5583,0.5576,0.546,0.546,0.5413,0.5351,0.544,0.5515,0.5542,0.5303,0.5208,0.0,0.0,0.0,0.0,0.0,0.0,0.0,0.0,0.0,0.0,0.0,0.759,0.7375,0.0,0.8235,0.8832,0.9184,0.9462,0.9686,0.9774,0.9937,1.0243,1.0283,1.0399,1.069,1.0649,1.0609,1.0609,1.0399,1.027,1.027,1.0202,1.0168,1.0168,1.0378,1.0493,1.0493,1.0568,1.0609,1.0609,1.0609,1.0493,1.0283,1.0283,1.0154,0.9876,0.9957,0.9903,0.9829,0.9842,0.989,0.9822,0.9822,0.9822,0.9822,0.9822,0.9734,0.9591,0.9435,0.9337,0.9187,0.8988,0.8885,0.8885,0.8885,0.8831,0.8791,0.8642,0.8492,0.8343,0.8194,0.8099,0.7988,0.7988,0.7988,0.7948,0.7841,0.7699,0.7556,0.7446,0.7244,0.7098,0.7098,0.7098,0.7071,0.7004,0.6844,0.6675,0.66,0.6436,0.6327,0.6402,0.6409,0.6409,0.6409,0.647,0.6342,0.6013,0.603,0.5928,0.5705,0.5766,0.5766,0.5698,0.5698,0.5698,0.5698,0.5772,0.5854,0.5958,0.5883,0.576,0.0,0.0,0.0,0.0,0.0,0.0,0.0,0.758,0.7925,0.7518,0.7899,0.821,0.8172,0.8411,0.8791,0.9334,0.953,0.9659,0.9802,0.9822,0.9924,1.0202,1.0236,1.0351,1.0643,1.0561,1.0493,1.0493,1.0243,1.0031,1.0031,1.0004,1.0004,1.0031,1.0351,1.0493,1.0493,1.0643,1.0717,1.0717,1.0717,1.0568,1.0283,1.0283,1.0127,0.9869,0.9936,0.9936,0.9903,0.9842,0.9822,0.9822,0.9822,0.9822,0.9822,0.9822,0.9747,0.9625,0.9442,0.93,0.9228,0.8994,0.8885,0.8885,0.8885,0.8885,0.8851,0.8757,0.8601,0.8452,0.8361,0.8153,0.7988,0.7988,0.7988,0.7955,0.7882,0.7719,0.7563,0.7441,0.7265,0.7098,0.7098,0.7098,0.7098,0.7098,0.6912,0.6736,0.6702,0.6504,0.6327,0.6306,0.63,0.63,0.63,0.6429,0.6369,0.6132,0.6261,0.6259,0.5942,0.5928,0.5915,0.5895,0.5895,0.5949,0.6071,0.6071,0.6139,0.63,0.63,0.6163,1.0671,1.0288,0.982,0.8776,0.8458,0.8286,0.0,0.7667,0.7587,0.7876,0.8213,0.8501,0.8601,0.8879,0.9248,0.953,0.9598,0.9659,0.9802,0.9822,0.9883,0.999,1.0011,1.0188,1.0487,1.05,1.0493,1.0493,1.0344,1.0256,1.0256,1.0127,1.0051,1.0249,1.0412,1.0493,1.0493,1.0643,1.0717,1.0717,1.0717,1.0568,1.0283,1.0283,1.0188,0.9963,0.9977,1.0114,1.0209,0.9937,0.9822,0.9822,0.9822,0.9822,0.9822,0.9822,0.9808,0.9754,0.9476,0.9367,0.9306,0.9028,0.8885,0.8885,0.8885,0.8885,0.8851,0.8757,0.8601,0.8452,0.8361,0.8153,0.7988,0.7988,0.7988,0.7982,0.7968,0.7794,0.7597,0.7577,0.7339,0.7098,0.7098,0.7098,0.7098,0.7098,0.6964,0.6851,0.6715,0.6552,0.6443,0.6313,0.63,0.63,0.63,0.6429,0.6497,0.6463,0.6566,0.6573,0.6443,0.6436,0.6375,0.6252,0.6245,0.6259,0.6272,0.6272,0.6279,0.63,0.63,0.6279,1.0587,1.0058,0.9585,0.8287,0.8115,0.817,0.7959,0.7963,0.8072,0.8262,0.854,0.8818,0.9055,0.9205,0.9381,0.9686,0.9734,0.9754,0.9815,0.9747,0.972,0.9788,0.9795,0.9944,1.0331,1.0371,1.0331,1.0243,1.0181,1.0148,1.0148,1.0168,1.0249,1.0399,1.0548,1.0622,1.0622,1.069,1.0717,1.0717,1.0717,1.0568,1.0283,1.0283,1.0243,1.0175,0.9992,1.0053,1.0256,0.9951,0.9822,0.9822,0.9822,0.9822,0.9822,0.9822,0.9822,0.9781,0.9483,0.9381,0.9334,0.9035,0.8885,0.8885,0.8885,0.8885,0.8871,0.8804,0.8669,0.8465,0.8411,0.8214,0.7988,0.7988,0.7988,0.7988,0.7988,0.7875,0.7699,0.7617,0.7421,0.7244,0.7112,0.7098,0.7098,0.7098,0.6977,0.6829,0.6722,0.6566,0.6457,0.6313,0.63,0.63,0.63,0.6429,0.6477,0.6395,0.6573,0.6634,0.6518,0.6559,0.658,0.6519,0.6519,0.6511,0.6422,0.6422,0.6381,0.63,0.63,0.63,1.0679,1.0231,0.9894,0.8357,0.8258,0.8512,0.8238,0.8404,0.8621,0.8655,0.8845,0.9062,0.9279,0.9354,0.9462,0.972,0.9761,0.9774,0.9815,0.97,0.9612,0.9612,0.9571,0.9693,1.0059,1.0168,1.0188,1.012,1.0051,1.0134,1.0168,1.0276,1.0405,1.0548,1.0663,1.0717,1.0717,1.0717,1.0717,1.0717,1.0717,1.0588,1.0337,1.0337,1.0317,1.027,1.0046,1.0073,1.0256,0.9951,0.9822,0.9822,0.9822,0.9822,0.9822,0.9822,0.9822,0.9781,0.953,0.9415,0.934,0.9083,0.8974,0.8885,0.8885,0.8885,0.8885,0.8885,0.875,0.8533,0.8492,0.8296,0.8092,0.8002,0.7988,0.7988,0.7988,0.7874,0.7767,0.7631,0.7475,0.7319,0.7125,0.7098,0.7098,0.7098,0.7011,0.6889,0.6783,0.6593,0.6457,0.6313,0.63,0.63,0.63,0.6429,0.647,0.6368,0.6559,0.6634,0.6518,0.658,0.662,0.658,0.658,0.6525,0.6457,0.6457,0.6402,0.63,0.63,0.63,1.1348,1.1427,1.1507,0.9862,0.9756,0.9877,0.9266,0.9015,0.896,0.9159,0.92,0.9207,0.9214,0.9337,0.9435,0.9591,0.9618,0.9666,0.9802,0.97,0.9612,0.9612,0.9476,0.9449,0.9612,0.9829,1.0114,1.0263,1.0276,1.0331,1.0473,1.048,1.0555,1.0711,1.0717,1.0717,1.0717,1.0717,1.0717,1.0717,1.0717,1.0636,1.0487,1.0487,1.0412,1.0283,1.027,1.027,1.0256,0.9951,0.9822,0.9822,0.9822,0.9822,0.9822,0.9822,0.9822,0.9802,0.9652,0.9503,0.9354,0.9255,0.9055,0.8885,0.8885,0.8885,0.8885,0.8885,0.8825,0.8669,0.852,0.837,0.8228,0.8022,0.7988,0.7988,0.7988,0.7874,0.7767,0.7631,0.7475,0.7319,0.7125,0.7098,0.7098,0.7098,0.7092,0.7038,0.6896,0.6661,0.6457,0.6313,0.63,0.63,0.63,0.6429,0.6511,0.6504,0.6614,0.6634,0.6518,0.6518,0.6457,0.6313,0.6313,0.6313,0.6306,0.6306,0.6306,0.63,0.63,0.63,1.0908,1.0523,1.0121,0.9299,0.929,0.9496,0.9373,0.9266,0.9191,0.9042,0.8927,0.8859,0.8859,0.8899,0.9049,0.9401,0.9544,0.9659,0.9802,0.97,0.9571,0.9469,0.9415,0.9401,0.9456,0.9727,0.0,0.9971,1.0168,1.0304,1.0351,1.0439,1.0561,1.0717,1.0717,1.0717,1.0717,1.0717,1.0717,1.0717,1.0616,1.0493,1.0351,1.0351,1.0324,1.0276,1.0175,1.0188,1.0256,0.9951,0.9822,0.9822,0.9822,0.9822,0.9822,0.9822,0.9822,0.9802,0.9659,0.951,0.9354,0.9262,0.9055,0.8885,0.8885,0.8885,0.8885,0.8885,0.8825,0.8676,0.852,0.8377,0.8235,0.8029,0.7988,0.7988,0.7988,0.7948,0.7867,0.7767,0.7624,0.7475,0.7319,0.721,0.7098,0.7098,0.7018,0.6903,0.6797,0.66,0.6457,0.6313,0.63,0.63,0.63,0.634,0.6368,0.6368,0.6511,0.6566,0.6511,0.6573,0.66,0.6552,0.6552,0.6545,0.6443,0.6443,0.6388,0.63,0.63,0.63,1.0663,1.0135,0.9739,0.9244,0.9286,0.9401,0.9449,0.9374,0.9218,0.892,0.8696,0.8533,0.8479,0.8472,0.8635,0.9144,0.9306,0.9476,0.9781,0.97,0.9571,0.9476,0.9415,0.9401,0.9456,0.9632,0.0,0.9897,1.0134,1.0304,1.0351,1.0493,1.0616,1.0717,1.0717,1.0717,1.0717,1.0717,1.0717,1.0717,1.0622,1.0493,1.0358,1.0412,1.0405,1.0344,1.0195,1.0188,1.0256,0.9951,0.9822,0.9822,0.9822,0.9822,0.9822,0.9822,0.9822,0.9808,0.972,0.9551,0.9367,0.9323,0.9103,0.8885,0.8885,0.8885,0.8885,0.8885,0.8811,0.8757,0.8601,0.8459,0.8309,0.816,0.8029,0.7988,0.7988,0.7988,0.7941,0.7841,0.774,0.7611,0.7453,0.7244,0.7098,0.7098,0.7018,0.691,0.6803,0.6647,0.6538,0.6388,0.6327,0.63,0.63,0.63,0.63,0.63,0.6388,0.6436,0.6436,0.6491,0.6546,0.6546,0.6546,0.6532,0.6436,0.6436,0.6388,0.63,0.63,0.63,1.0596,1.0257,1.0322,0.978,0.9713,0.9774,0.9632,0.9354,0.9098,0.8737,0.8438,0.8174,0.7961,0.7948,0.8157,0.8743,0.8871,0.9094,0.9727,0.97,0.9618,0.9612,0.9483,0.9449,0.9598,0.9612,0.0,0.9957,0.0,1.0337,1.0473,1.0629,1.0717,1.0717,1.0717,1.0717,1.0717,1.0717,1.0717,1.0717,1.0717,1.0636,1.0493,1.0649,1.0629,1.0473,1.0337,1.0276,1.0243,0.9944,0.9822,0.9822,0.9822,0.9822,0.9822,0.9822,0.9822,0.9822,0.9822,0.9625,0.9381,0.9381,0.9184,0.8885,0.8885,0.8885,0.8885,0.8885,0.8885,0.8851,0.875,0.8594,0.8445,0.8354,0.8153,0.7988,0.7988,0.7988,0.7948,0.7848,0.7814,0.7706,0.7467,0.7244,0.7098,0.7098,0.7098,0.7045,0.6903,0.6803,0.6654,0.6532,0.6388,0.6306,0.63,0.63,0.63,0.63,0.63,0.63,0.63,0.63,0.63,0.63,0.63,0.63,0.63,0.63,0.63,0.63,0.63,0.63,1.0398,1.0109,0.9832,0.978,0.9713,0.9625,0.9476,0.9117,0.871,0.8244,0.7882,0.7522,0.7213,0.7489,0.7834,0.8157,0.8737,0.9232,0.9612,0.9727,0.9727,0.9618,0.9578,0.9564,0.9605,0.9612,0.0,0.0,1.0127,1.0297,1.0331,1.0582,1.0717,1.0717,1.0717,1.0717,1.0717,1.0717,1.0717,1.0717,1.0717,1.0636,1.0493,1.0649,1.0582,1.0331,1.0297,1.0215,1.0031,0.9903,0.9822,0.9822,0.9822,0.9822,0.9822,0.9822,0.9822,0.9822,0.9822,0.9625,0.9381,0.9381,0.9184,0.8885,0.8885,0.8885,0.8885,0.8885,0.8885,0.8851,0.875,0.8594,0.8445,0.8354,0.8153,0.7988,0.7988,0.7988,0.7975,0.7941,0.7801,0.759,0.7453,0.7244,0.7098,0.7098,0.7098,0.7045,0.6903,0.6856,0.677,0.6538,0.6477,0.6416,0.6306,0.63,0.63,0.63,0.63,0.63,0.63,0.63,0.63,0.63,0.63,0.63,0.63,0.63,0.63,0.63,0.63,0.63,1.0117,0.9877,0.972,0.9802,0.9666,0.9435,0.915,0.8737,0.8248,0.7624,0.7299,0.6987,0.6688,0.6946,0.7366,0.7813,0.8459,0.9035,0.9537,0.9734,0.9788,0.9713,0.97,0.97,0.97,0.97,0.9761,0.0,1.0141,1.0283,1.0283,1.0561,1.0717,1.0717,1.0717,1.0717,1.0717,1.0717,1.0717,1.0717,1.0717,1.0677,1.0595,1.0683,1.0595,1.0371,0.0,1.0195,0.9977,0.9883,0.9822,0.9822,0.9822,0.9822,0.9822,0.9822,0.9822,0.9822,0.9822,0.9673,0.9469,0.9401,0.9184,0.8885,0.8885,0.8885,0.8885,0.8885,0.8885,0.8865,0.8832,0.8696,0.8547,0.8397,0.8248,0.8126,0.8002,0.7988,0.7988,0.7988,0.7848,0.7645,0.7495,0.7346,0.7217,0.7105,0.7098,0.7065,0.6991,0.6923,0.6822,0.6695,0.6552,0.6477,0.6402,0.6334,0.63,0.63,0.63,0.63,0.63,0.63,0.63,0.63,0.63,0.63,0.63,0.63,0.63,0.63,0.63,0.63,0.9836,0.9741,0.9842,0.9802,0.9557,0.9205,0.8757,0.8275,0.7665,0.6943,0.6715,0.6519,0.6238,0.6444,0.6926,0.7611,0.0,0.8737,0.9476,0.97,0.9808,0.9849,0.9836,0.9829,0.9849,0.9849,0.9849,0.9977,1.0209,1.031,1.031,1.0568,1.0717,1.0717,1.0717,1.0717,1.0717,1.0717,1.0717,1.0717,1.0717,1.0717,1.0717,1.0717,1.0629,1.046,1.0331,1.0181,0.995,0.9876,0.9822,0.9822,0.9822,0.9822,0.9822,0.9822,0.9822,0.9822,0.9822,0.9727,0.9585,0.9429,0.9191,0.8905,0.8892,0.8885,0.8885,0.8885,0.8885,0.8885,0.8885,0.8825,0.8676,0.8547,0.8391,0.8235,0.8099,0.8002,0.7988,0.7988,0.7916,0.7773,0.7651,0.7489,0.7326,0.7146,0.7105,0.7098,0.7098,0.6991,0.691,0.6889,0.6695,0.6566,0.6545,0.6429,0.6361,0.6361,0.634,0.6327,0.6327,0.6313,0.63,0.63,0.63,0.6306,0.6327,0.6327,0.634,0.6361,0.6361,0.6361,0.9774,0.9835,0.9889,0.9707,0.9327,0.8899,0.8445,0.7801,0.7078,0.6505,0.6254,0.6017,0.5631,0.6166,0.6824,0.7152,0.7943,0.8703,0.9334,0.9551,0.9734,0.0,0.9835,0.9869,0.9936,0.995,0.0,0.0,1.0304,1.0453,1.0453,1.0622,1.0717,1.0717,1.0717,1.0717,1.0717,1.0717,1.0717,1.0717,1.0717,1.0717,1.0717,1.0717,1.0575,1.0317,1.029,0.0,0.9856,0.9829,0.9822,0.9822,0.9822,0.9822,0.9822,0.9822,0.9822,0.9822,0.9822,0.9727,0.9585,0.9429,0.9259,0.9096,0.8974,0.8885,0.8885,0.8885,0.8885,0.8885,0.8885,0.8825,0.8703,0.8676,0.8465,0.8313,0.8235,0.8133,0.7988,0.7988,0.7916,0.7801,0.778,0.755,0.7405,0.7333,0.7224,0.7098,0.7098,0.7071,0.7018,0.6896,0.6836,0.6797,0.6675,0.6641,0.6627,0.6627,0.6545,0.6477,0.6477,0.6361,0.63,0.63,0.63,0.6361,0.6477,0.6477,0.6538,0.6627,0.6627,0.6627,0.9802,0.9876,0.9815,0.9666,0.9273,0.871,0.8079,0.7394,0.6702,0.5986,0.5671,0.546,0.5284,0.5725,0.6295,0.6824,0.74,0.8106,0.9022,0.9211,0.9397,0.9923,0.9856,0.991,1.0148,1.0038,1.0051,1.027,1.0412,1.0493,1.0493,1.0636,1.0717,1.0717,1.0717,1.0717,1.0717,1.0717,1.0717,1.0717,1.0717,1.0717,1.0717,1.0717,1.0561,1.0283,1.0283,1.0107,0.9822,0.9822,0.9822,0.9822,0.9822,0.9822,0.9822,0.9822,0.9822,0.9822,0.9822,0.9774,0.9693,0.9551,0.934,0.92,0.9069,0.8994,0.8885,0.8885,0.8885,0.8885,0.8885,0.8831,0.8811,0.873,0.8486,0.8248,0.8167,0.8092,0.7988,0.7988,0.7928,0.7902,0.7828,0.7692,0.7577,0.7502,0.736,0.7258,0.7258,0.7146,0.7071,0.7004,0.693,0.6856,0.6824,0.6749,0.6702,0.6702,0.6634,0.6593,0.6593,0.6525,0.6491,0.6491,0.6491,0.6525,0.6593,0.6593,0.6627,0.6702,0.6702,0.6702,0.9788,0.9842,0.9822,0.9612,0.9198,0.8615,0.7938,0.7252,0.6517,0.5725,0.5414,0.5192,0.504,0.5311,0.5772,0.6491,0.6878,0.7456,0.8622,0.8844,0.9148,0.9856,0.9897,0.0,1.0249,1.0168,0.0,1.0473,1.0521,1.0541,1.0541,1.0656,1.0717,1.0717,1.0717,1.0717,1.0717,1.0717,1.0717,1.0717,1.0717,1.0717,1.0717,1.0683,1.0527,1.0276,1.0243,1.0073,0.9822,0.9822,0.9822,0.9822,0.9822,0.9822,0.9822,0.9822,0.9822,0.9822,0.9822,0.9822,0.9802,0.9693,0.9449,0.9255,0.9221,0.9055,0.8885,0.8885,0.8885,0.8885,0.8885,0.8885,0.8844,0.875,0.8506,0.8275,0.8119,0.8015,0.7988,0.7988,0.7988,0.7948,0.7882,0.7834,0.7773,0.7658,0.7516,0.7453,0.7419,0.7265,0.7132,0.7098,0.6997,0.693,0.693,0.6865,0.6797,0.6797,0.6763,0.6749,0.6749,0.6715,0.6702,0.6702,0.6702,0.6715,0.6749,0.6749,0.6763,0.6797,0.6797,0.6797,0.9815,0.9862,0.9869,0.951,0.896,0.8477,0.8342,0.7578,0.6747,0.6229,0.5925,0.5539,0.4873,0.5119,0.5617,0.6238,0.6668,0.7319,0.8377,0.8764,0.9107,0.9768,0.0,0.0,1.0249,1.027,1.0324,1.048,1.0622,1.0697,1.0697,1.0711,1.0717,1.0717,1.0717,1.0717,1.0717,1.0717,1.0717,1.0717,1.0717,1.0717,1.0717,1.0575,1.0426,1.0276,1.0134,0.9916,0.0,0.9822,0.9822,0.9822,0.9822,0.9822,0.9822,0.9822,0.9822,0.9822,0.9822,0.9822,0.9822,0.9802,0.9598,0.9334,0.9255,0.9055,0.8885,0.8885,0.8885,0.8885,0.8885,0.8885,0.8844,0.875,0.8581,0.8425,0.8282,0.814,0.7988,0.7988,0.7988,0.7982,0.7968,0.7902,0.7807,0.7794,0.7672,0.7529,0.7433,0.7405,0.7299,0.7112,0.7085,0.7078,0.7078,0.7065,0.7058,0.7058,0.6937,0.6862,0.6862,0.6776,0.6702,0.6702,0.6702,0.677,0.6862,0.6862,0.693,0.7058,0.7058,0.7058,0.9737,0.9802,0.9829,0.9469,0.9432,0.9242,0.8444,0.8024,0.7432,0.6306,0.578,0.5327,0.4796,0.4866,0.5214,0.5874,0.6064,0.6519,0.7651,0.7916,0.835,0.9306,0.9415,0.9646,0.0,0.0,1.0378,1.0609,1.0683,1.0717,1.0717,1.0717,1.0717,1.0717,1.0717,1.0717,1.0717,1.0717,1.0717,1.0717,1.0717,1.067,1.0582,1.0521,1.0365,1.0141,1.0011,0.9903,0.0,0.9822,0.9822,0.9822,0.9822,0.9822,0.9822,0.9822,0.9822,0.9822,0.9822,0.9822,0.9822,0.9822,0.9625,0.9367,0.9306,0.9123,0.8885,0.8885,0.8885,0.8885,0.8885,0.8885,0.8844,0.875,0.8662,0.8554,0.8323,0.8221,0.8153,0.8008,0.7988,0.7988,0.7988,0.7941,0.7901,0.7901,0.7821,0.7706,0.7645,0.7563,0.7448,0.7299,0.7152,0.7098,0.7098,0.7098,0.7098,0.7098,0.7045,0.7011,0.7011,0.6957,0.6923,0.6923,0.6923,0.695,0.7011,0.7011,0.7045,0.7098,0.7098,0.7098,0.9578,0.9578,0.9618,0.9327,0.9614,0.9729,0.8694,0.844,0.8109,0.6815,0.6179,0.5707,0.5223,0.5199,0.5457,0.6079,0.6082,0.6358,0.7439,0.7489,0.7849,0.8832,0.0,0.9286,0.9951,1.0175,1.0365,1.0575,1.0629,1.0656,1.0656,1.0697,1.0717,1.0717,1.0717,1.0717,1.0717,1.0717,1.0717,1.0717,1.0717,1.0636,1.0487,1.0446,1.029,0.9984,0.9936,0.9862,0.0,0.9822,0.9822,0.9822,0.9822,0.9822,0.9822,0.9822,0.9822,0.9822,0.9822,0.9822,0.9822,0.9822,0.9625,0.9381,0.9381,0.9171,0.8885,0.8885,0.8885,0.8885,0.8885,0.8885,0.8858,0.8804,0.8743,0.8655,0.8445,0.833,0.8241,0.8126,0.8022,0.7988,0.7988,0.7988,0.7988,0.7988,0.7901,0.7862,0.7814,0.7726,0.7604,0.7455,0.7339,0.7193,0.7105,0.7098,0.7098,0.7098,0.7098,0.7098,0.7098,0.7098,0.7098,0.7098,0.7098,0.7098,0.7098,0.7098,0.7098,0.7098,0.7098,0.7098,0.9314,0.9323,0.9313,0.9015,0.9284,0.96,0.9122,0.8923,0.8711,0.8009,0.7464,0.6896,0.629,0.6407,0.6682,0.7026,0.6966,0.7149,0.7903,0.7764,0.7767,0.0,0.854,0.8893,0.9347,0.993,1.0283,1.0283,1.0412,0.0,1.0493,1.0636,1.0717,1.0717,1.0717,1.0717,1.0717,1.0717,1.0717,1.0717,1.0717,1.0636,1.0487,1.0344,1.0195,0.9977,0.989,0.9822,0.0,0.9822,0.9822,0.9822,0.9822,0.9822,0.9822,0.9822,0.9822,0.9822,0.9822,0.9822,0.9822,0.9822,0.9625,0.9381,0.9381,0.9171,0.8885,0.8885,0.8885,0.8885,0.8885,0.8885,0.8885,0.8885,0.8818,0.871,0.871,0.8479,0.832,0.832,0.8147,0.7988,0.7988,0.7988,0.7988,0.7988,0.7988,0.7934,0.7828,0.7807,0.7753,0.7611,0.7597,0.7468,0.7125,0.7098,0.7098,0.7098,0.7098,0.7098,0.7098,0.7098,0.7098,0.7098,0.7098,0.7098,0.7098,0.7098,0.7098,0.7098,0.7098,0.7098,1.0365,1.0316,1.0314,0.9953,1.0268,1.0512,0.9741,0.958,0.9274,0.8127,0.7464,0.6923,0.6317,0.6265,0.6653,0.7683,0.725,0.7141,0.8196,0.79,0.0,0.8265,0.8981,0.9564,0.0,0.0,1.0168,1.0276,1.0324,1.0392,1.0487,1.0534,1.0609,1.0717,1.0717,1.0717,1.0717,1.0717,1.067,1.0561,1.0561,1.0432,1.0188,1.0078,1.0039,0.989,0.9842,0.9822,0.9822,0.9822,0.9822,0.9822,0.9822,0.9822,0.9822,0.9822,0.9822,0.9822,0.9822,0.9822,0.9822,0.9822,0.9625,0.9381,0.9381,0.9171,0.8885,0.8885,0.8885,0.8885,0.8885,0.8885,0.8885,0.8885,0.8844,0.8838,0.873,0.8635,0.8513,0.8361,0.8235,0.8167,0.8008,0.7988,0.7988,0.7988,0.7988,0.7975,0.7921,0.7921,0.7909,0.776,0.7746,0.7624,0.7326,0.7299,0.7251,0.7105,0.7098,0.7098,0.7098,0.7098,0.7098,0.7098,0.7098,0.7098,0.7098,0.7098,0.7098,0.7098,0.7098,0.7098,1.0389,1.0389,1.0475,1.02,1.0535,1.075,0.9922,0.9721,0.9456,0.8424,0.7773,0.7273,0.6912,0.6931,0.7297,0.8236,0.7591,0.735,0.8408,0.0,0.0,0.8364,0.9103,0.0,0.0,0.9835,1.0005,1.01,1.0161,1.0229,1.0317,1.0378,1.046,1.0555,1.0609,1.0609,1.0555,1.0555,1.0507,1.0412,1.0412,1.0283,0.9984,0.9984,0.9903,0.9822,0.9822,0.9822,0.0,0.9822,0.9822,0.9822,0.9822,0.9822,0.9822,0.9822,0.9822,0.9822,0.9822,0.9822,0.9822,0.9822,0.9625,0.9361,0.9245,0.9083,0.8885,0.8885,0.8885,0.8885,0.8885,0.8885,0.8885,0.8885,0.8885,0.8858,0.8818,0.875,0.8655,0.8472,0.8343,0.8241,0.814,0.8029,0.7988,0.7988,0.7988,0.7988,0.7988,0.7988,0.7955,0.7909,0.7896,0.7801,0.7556,0.7489,0.7414,0.7274,0.7258,0.7224,0.7224,0.7125,0.7098,0.7098,0.7098,0.7098,0.7098,0.7098,0.7098,0.7098,0.7098,0.7125,0.0,0.973,1.004,0.9874,1.0185,1.0426,0.9732,0.9535,0.0,0.8794,0.8249,0.7913,0.7949,0.8141,0.8417,0.8818,0.8129,0.7807,0.8615,0.8028,0.0,0.0,0.9028,0.0,0.9401,0.9659,0.9822,0.9822,0.9889,0.9977,0.9984,1.0188,1.0263,1.0263,1.0392,1.0399,1.0283,1.0283,1.0276,1.0263,1.0263,1.0181,0.997,0.997,0.9896,0.0,0.9822,0.9822,0.9822,0.9822,0.9822,0.9822,0.9822,0.9822,0.9822,0.9822,0.9822,0.9822,0.9822,0.9822,0.9815,0.9795,0.9605,0.9327,0.9028,0.8885,0.8885,0.8885,0.8885,0.8885,0.8885,0.8885,0.8885,0.8885,0.8885,0.8885,0.8885,0.8825,0.8723,0.871,0.8486,0.8347,0.8327,0.8153,0.8002,0.7988,0.7988,0.7988,0.7988,0.7988,0.7988,0.7988,0.7988,0.7934,0.7841,0.7699,0.7611,0.7597,0.7468,0.7433,0.7433,0.7251,0.7125,0.7125,0.7125,0.7125,0.7125,0.7125,0.7125,0.7125,0.7125,0.7251,0.9547,0.0,1.0461,1.0252,1.029,1.0205,0.0,0.9367,0.9047,0.8518,0.8129,0.8021,0.8417,0.8381,0.8806,1.0274,0.914,0.8431,0.9637,0.8978,0.8648,0.932,0.9557,0.968,0.9713,0.9781,0.9822,0.9822,0.9856,0.9862,0.9977,1.0017,1.0044,1.0044,1.0071,1.0195,1.0283,1.0283,1.0222,1.0044,1.0044,0.9963,0.9876,0.9876,0.9856,0.9822,0.9822,0.9822,0.9822,0.9822,0.9822,0.9822,0.9822,0.9822,0.9822,0.9822,0.9822,0.9822,0.9822,0.9822,0.9781,0.9557,0.9435,0.9327,0.9028,0.8885,0.8885,0.8885,0.8885,0.8885,0.8885,0.8885,0.8885,0.8885,0.8885,0.8885,0.8885,0.8858,0.8797,0.873,0.8655,0.8533,0.8309,0.8241,0.8174,0.8008,0.7988,0.7988,0.7988,0.7988,0.7988,0.7988,0.7988,0.7975,0.7941,0.7848,0.7719,0.7604,0.7563,0.7543,0.7543,0.7509,0.7489,0.7489,0.7489,0.7489,0.7489,0.7489,0.7489,0.7489,0.7489,0.7509,0.9324,0.9901,1.0503,1.0478,1.0298,1.0069,0.9913,0.9287,0.8662,0.8345,0.8081,0.8021,0.8457,0.8614,0.9083,1.0334,0.9377,0.8846,0.0,0.0,0.9865,1.0465,1.0612,1.0422,0.0,0.9822,0.9822,0.9822,0.9822,0.9856,0.9876,0.9883,0.9883,0.9883,0.9883,0.9985,1.0066,1.0073,1.0025,0.9883,0.9883,0.9842,0.9822,0.9822,0.9822,0.9822,0.9822,0.9822,0.9822,0.9822,0.9822,0.9822,0.9822,0.9822,0.9822,0.9822,0.9822,0.9822,0.9822,0.9822,0.9781,0.9557,0.9442,0.934,0.911,0.8988,0.8885,0.8885,0.8885,0.8885,0.8885,0.8885,0.8885,0.8885,0.8885,0.8885,0.8885,0.8885,0.8858,0.8832,0.8757,0.8662,0.8499,0.8418,0.8336,0.8255,0.8187,0.8147,0.8147,0.8035,0.7988,0.7988,0.7988,0.7988,0.7988,0.7914,0.7882,0.7807,0.7733,0.7699,0.7699,0.7638,0.7597,0.7597,0.7597,0.7597,0.7597,0.7597,0.7597,0.7597,0.7597,0.7638,0.9143,0.9684,1.0274,1.0406,1.0202,0.9985,1.0094,0.9239,0.8421,0.8357,0.8177,0.8141,0.8525,0.8987,0.9492,1.0154,0.9705,0.0,1.0587,1.094,1.1254,1.1671,1.1692,0.0,0.9943,0.9822,0.9822,0.9822,0.9822,0.9822,0.9822,0.9822,0.9822,0.9822,0.9822,0.9822,0.9822,0.9822,0.9822,0.9822,0.9822,0.9822,0.9822,0.9822,0.9822,0.9822,0.0,0.0,0.9822,0.9822,0.9822,0.9822,0.9822,0.9822,0.9822,0.9822,0.9822,0.9822,0.9822,0.9822,0.9795,0.9652,0.9503,0.9354,0.9255,0.9055,0.8885,0.8885,0.8885,0.8885,0.8885,0.8885,0.8885,0.8885,0.8885,0.8885,0.8885,0.8885,0.8885,0.8885,0.8832,0.8737,0.8716,0.8601,0.8506,0.8486,0.8377,0.8347,0.8327,0.8153,0.8015,0.7988,0.7988,0.7988,0.7988,0.7988,0.7988,0.7988,0.7867,0.7848,0.7848,0.7733,0.7665,0.7665,0.7665,0.7665,0.7665,0.7665,0.7665,0.7712,0.7665,0.7781,0.9324,0.9709,0.9865,0.9444,0.9793,1.0069,0.9432,0.9119,0.8915,0.8698,0.8614,0.8878,0.9817,1.0057,1.0503,1.1706,1.1837,1.1854,0.0,0.0,1.2296,1.1747,0.0,1.1209,0.9943,0.9822,0.9822,0.9822,0.9822,0.9822,0.9822,0.9822,0.9822,0.9822,0.9822,0.9822,0.9822,0.9822,0.9822,0.9822,0.9822,0.9822,0.9822,0.9822,0.9822,0.9822,0.0,0.9822,0.9822,0.9822,0.9822,0.9822,0.9822,0.9822,0.9822,0.9822,0.9822,0.9822,0.9822,0.9822,0.9795,0.9652,0.9503,0.9354,0.9255,0.9055,0.8885,0.8885,0.8885,0.8885,0.8885,0.8885,0.8885,0.8885,0.8885,0.8885,0.8885,0.8885,0.8885,0.8885,0.8865,0.8811,0.873,0.8689,0.8628,0.8499,0.8465,0.8404,0.834,0.8248,0.8187,0.8002,0.7988,0.7988,0.7988,0.7988,0.7988,0.7988,0.7968,0.7955,0.7955,0.7934,0.7921,0.7921,0.7921,0.7921,0.7921,0.7921,0.8069,0.8266,0.8019,0.8174,0.8813,0.9275,0.9672,0.9564,1.013,1.0659,1.0442,1.0057,0.9709,0.9588,0.9564,0.9757,1.0394,1.0863,1.1476,1.2381,1.2749,1.3124,1.3671,1.3937,1.3717,0.0,0.0,1.1985,1.0004,0.9822,0.9822,0.9822,0.9822,0.9822,0.9822,0.9822,0.9822,0.9822,0.9822,0.9822,0.9822,0.9822,0.9822,0.9822,0.9822,0.9822,0.9822,0.9822,0.9822,0.9822,0.0,0.9822,0.9822,0.9822,0.9822,0.9822,0.9822,0.9822,0.9822,0.9822,0.9822,0.9822,0.9822,0.9822,0.9808,0.9747,0.9564,0.9367,0.9357,0.9117,0.8885,0.8885,0.8885,0.8885,0.8885,0.8885,0.8885,0.8885,0.8885,0.8885,0.8885,0.8885,0.8885,0.8885,0.8885,0.8858,0.8845,0.8832,0.8811,0.8737,0.8655,0.8581,0.852,0.8438,0.8357,0.8282,0.8208,0.8167,0.8167,0.8035,0.7988,0.7988,0.7988,0.7988,0.7988,0.7988,0.7988,0.7988,0.7988,0.8088,0.8237,0.8237,0.8336,0.8627,0.8478,0.8577,0.8769,0.9156,0.9633,0.9985,1.0491,1.1008,1.1477,1.096,1.0442,1.0623,1.0623,1.0671,1.0996,1.1766,1.2541,1.3177,1.3713,1.432,1.5054,1.5423,1.5221,1.4272,1.4143,1.3246,1.0967,1.0725,1.0725,1.0725,1.0422,1.0247,1.0247,0.9943,0.9822,0.9822,0.9822,0.9822,0.9822,0.9822,0.9822,0.9822,0.9822,0.9822,0.9822,0.9822,0.9822,0.9822,0.9822,0.9822,0.9822,0.9822,0.9822,0.9822,0.9822,0.9822,0.9822,0.9822,0.9822,0.9822,0.9822,0.9822,0.9822,0.9822,0.9646,0.9429,0.9395,0.9198,0.8981,0.8892,0.8885,0.8885,0.8885,0.8885,0.8885,0.8885,0.8885,0.8885,0.8885,0.8885,0.8885,0.8885,0.8885,0.8885,0.8885,0.8885,0.8885,0.8885,0.8838,0.875,0.8716,0.8608,0.852,0.8486,0.8384,0.8354,0.8327,0.8126,0.7988,0.7988,0.7988,0.7988,0.7988,0.7988,0.7988,0.7988,0.7988,0.8137,0.8379,0.8379,0.8584,0.8874,0.8825,0.8874,0.992,0.992,0.9925,1.0513,1.0491,1.0611,1.1621,1.1236,1.0863,1.1609,1.1573,1.1561,1.2107,1.3061,1.4003,1.4807,1.5383,1.5923,1.6474,0.0,1.6576,1.5596,1.5451,1.4917,1.3545,1.3426,1.3426,1.3426,1.2286,1.1571,1.1571,1.0422,0.9822,0.9822,0.9822,0.9822,0.9822,0.9822,0.9822,0.9822,0.9822,0.9822,0.9822,0.9822,0.9822,0.9822,0.9822,0.9822,0.9822,0.9822,0.9822,0.9822,0.9822,0.9822,0.9822,0.9822,0.9822,0.9822,0.9822,0.9822,0.9822,0.9822,0.972,0.9564,0.9422,0.9323,0.9166,0.8974,0.8885,0.8885,0.8885,0.8885,0.8885,0.8885,0.8885,0.8885,0.8885,0.8885,0.8885,0.8885,0.8885,0.8885,0.8885,0.8885,0.8885,0.8885,0.8871,0.8817,0.873,0.8703,0.8642,0.8499,0.8472,0.8411,0.8333,0.8126,0.7988,0.7988,0.7988,0.7988,0.7988,0.7988,0.7988,0.7988,0.7988,0.8137,0.8379,0.8379,0.8684,0.9187,0.8924,0.9072,0.9494,0.9618,0.9937,1.0561,1.0863,1.1273,1.2204,1.2433,1.2638,1.3266,1.3326,1.3314,1.3507,1.4014,1.457,1.5028,1.5825,1.6465,1.667,1.7068,1.6891,1.5736,1.5569,1.5095,1.3844,1.3725,1.3725,1.3725,1.3246,1.2946,1.2946,1.2466,1.2225,1.2225,1.145,1.0967,1.0967,1.0186,0.9822,0.9822,0.9822,0.9822,0.9822,0.9822,0.9822,0.9822,0.9822,0.9822,0.9822,0.9822,0.9822,0.9822,0.9822,0.9822,0.9822,0.9822,0.9822,0.9822,0.9822,0.9822,0.9822,0.9822,0.9727,0.9598,0.9544,0.9347,0.92,0.9089,0.9008,0.8885,0.8885,0.8885,0.8885,0.8885,0.8885,0.8885,0.8885,0.8885,0.8885,0.8885,0.8885,0.8885,0.8885,0.8885,0.8885,0.8885,0.8885,0.8865,0.8804,0.8797,0.8832,0.8771,0.8682,0.8567,0.8418,0.835,0.8275,0.8187,0.8092,0.7988,0.7988,0.7988,0.8088,0.8237,0.8237,0.8485,0.8882,0.8882,0.908,0.9434,0.9327,0.9426,0.943,0.96,1.0011,1.0476,1.1092,1.1838,1.2759,1.3254,1.3688,1.4304,1.4292,1.4195,1.428,1.4461,1.4702,0.0,1.5934,1.6598,1.6682,1.708,1.709,1.6279,1.6105,1.5755,1.4872,1.4693,1.4652,1.4652,1.429,1.4055,1.4055,1.3643,1.3466,1.3466,1.2643,1.2201,1.2201,1.1418,1.0816,1.035,1.04,1.0186,0.9822,0.9822,0.9822,0.9822,0.9822,0.9822,0.9822,0.9822,0.9822,0.9822,0.9822,0.9822,0.9822,0.9822,0.9822,0.9822,0.9822,0.9822,0.9822,0.9822,0.9754,0.9659,0.9564,0.9395,0.9262,0.911,0.9015,0.8885,0.8885,0.8885,0.8885,0.8885,0.8885,0.8885,0.8885,0.8885,0.8885,0.8885,0.8885,0.8885,0.8885,0.8885,0.8885,0.8885,0.8885,0.8885,0.8885,0.8885,0.8885,0.8885,0.8804,0.8669,0.856,0.8513,0.8438,0.8395,0.8194,0.8092,0.7988,0.7988,0.8137,0.8379,0.8379,0.8684,0.9187,0.9187,0.9335,0.9575,0.9575,0.9575,1.0059,1.0055,1.0129,1.0272,1.1104,1.2216,1.3278,1.3519,1.3761,1.4558,1.4304,1.4002,1.4256,1.4304,1.4485,1.5028,1.5765,1.638,1.6658,1.6923,1.7177,1.7443,1.7249,1.7092,1.7092,1.6851,1.6706,1.6706,1.5547,1.4802,1.4823,1.3611,1.2918,1.2918,1.3182,1.3294,1.3294,1.3561,1.2958,1.1535,1.1663,1.1027,0.9822,0.9822,0.9822,0.9822,0.9822,0.9822,0.9822,0.9822,0.9822,0.9822,0.9822,0.9822,0.9822,0.9822,0.9822,0.9822,0.9822,0.9822,0.9822,0.9822,0.9822,0.9768,0.9469,0.9381,0.932,0.9022,0.8885,0.8885,0.8885,0.8885,0.8885,0.8885,0.8885,0.8885,0.8885,0.8885,0.8885,0.8885,0.8885,0.8885,0.8885,0.8885,0.8885,0.8885,0.8885,0.8885,0.8885,0.8885,0.8885,0.8885,0.8804,0.871,0.871,0.8574,0.8486,0.8486,0.835,0.8208,0.8002,0.7988,0.8137,0.8379,0.8435,0.8684,0.9187,0.9187,0.9335,0.9575,0.9575,0.9575,0.9957,1.0088,1.0447,1.0767,1.2107,1.3447,1.3954,1.422,1.4582,1.5378,1.527,1.5052,1.5125,1.5137,1.5197,1.5354,1.5885,1.6308,1.6392,1.6646,1.6839,1.6923,1.6863,1.6815,1.6815,1.6742,1.6706,1.6706,1.6357,1.6121,1.6133,1.5783,1.5558,1.5558,1.4774,1.4349,1.4349,1.3538,1.2903,1.2493,1.2556,1.1552,0.968,0.9774,0.9822,0.9822,0.9822,0.9822,0.9822,0.9822,1.0301,1.1148,1.1148,1.1148,1.1148,1.1148,1.0543,0.9822,0.9822,0.9822,0.9822,0.9822,0.9754,0.9652,0.9571,0.9395,0.9262,0.9117,0.9015,0.8885,0.8885,0.8885,0.8885,0.8885,0.8885,0.8885,0.8885,0.8885,0.8885,0.8885,0.8885,0.8885,0.8885,0.8885,0.8885,0.8885,0.8885,0.8885,0.8885,0.8885,0.8885,0.8885,0.8844,0.8817,0.8817,0.8832,0.8757,0.8648,0.8601,0.857,0.8512,0.8342,0.8485,0.8931,0.8981,0.9137,0.9484,0.9484,0.9533,0.9575,0.9575,0.9575,1.0274,1.0595,1.1206,1.1878,1.3047,1.421,1.4814,1.4958,1.5197,1.5765,1.5596,1.5378,1.5475,1.5415,1.5378,1.5487,1.5849,1.6163,1.6272,1.6429,1.6573,1.6682,1.6598,1.6537,1.6537,1.6441,1.638,1.638,1.638,1.638,1.638,1.638,1.638,1.638,1.5745,1.54,1.54,1.4759,1.4138,1.3595,1.3628,1.266,1.0759,1.0458,1.0063,0.9646,0.9646,0.9884,1.0301,1.0419,1.1121,1.2191,1.2406,1.2423,1.2371,1.244,1.1985,1.1261,1.0725,1.0543,1.0475,0.9875,0.968,0.9585,0.9462,0.9357,0.92,0.9083,0.9008,0.8885,0.8885,0.8885,0.8885,0.8885,0.8885,0.8885,0.8885,0.8885,0.8885,0.8885,0.8885,0.8885,0.8885,0.8885,0.8885,0.8885,0.8885,0.8885,0.8885,0.8885,0.8885,0.8885,0.8885,0.8885,0.8885,0.9051,0.9065,0.8968,0.9014,0.9108,0.9227,0.8801,0.8874,0.9439,0.9439,0.9551,0.973,0.973,0.9697,0.9575,0.9575,0.9665,1.0748,1.1329,1.2149,1.3274,1.4027,1.4765,1.5769,1.5796,1.5648,1.5837,1.5511,1.5297,1.5487,1.5342,1.5258,1.5499,1.5728,1.5982,1.6235,1.626,1.6344,1.6598,1.6404,1.6247,1.6247,1.603,1.5885,1.5885,1.5885,1.5885,1.5885,1.5885,1.5885,1.5885,1.6127,1.6247,1.6247,1.6501,1.599,1.4702,1.482,1.4127,1.271,1.1697,1.0697,0.9722,0.9722,1.0301,1.1282,1.1503,1.2226,1.3127,1.3653,1.3691,1.3479,1.3758,1.3775,1.3517,1.2269,1.1848,1.1643,1.0227,0.9755,0.9634,0.9296,0.92,0.9166,0.8974,0.8885,0.8885,0.8885,0.8885,0.8885,0.8885,0.8885,0.8885,0.8885,0.8885,0.8885,0.8885,0.8885,0.8885,0.8885,0.8885,0.8885,0.8885,0.8885,0.8885,0.8885,0.8885,0.8885,0.8885,0.894,0.894,0.894,0.9272,0.943,0.943,0.9566,0.9746,1.0015,0.9361,0.9265,0.9855,0.9855,0.9872,0.9908,0.9908,0.9827,0.9673,0.9673,0.9762,1.0319,1.1075,1.2203,1.3489,1.4854,1.6011,1.6428,1.6489,1.6343,1.598,1.596,1.6005,1.5854,1.5923,1.6005,1.5854,1.5849,1.591,1.597,1.5982,1.5994,1.6054,1.6006,1.597,1.597,1.5922,1.5885,1.5885,1.5885,1.5885,1.5885,1.5885,1.5885,1.5885,1.5946,1.597,1.597,1.603,1.5923,1.5594,1.5653,1.5047,1.3821,1.2927,1.2404,1.2175,1.2175,1.2289,1.2527,1.2563,1.3308,1.4437,1.4719,1.4688,1.4541,1.5007,1.4449,1.337,1.3076,1.2958,1.2745,1.1279,1.0724,1.0429,0.9511,0.9076,0.8981,0.8892,0.8885,0.8885,0.8885,0.8885,0.8885,0.8885,0.8885,0.8885,0.8885,0.8885,0.8885,0.8885,0.8885,0.8885,0.8885,0.8885,0.8885,0.8885,0.8885,0.8885,0.8885,0.8885,0.8885,0.8885,0.9161,0.9272,0.9272,0.9541,0.9706,0.9706,0.9724,0.9928,1.0194,0.9853,0.9743,1.0108,1.0108,1.0144,1.0155,1.0155,1.0131,1.0046,1.0046,1.0071,1.0755,1.1622,1.2825,1.4591,1.5771,1.6549,1.6884,1.6842,1.663,1.6365,1.6365,1.6471,1.6311,1.6418,1.6471,1.6311,1.6152,1.6111,1.6111,1.6004,1.5885,1.5885,1.5885,1.5885,1.5885,1.5885,1.5885,1.5885,1.5885,1.5885,1.5885,1.5885,1.5885,1.5885,1.5885,1.5885,1.5885,1.5885,1.5885,1.5885,1.5885,1.5565,1.4976,1.3362,1.2683,1.2683,1.2683,1.3017,1.3527,1.3638,1.4343,1.5353,1.5773,1.5761,1.5591,1.5978,1.5632,1.4823,1.4249,1.4019,1.3749,1.2284,1.1755,1.1595,1.0954,1.0256,0.9754,0.9754,0.9375,0.8885,0.8885,0.8885,0.8885,0.8885,0.932,0.9588,0.9051,0.9375,0.9588,0.8995,0.8885,0.8885,0.8885,0.8885,0.8885,0.8885,0.8885,0.8885,0.8885,0.8885,0.8885,0.8885,0.9051,0.921,0.9375,0.9651,0.9871,1.0036,1.0147,1.0312,1.0476,1.0301,1.0313,1.042,1.042,1.0379,1.029,1.029,1.0249,1.0212,1.0212,1.0209,1.1074,1.2221,1.3607,1.5678,1.6473,1.6859,1.7147,1.7028,1.6842,1.6842,1.6842,1.6789,1.6736,1.6736,1.6789,1.6736,1.6524,1.6377,1.6377,1.6152,1.5992,1.5939,1.5939,1.5951,1.5885,1.5885,1.5885,1.5885,1.5885,1.5885,1.5885,1.5885,1.5885,1.5885,1.5885,1.5885,1.5885,1.5885,1.5885,1.5885,1.5885,1.5885,1.5832,1.3879,1.3014,1.3014,1.3014,1.3555,1.4504,1.4702,1.5267,1.5934,1.6441,1.6453,1.626,1.6585,1.667,1.6454,1.5434,1.5041,1.4829,1.3361,1.2904,1.281,1.2519,1.1764,1.1,1.1,1.0131,0.921,0.921,0.9044,0.8885,0.8885,0.9809,1.046,0.9423,0.9809,1.0186,0.9375,0.9044,0.8885,0.8885,0.8885,0.8885,0.8885,0.8885,0.8885,0.8885,0.8885,0.8885,0.8885,0.894,0.9106,0.943,0.9706,1.0036,1.0366,1.0586,1.0688,1.0688,1.0688,1.0688,1.0688,1.0688,1.0623,1.0423,1.0423,1.0404,1.0302,1.0302,1.0339,1.0022,1.2012,1.4239,0.0,1.6526,1.7154,0.0,0.0,1.7477,0.0,1.7265,1.7067,1.6736,1.6948,1.7067,1.6736,1.6683,1.663,1.663,1.663,1.6524,1.6271,1.6271,1.6164,1.5939,1.5885,1.5885,1.5885,1.5885,1.5885,1.5885,1.5885,1.5885,1.5885,1.5885,1.5885,1.5885,1.5885,1.5885,1.5885,1.5885,1.5885,1.5885,1.5565,1.5458,1.5458,1.5458,1.5512,1.5684,1.5708,1.5815,1.5922,1.6223,1.6175,1.6006,1.6513,1.6549,1.6332,1.6167,1.6113,1.5846,1.4451,1.3996,1.3769,1.2698,1.2309,1.22,1.22,1.1328,1.0453,1.0453,0.9699,0.8885,0.8885,0.9809,1.0672,1.0507,0.9754,0.943,1.0296,0.9588,0.8885,0.8885,0.8885,0.8885,0.8885,0.8885,0.8885,0.8885,0.8885,0.8885,0.8885,0.9161,0.943,0.9706,1.0036,1.0366,1.0641,1.0688,1.0688,1.0688,1.0688,1.0688,1.0688,1.0688,1.068,1.0655,1.0655,1.0647,1.0623,1.0623,1.0631,1.0896,1.2521,1.4162,1.5451,1.6126,1.65,1.682,1.6994,1.7141,1.7353,1.7289,1.7186,1.7186,1.7318,1.7384,1.7213,1.7054,1.6948,1.6948,1.6842,1.6683,1.6524,1.6524,1.6418,1.6164,1.6111,1.6057,1.5885,1.5885,1.5885,1.5885,1.5885,1.5885,1.5885,1.5885,1.5885,1.5885,1.5885,1.5885,1.5885,1.5885,1.5885,1.5885,1.5885,1.5885,1.5885,1.5885,1.5885,1.5885,1.5885,1.5885,1.5897,1.6018,1.5994,1.5922,1.6163,1.6175,1.6066,1.6066,1.6066,1.5988,1.5332,1.5137,1.503,1.4535,1.3943,1.3403,1.3403,1.258,1.1682,1.1844,1.0937,1.0054,1.0118,1.05,1.096,1.1509,1.1219,1.0844,1.0726,0.9754,0.8885,0.8885,0.8885,0.8885,0.8885,0.8885,0.8885,0.8885,0.8885,0.8885,0.8885,0.9051,0.932,0.9761,0.9926,1.0202,1.0696,1.0688,1.0688,1.0688,1.0688,1.0688,1.0688,1.0688,1.0688,1.0688,1.0688,1.0688,1.0688,1.0688,1.0688,1.1156,1.2345,1.3373,1.4772,1.5391,1.5765,0.0,0.0,1.6673,0.0,1.7085,1.7152,1.7315,1.7475,1.7582,1.7582,1.7424,1.7279,1.7279,1.7107,1.6895,1.6842,1.6842,1.6736,1.643,1.6377,1.6271,1.6004,1.5992,1.5939,1.5885,1.5885,1.5885,1.5885,1.5885,1.5885,1.5885,1.5885,1.5885,1.5885,1.5885,1.5885,1.5885,1.5885,1.5885,1.5885,1.5885,1.5885,1.5885,1.5885,1.5885,1.5885,1.5885,1.5885,1.5885,1.5885,1.5885,1.5885,1.5885,1.5885,1.5885,1.5885,1.5885,1.5885,1.5885,1.5298,1.4654,1.4654,1.3823,1.3024,1.3181,1.2376,1.1512,1.1634,1.1577,1.1668,1.2256,1.2673,1.2602,1.1452,1.0564,0.988,0.9545,0.9489,0.9384,0.9049,0.9049,0.9049,0.9049,0.9049,0.9049,0.9049,0.9049,0.9273,0.9887,0.9906,1.0097,1.0761,1.072,1.0688,1.0688,1.0688,1.0688,1.0688,1.0688,1.0688,1.0688,1.0688,1.0688,1.0688,1.0688,1.0688,0.9595,1.0661,1.1802,1.3039,1.4188,1.5164,0.0,0.0,1.638,1.6673,1.6727,1.674,1.6754,1.7208,1.7582,1.7582,1.7582,1.7582,1.7582,1.7582,1.7477,1.7173,1.7173,1.7067,1.6736,1.6683,1.6577,1.6324,1.6271,1.6164,1.5885,1.5885,1.5885,1.5885,1.5885,1.5885,1.5885,1.5885,1.5885,1.5885,1.5885,1.5885,1.5885,1.5885,1.5885,1.5885,1.5885,1.5885,1.5885,1.5885,1.5885,1.5885,1.5885,1.5885,1.5885,1.5885,1.5885,1.5885,1.5885,1.5885,1.5885,1.5885,1.5885,1.5885,1.5885,1.5832,1.5832,1.5832,1.5201,1.4503,1.4514,1.3826,1.307,1.307,1.307,1.2956,1.2502,1.3511,1.4106,1.2933,1.2862,1.2596,1.1405,1.1183,1.0781,0.9527,0.9361,0.9361,0.9361,0.9361,0.9361,0.9361,0.9361,0.9643,1.0221,1.008,1.028,1.0956,1.0794,1.0688,1.0688,1.0688,1.0688,1.0688,1.0688,1.0688,1.0688,1.0688,1.0688,1.0688,1.0688,1.0688,0.9474,1.0261,1.1156,1.2331,1.324,1.3988,1.4576,1.5231,1.5792,1.6086,1.6299,1.6486,1.6673,1.6874,1.7021,1.7021,1.7021,1.7021,1.7021,1.7021,1.697,1.6868,1.6868,1.6765,1.6458,1.642,1.6305,1.6048,1.5894,1.5739,1.5636,1.5482,1.539,1.539,1.539,1.5475,1.5632,1.5644,1.5728,1.5885,1.5885,1.5885,1.5885,1.5885,1.5885,1.5885,1.5885,1.5885,1.5885,1.5885,1.5885,1.5885,1.5885,1.5992,1.6164,1.5939,1.5992,1.6111,1.5951,1.5885,1.5922,1.6091,1.603,1.5958,1.6308,1.6296,1.6199,1.6368,1.62,1.5972,1.6135,1.5374,1.4452,1.4452,1.4396,1.4477,1.5044,1.5021,1.474,1.4281,1.3665,1.3089,1.2575,1.2518,1.2346,1.1888,1.115,1.064,1.064,0.9896,0.9381,0.9381,0.9613,0.9903,1.0243,1.0421,1.0677,1.1077,1.0964,1.0867,1.0867,1.0753,1.0688,1.0688,1.0688,1.0688,1.0688,1.0688,1.0688,1.0688,1.0688,1.0688,0.8938,0.9702,1.0573,0.0,1.2318,1.2893,1.3988,1.4536,1.4977,1.5565,1.5845,1.6072,1.6353,1.6406,1.6473,1.6673,1.67,1.67,1.67,1.67,1.67,1.67,1.67,1.6613,1.6463,1.6413,1.6312,1.6061,1.5859,0.0,1.5493,1.5354,1.5202,1.5113,1.5113,1.5197,1.5366,1.5366,1.5499,1.5765,1.5765,1.5801,1.5885,1.5885,1.5951,1.6057,1.6057,1.6004,1.5885,1.6004,1.6057,1.6045,1.6152,1.6258,1.643,1.6205,1.6258,1.643,1.6205,1.6152,1.6189,1.636,1.6414,1.6414,1.6784,1.6833,1.6753,1.6925,1.6992,1.7033,1.7216,1.6622,1.5984,1.5984,1.5918,1.6092,1.696,1.6376,1.5671,1.5671,1.5156,1.451,1.4107,1.3991,1.3876,1.3413,1.2718,1.2194,1.2145,1.1562,1.1094,1.0977,1.1269,1.1395,1.1278,1.1396,1.1421,1.1313,1.1151,1.1029,1.1028,1.085,1.0753,1.0696,1.0688,1.0688,1.0688,1.0688,1.0688,1.0688,1.0688,1.0907,0.0,0.0,0.0,0.0,0.0,0.0,1.3906,0.0,1.388,1.5097,1.5351,1.5444,1.5704,1.5758,1.5992,1.658,1.6673,1.6673,1.6673,1.6673,1.6673,1.6673,1.6673,1.6673,1.6673,1.6673,1.6587,1.6299,1.6299,1.6035,1.5519,1.5469,1.538,1.5089,1.5089,1.5089,1.5101,1.5101,1.5234,1.5487,1.5499,1.5632,1.5885,1.5885,1.6057,1.6324,1.6324,1.6164,1.5939,1.6217,1.6324,1.6324,1.6577,1.6736,1.6736,1.6683,1.6736,1.6736,1.6683,1.6683,1.6683,1.6696,1.694,1.721,1.7236,1.7385,1.7614,1.7614,1.7635,1.7608,1.7608,1.7575,1.7479,1.7479,1.7479,1.7596,1.7914,1.753,1.7162,1.7162,1.7368,1.7126,1.5876,1.5688,1.5273,1.4023,1.4013,1.4063,1.3844,1.4252,1.448,1.4183,1.4421,1.4252,1.3356,1.3113,1.2592,1.1685,1.1446,1.1273,1.1101,1.1085,1.0995,1.0814,1.0806,1.0798,1.0798,1.0743,1.0688,1.0688,1.0688,1.1282,0.831,0.0,0.0,0.0,0.0,0.0,0.0,0.0,1.2692,1.384,1.4093,1.4349,1.507,1.5204,1.5324,1.5698,1.5939,1.6072,1.6072,1.6072,1.6072,1.6072,1.6072,1.6072,1.6072,1.6072,1.6024,0.0,1.5783,1.5638,1.5493,1.5154,1.4911,1.4826,1.4619,1.4618,1.4823,1.4823,1.4956,1.5221,1.5403,1.5535,1.5608,1.5801,1.6057,1.6324,1.6324,1.6377,1.6471,1.6577,1.6577,1.6577,1.6683,1.6842,1.7014,1.6789,1.6842,1.7014,1.6789,1.6683,1.6747,1.7219,1.7258,1.7325,1.7881,1.7983,1.7932,1.8135,1.8192,1.8126,1.7965,1.791,1.7784,1.755,1.783,1.8064,1.7726,1.784,1.801,1.801,1.8073,1.7948,1.742,1.7479,1.742,1.6891,1.622,1.5795,1.5736,1.5084,1.454,1.448,1.4787,1.4847,1.4609,1.4736,1.4765,1.4469,1.4258,1.4154,1.4104,1.379,1.3578,1.3517,1.3301,1.3166,1.3166,1.15,1.0688,1.0688,1.0688,1.1282,0.8818,0.9072,0.9486,0.9726,0.0,0.0,1.1289,1.161,1.2051,0.0,1.3706,1.4028,1.4656,1.4928,1.5062,1.519,1.5351,1.5551,1.5744,1.5784,1.5784,1.5784,1.5784,1.5784,1.5784,1.5784,1.5784,1.5784,1.5689,1.5594,1.5499,1.5118,1.4892,1.4892,1.4592,1.4521,1.4692,1.4594,1.4678,1.4944,1.5101,1.5345,1.5667,1.5814,1.6159,1.6696,1.6696,1.6855,1.7107,1.7107,1.7001,1.6895,1.7054,1.7213,1.7331,1.716,1.7213,1.7331,1.716,1.7107,1.7132,1.7598,1.777,1.7835,1.8402,1.8628,1.8628,1.8784,1.8706,1.8532,1.8252,1.8194,1.8135,1.7901,1.8077,1.8194,1.8123,1.824,1.8369,1.8252,1.8311,1.8357,1.8194,1.8311,1.8369,1.8194,1.776,1.7455,1.7279,1.6868,1.6562,1.6385,1.668,1.6691,1.6149,1.6279,1.6161,1.5628,1.5499,1.5369,1.533,1.5047,1.4809,1.4603,1.4407,1.4234,1.4083,1.2309,1.1391,1.1391,1.0907,1.1828,0.9457,0.9646,1.0037,1.0412,1.0198,0.0,1.1637,1.1575,1.1628,0.0,1.348,1.3761,1.4148,1.4469,1.4727,1.4754,1.4847,1.507,1.5658,1.5725,1.5725,1.5725,1.5765,1.5778,1.5778,1.5758,1.5784,1.5784,1.5784,1.5737,1.5547,1.5261,1.5131,1.5131,1.4879,1.4736,1.4736,1.4496,1.4473,1.4728,1.4752,1.5131,1.5878,1.5915,1.639,1.7173,1.7173,1.7331,1.7582,1.7582,1.7477,1.7279,1.7529,1.7582,1.7582,1.7582,1.7582,1.7582,1.7582,1.7582,1.7635,1.7889,1.825,1.8544,1.8838,1.9132,1.943,1.943,1.9185,1.8823,1.8532,1.8473,1.8473,1.8415,1.8252,1.8265,1.8765,1.8648,1.8428,1.8135,1.8311,1.8473,1.8473,1.8473,1.8473,1.8473,1.8765,1.8823,1.8532,1.901,1.9301,1.8997,1.9243,1.8952,1.7806,1.7689,1.722,1.6101,1.6042,1.5943,1.5779,1.5712,1.5478,1.5032,1.4977,1.4723,1.4298,1.3166,1.258,1.258,1.1555,1.2797,1.0546,1.0894,1.1216,1.0157,1.0474,0.0,1.0003,1.0083,1.0514,0.0,1.1022,1.1196,1.2198,1.2625,1.2906,1.3172,1.3829,1.4469,1.5044,1.5182,1.5182,1.5182,1.5337,1.5484,1.5484,1.5698,1.5784,1.5784,1.5784,1.5784,1.5737,1.5547,1.5404,1.5404,1.5178,1.5035,1.5035,1.4987,1.4869,1.4678,1.4949,1.522,1.558,1.5816,1.639,1.7173,1.7173,1.7331,1.7582,1.7582,1.7582,1.7529,1.7582,1.7582,1.7582,1.7582,1.7582,1.7582,1.7582,1.7582,1.7635,1.7889,1.825,1.8544,1.8838,1.9132,1.943,1.943,1.9185,1.8881,1.8823,1.8823,1.8706,1.8473,1.8777,1.901,1.859,1.8894,1.9127,1.8765,1.901,1.9127,1.8823,1.901,1.9127,1.8823,1.9068,1.9301,1.9185,1.9301,1.9372,1.9301,1.9372,1.9301,1.9068,1.901,1.8952,1.8648,1.8648,1.8622,1.8571,1.8133,1.7837,1.7721,1.7257,1.6562,1.5541,1.4352,1.376,1.376,1.3545,1.4298,1.1236,1.1316,1.1476,1.0742,1.0768,0.0,0.0,1.019,1.0327,1.1095,1.0894,1.0822,1.1739,1.202,1.2221,1.2516,1.316,1.3694,1.3883,1.4539,1.5008,1.5008,1.5142,1.5177,1.5177,1.5444,1.5671,1.5771,1.5784,1.5784,1.5784,1.5689,1.5642,1.5642,1.5404,1.5309,1.5309,1.5178,1.5035,1.4892,1.503,1.5355,1.591,1.6062,1.6562,1.7384,1.7384,1.7477,1.7582,1.7582,1.7582,1.7582,1.7582,1.7582,1.7582,1.7582,1.7582,1.7582,1.7582,1.7582,1.7635,1.7889,1.8089,1.833,1.8624,1.8918,1.9145,1.9145,1.9123,1.9127,1.9127,1.9127,1.9127,1.8952,1.901,1.9127,1.8952,1.901,1.9127,1.9127,1.9301,1.9359,1.9185,1.9301,1.9359,1.9185,1.9301,1.943,1.943,1.943,1.943,1.943,1.943,1.943,1.943,1.943,1.943,1.943,1.943,1.943,1.943,1.9092,1.8784,1.8504,1.7889,1.7318,1.6776,1.6127,1.553,1.4995,1.4406,1.5049,1.2011,1.1855,1.1895,1.1495,1.1289,1.1142,0.0,0.0,0.0,1.1323,1.1109,0.0,0.0,0.0,0.0,0.0,0.0,0.0,0.0,1.3588,0.0,1.4566,1.478,1.4901,1.4847,1.495,1.5231,1.5631,1.5551,1.5565,1.5691,1.5758,1.5784,1.5784,1.5642,1.5547,1.5547,1.5356,1.5226,1.5178,1.5178,1.557,1.6325,1.6325,1.6779,1.7582,1.7582,1.7582,1.7582,1.7582,1.7582,1.7582,1.7582,1.7582,1.7582,1.7582,1.7582,1.7582,1.7582,1.7582,1.7622,1.7876,1.7942,1.8049,1.8397,1.8691,1.8918,1.8918,1.9132,1.943,1.943,1.943,1.943,1.943,1.9185,1.9055,1.9359,1.9185,1.9055,1.9359,1.943,1.943,1.943,1.943,1.943,1.943,1.943,1.943,1.943,1.943,1.943,1.943,1.943,1.943,1.943,1.943,1.943,1.943,1.943,1.943,1.943,1.931,1.8945,1.841,1.7862,1.7582,1.7582,1.7582,1.7147,1.618,1.5209,1.5808,1.324,1.3574,0.0,0.0,1.2334,1.2654,1.0408,0.0,1.0715,1.006,0.0,0.0,0.0,0.0,0.0,0.0,0.0,0.0,1.1236,1.1819,1.2449,1.2971,1.3921,1.4469,1.4215,1.3975,1.4175,1.5048,1.4576,1.4629,1.5404,1.5685,1.5784,1.5784,1.5784,1.5784,1.5784,1.5737,1.5642,1.5452,1.5452,1.5751,1.6325,1.6325,1.6779,1.7582,1.7582,1.7582,1.7582,1.7582,1.7582,1.7582,1.7582,1.7582,1.7582,1.7582,1.7582,1.7582,1.7582,1.7582,1.7595,1.7622,1.7822,1.8049,1.8397,1.8691,1.8918,1.8918,1.9132,1.943,1.943,1.943,1.943,1.943,1.9372,1.9359,1.9372,1.9372,1.9359,1.9372,1.943,1.943,1.943,1.943,1.943,1.943,1.943,1.943,1.943,1.943,1.943,1.943,1.943,1.943,1.943,1.943,1.943,1.943,1.943,1.943,1.943,1.8865,1.8437,1.8049,1.7756,1.7582,1.7582,1.7582,1.7529,1.7424,1.7265,1.7371,0.0,0.0,0.0,0.0,0.0,0.0,1.1022,0.0,1.0474,0.0,0.0,0.0,0.0,0.0,0.0,0.0,1.0568,0.0,0.0,0.0,1.1824,0.0,0.0,0.0,1.3774,1.352,1.3828,1.4928,1.4255,1.4282,1.5337,1.5511,1.5658,1.5784,1.5784,1.5784,1.5784,1.5784,1.5784,1.5689,1.5689,1.5901,1.6325,1.6434,1.6839,1.7393,1.7515,1.7582,1.7582,1.7582,1.7582,1.7582,1.7582,1.7582,1.7582,1.7582,1.7582,1.7582,1.7582,1.7582,1.7582,1.7582,1.7675,1.7796,1.7929,1.829,1.8677,1.8677,1.9011,1.943,1.943,1.943,1.943,1.943,1.943,1.943,1.943,1.943,1.943,1.943,1.943,1.943,1.943,1.943,1.943,1.943,1.943,1.943,1.943,1.943,1.943,1.943,1.943,1.943,1.943,1.943,1.943,1.943,1.943,1.943,1.943,1.8958,1.8611,1.8303,1.8009,1.7769,1.7582,1.7582,1.7582,1.7582,1.7582,1.7582,1.3734,0.0,0.0,0.0,0.0,0.0,0.0,0.0,0.0,0.0,0.0,0.0,0.0,0.0,0.0,0.0,0.0,1.0301,0.0,1.039,0.0,0.0,0.0,0.0,0.0,1.2799,1.3039,1.4389,1.3654,1.3693,1.5084,1.5311,1.5498,1.5698,1.5744,1.5784,1.5784,1.5784,1.5784,1.5784,1.5784,1.5979,1.6335,1.6567,1.6874,1.7219,1.7462,1.7582,1.7582,1.7582,1.7582,1.7582,1.7582,1.7582,1.7582,1.7582,1.7582,1.7582,1.7582,1.7582,1.7582,1.7582,1.7582,1.7595,1.7689,1.8076,1.8504,1.8584,1.8971,1.943,1.943,1.943,1.943,1.943,1.943,1.943,1.943,1.943,1.943,1.943,1.943,1.943,1.943,1.943,1.943,1.943,1.943,1.943,1.943,1.943,1.943,1.943,1.943,1.943,1.943,1.943,1.943,1.943,1.943,1.943,1.943,1.9078,1.8824,1.8611,1.8182,1.7876,1.7716,1.7622,1.7582,1.7582,1.7582,1.7582,0.0,0.0,0.0,1.2759,0.0,0.0,0.0,0.0,1.1779,0.0,0.0,0.0,0.0,0.0,0.0,0.0,0.0,0.0,0.0,0.0,0.0,0.0,0.0,0.0,0.0,1.135,1.1404,0.0,1.2438,1.2692,1.4456,1.5084,1.5404,1.5404,1.5685,1.5784,1.5784,1.5784,1.5784,1.5784,1.5784,1.5979,1.6335,1.6567,1.6874,1.7219,1.7462,1.7582,1.7582,1.7582,1.7582,1.7582,1.7582,1.7582,1.7582,1.7582,1.7582,1.7582,1.7582,1.7582,1.7582,1.7582,1.7582,1.7635,1.7889,1.825,1.8544,1.8824,1.9132,1.943,1.943,1.943,1.943,1.943,1.943,1.943,1.943,1.943,1.943,1.943,1.943,1.943,1.943,1.943,1.943,1.943,1.943,1.943,1.943,1.943,1.943,1.943,1.943,1.943,1.943,1.943,1.943,1.943,1.943,1.943,1.943,1.9078,1.8918,1.8905,1.8288,1.7995,1.7982,1.7729,1.7582,1.7582,1.7582,1.7582,0.0,0.0,1.5504,1.3881,0.0,0.0,0.0,0.0,0.0,0.0,0.0,0.0,0.0,0.0,0.0,0.0,0.0,0.0,0.0,0.0,0.0,0.0,0.0,0.0,0.0,0.0,0.0,0.0,1.2301,0.0,1.4429,1.471,1.499,1.5391,1.5484,1.5631,1.5784,1.5784,1.5784,1.5784,1.5784,1.5885,1.5992,1.6486,1.6767,1.6887,1.7368,1.7582,1.7582,1.7582,1.7582,1.7582,1.7582,1.7582,1.7582,1.7582,1.7582,1.7582,1.7582,1.7582,1.7622,1.7822,1.7836,1.7943,1.825,1.8544,1.8798,1.8891,1.9132,1.943,1.943,1.943,1.943,1.943,1.943,1.943,1.943,1.943,1.943,1.943,1.943,1.943,1.943,1.943,1.943,1.943,1.943,1.943,1.943,1.943,1.943,1.943,1.943,1.943,1.943,1.943,1.943,1.943,1.943,1.943,1.943,1.9265,1.9118,1.8931,1.8675,1.8382,1.7995,1.7889,1.7782,1.7582,1.7582,1.7582,1.6019,1.6126,0.0,1.471,1.4255,0.0,1.2334,0.0,1.2705,0.0,0.0,0.0,0.0,0.0,0.0,0.0,0.0,0.0,0.0,0.9058,0.0,0.0,0.0,0.0,0.0,0.0,1.0875,1.2502,1.198,0.0,0.0,1.4359,1.4736,1.5231,1.5337,1.5538,1.5784,1.5784,1.5784,1.5784,1.5784,1.5784,1.5798,1.6433,1.67,1.674,1.7328,1.7582,1.7582,1.7582,1.7582,1.7582,1.7582,1.7582,1.7582,1.7582,1.7582,1.7582,1.7582,1.7649,1.7782,1.7929,1.8062,1.8263,1.8557,1.8771,1.8945,1.9052,1.9225,1.943,1.943,1.943,1.943,1.943,1.943,1.943,1.943,1.943,1.943,1.943,1.943,1.943,1.943,1.943,1.943,1.943,1.943,1.943,1.943,1.943,1.943,1.943,1.943,1.943,1.943,1.943,1.943,1.943,1.943,1.943,1.943,1.943,1.9279,1.9092,1.8985,1.8731,1.8302,1.8089,1.7889,1.7742,1.7635,1.7582]}]]